[[{"header":{"parameterUnit":"m.s-1","parameterCategory":1,"la1":31.0,"la2":29.5877,"lo1":-88.7671,"lo2":-86.6584,"dy":0.0162,"dx":0.0185,"nx":115,"ny":88,"refTime":"2023-09-10T18:00:00:Z","depth":0,"parameterNumber":2,"parameterNumberName":"U-component_of_WINDS"},"data":[0.0,0.0,0.0,0.0,0.0,0.0,0.0,0.0,0.0,0.0,0.0,0.0,0.0,0.0,0.0,0.0,0.0,0.0,0.0,0.0,0.0,0.0,0.0,0.0,0.0,0.0,0.0,0.0,0.0,0.0,0.0,0.0,0.0,0.0,0.0,0.0,0.0,0.0,0.0,0.0,0.0,0.0,0.0,0.0,0.0,0.0,0.0,0.0,0.0,0.0,0.0,0.0,0.0,0.0,0.0,0.0,0.0,0.0,0.0,0.0,0.0,0.0,0.0,0.0,0.0,0.0,0.0,0.0,0.0,0.0,0.0,0.0,0.0,0.0,0.0,0.0,0.0,0.0,0.0,0.0,0.0,0.0,0.0,0.0,0.0,0.0,0.0,0.0,0.0,0.0,0.0,0.0,0.0,0.0,0.0,0.0,0.0,0.0,0.0,0.0,0.0,0.0,0.0,0.0,0.0,0.0,0.0,0.0,0.0,0.0,0.0,0.0,0.0,0.0,0.0,0.0,0.0,0.0,0.0,0.0,0.0,0.0,0.0,0.0,0.0,0.0,0.0,0.0,0.0,0.0,0.0,0.0,0.0,0.0,0.0,0.0,0.0,0.0,0.0,0.0,0.0,0.0,0.0,0.0,0.0,0.0,0.0,0.0,0.0,0.0,0.0,0.0,0.0,0.0,0.0,0.0,0.0,0.0,0.0,0.0,0.0,0.0,0.0,0.0,0.0,0.0,0.0,0.0,0.0,0.0,0.0,0.0,0.0,0.0,0.0,0.0,0.0,0.0,0.0,0.0,0.0,0.0,0.0,0.0,0.0,0.0,0.0,0.0,0.0,0.0,0.0,0.0,0.0,0.0,0.0,0.0,0.0,0.0,0.0,0.0,0.0,0.0,0.0,0.0,0.0,0.0,0.0,0.0,0.0,0.0,0.0,0.0,0.0,0.0,0.0,0.0,0.0,0.0,0.0,0.0,0.0,0.0,0.0,0.0,0.0,0.0,0.0,0.0,0.0,0.0,0.0,0.0,0.0,0.0,0.0,0.0,0.0,0.0,0.0,0.0,0.0,0.0,0.0,0.0,0.0,0.0,0.0,0.0,0.0,0.0,0.0,0.0,0.0,0.0,0.0,0.0,0.0,0.0,0.0,0.0,0.0,0.0,0.0,0.0,0.0,0.0,0.0,0.0,0.0,0.0,0.0,0.0,0.0,0.0,0.0,0.0,0.0,0.0,0.0,0.0,0.0,0.0,0.0,0.0,0.0,0.0,0.0,0.0,0.0,0.0,0.0,0.0,0.0,0.0,0.0,0.0,0.0,0.0,0.0,0.0,0.0,0.0,0.0,0.0,0.0,0.0,0.0,0.0,0.0,0.0,0.0,0.0,0.0,0.0,0.0,0.0,0.0,0.0,0.0,0.0,0.0,0.0,0.0,0.0,0.0,0.0,0.0,0.0,0.0,0.0,0.0,0.0,0.0,0.0,0.0,0.0,0.0,0.0,0.0,0.0,0.0,0.0,0.0,0.0,0.0,0.0,0.0,0.0,0.0,0.0,0.0,0.0,0.0,0.0,0.0,0.0,0.0,0.0,0.0,0.0,0.0,0.0,0.0,0.0,0.0,0.0,0.0,0.0,0.0,0.0,0.0,0.0,0.0,0.0,0.0,0.0,0.0,0.0,0.0,0.0,0.0,0.0,0.0,0.0,0.0,0.0,0.0,0.0,0.0,0.0,0.0,0.0,0.0,0.0,0.0,0.0,0.0,0.0,0.0,0.0,0.0,0.0,0.0,0.0,0.0,0.0,0.0,0.0,0.0,0.0,0.0,0.0,0.0,0.0,0.0,0.0,0.0,0.0,0.0,0.0,0.0,0.0,0.0,0.0,0.0,0.0,0.0,0.0,0.0,0.0,0.0,0.0,0.0,0.0,0.0,0.0,0.0,0.0,0.0,0.0,0.0,0.0,0.0,0.0,0.0,0.0,0.0,0.0,0.0,0.0,0.0,0.0,0.0,0.0,0.0,0.0,0.0,0.0,0.0,0.0,0.0,0.0,0.0,0.0,0.0,0.0,0.0,0.0,0.0,0.0,0.0,0.0,0.0,0.0,0.0,0.0,0.0,0.0,0.0,0.0,0.0,0.0,0.0,0.0,0.0,0.0,0.0,0.0,0.0,0.0,0.0,0.0,0.0,0.0,0.0,0.0,0.0,0.0,0.0,0.0,0.0,0.0,0.0,0.0,0.0,0.0,0.0,0.0,0.0,0.0,0.0,0.0,0.0,0.0,0.0,0.0,0.0,0.0,0.0,0.0,0.0,0.0,0.0,0.0,0.0,0.0,0.0,0.0,0.0,0.0,0.0,0.0,0.0,0.0,0.0,0.0,0.0,0.0,0.0,0.0,0.0,0.0,0.0,0.0,0.0,0.0,0.0,0.0,0.0,0.0,0.0,0.0,0.0,0.0,0.0,0.0,0.0,0.0,0.0,0.0,0.0,0.0,0.0,0.0,0.0,0.0,0.0,0.0,0.0,0.0,0.0,0.0,0.0,0.0,0.0,0.0,0.0,0.0,0.0,0.0,0.0,0.0,0.0,0.0,0.0,0.0,0.0,0.0,0.0,0.0,0.0,0.0,0.0,0.0,0.0,0.0,0.0,0.0,0.0,0.0,0.0,0.0,0.0,0.0,0.0,0.0,0.0,0.0,0.0,0.0,0.0,0.0,0.0,0.0,0.0,0.0,0.0,0.0,0.0,0.0,0.0,0.0,0.0,0.0,0.0,0.0,0.0,0.0,0.0,0.0,0.0,0.0,0.0,0.0,0.0,0.0,0.0,0.0,0.0,0.0,0.0,0.0,0.0,0.0,0.0,0.0,0.0,0.0,0.0,0.0,0.0,0.0,0.0,0.0,0.0,0.0,0.0,0.0,0.0,0.0,0.0,0.0,0.0,0.0,0.0,0.0,0.0,0.0,0.0,0.0,0.0,0.0,0.0,0.0,0.0,0.0,0.0,0.0,0.0,0.0,0.0,0.0,0.0,0.0,0.0,0.0,0.0,0.0,0.0,0.0,0.0,0.0,0.0,0.0,0.0,0.0,0.0,0.0,0.0,0.0,0.0,0.0,0.0,0.0,0.0,0.0,0.0,0.0,0.0,0.0,0.0,0.0,0.0,0.0,0.0,0.0,0.0,0.0,0.0,0.0,0.0,0.0,0.0,0.0,0.0,0.0,0.0,0.0,0.0,0.0,0.0,0.0,0.0,0.0,0.0,0.0,0.0,0.0,0.0,0.0,0.0,0.0,0.0,0.0,0.0,0.0,0.0,0.0,0.0,0.0,0.0,0.0,0.0,0.0,0.0,0.0,0.0,0.0,0.0,0.0,0.0,0.0,0.0,0.0,0.0,0.0,0.0,0.0,0.0,0.0,0.0,0.0,0.0,0.0,0.0,0.0,0.0,0.0,0.0,0.0,0.0,0.0,0.0,0.0,0.0,0.0,0.0,0.0,0.0,0.0,0.0,0.0,0.0,0.0,0.0,0.0,0.0,0.0,0.0,0.0,0.0,0.0,0.0,0.0,0.0,0.0,0.0,0.0,0.0,0.0,0.0,0.0,0.0,0.0,0.0,0.0,0.0,0.0,0.0,0.0,0.0,0.0,0.0,0.0,0.0,0.0,0.0,0.0,0.0,0.0,0.0,0.0,0.0,0.0,0.0,0.0,0.0,0.0,0.0,0.0,0.0,0.0,0.0,0.0,0.0,0.0,0.0,0.0,0.0,0.0,0.0,0.0,0.0,0.0,0.0,0.0,0.0,0.0,0.0,0.0,0.0,0.0,0.0,0.0,0.0,0.0,0.0,0.0,0.0,0.0,0.0,0.0,0.0,0.0,0.0,0.0,0.0,0.0,0.0,0.0,0.0,0.0,0.0,0.0,0.0,0.0,0.0,0.0,0.0,0.0,0.0,0.0,0.0,0.0,0.0,0.0,0.0,0.0,0.0,0.0,0.0,0.0,0.0,0.0,0.0,0.0,0.0,0.0,0.0,0.0,0.0,0.0,0.0,0.0,0.0,0.0,0.0,0.0,0.0,0.0,0.0,0.0,0.0,0.0,0.0,0.0,0.0,0.0,0.0,0.0,0.0,0.0,0.0,0.0,0.0,0.0,0.0,0.0,0.0,0.0,0.0,0.0,0.0,0.0,0.0,0.0,0.0,0.0,0.0,0.0,0.0,0.0,0.0,0.0,0.0,0.0,0.0,0.0,0.0,0.0,0.0,0.0,0.0,0.0,0.0,0.0,-1.5189,0.0,0.0,0.0,0.0,0.0,0.0,0.0,0.0,0.0,0.0,0.0,0.0,0.0,0.0,0.0,0.0,0.0,0.0,0.0,0.0,0.0,0.0,0.0,0.0,0.0,0.0,0.0,0.0,0.0,0.0,0.0,0.0,0.0,0.0,0.0,0.0,0.0,0.0,0.0,0.0,0.0,0.0,0.0,0.0,0.0,0.0,0.0,0.0,0.0,0.0,0.0,0.0,0.0,0.0,0.0,0.0,0.0,0.0,0.0,0.0,0.0,0.0,0.0,0.0,0.0,0.0,0.0,0.0,0.0,0.0,0.0,0.0,0.0,0.0,0.0,0.0,0.0,0.0,0.0,0.0,0.0,0.0,0.0,0.0,0.0,0.0,0.0,0.0,0.0,0.0,0.0,0.0,0.0,0.0,0.0,0.0,0.0,0.0,0.0,0.0,0.0,0.0,0.0,0.0,0.0,0.0,0.0,0.0,0.0,0.0,-1.1171,-1.29,-1.3936,-1.5149,-1.6546,0.0,0.0,0.0,0.0,0.0,0.0,0.0,0.0,0.0,0.0,0.0,0.0,0.0,0.0,0.0,0.0,0.0,0.0,0.0,0.0,0.0,0.0,0.0,0.0,0.0,0.0,0.0,0.0,0.0,0.0,0.0,0.0,0.0,0.0,0.0,0.0,0.0,0.0,0.0,0.0,0.0,0.0,0.0,0.0,0.0,0.0,0.0,0.0,0.0,0.0,0.0,0.0,0.0,0.0,0.0,0.0,0.0,0.0,0.0,0.0,0.0,0.0,0.0,0.0,0.0,0.0,0.0,0.0,0.0,0.0,0.0,0.0,0.0,0.0,0.0,0.0,0.0,0.0,0.0,0.0,0.0,0.0,0.0,0.0,0.0,0.0,0.0,0.0,0.0,0.0,0.0,0.0,0.0,0.0,0.0,0.0,0.0,0.0,0.0,0.0,0.0,0.0,0.0,0.0,0.0,0.0,0.0,0.0,0.0,0.0,0.0,0.0,-1.5533,-1.6431,-1.7441,0.0,0.0,0.0,0.0,0.0,0.0,0.0,0.0,0.0,0.0,0.0,0.0,0.0,0.0,0.0,0.0,0.0,0.0,0.0,0.0,0.0,0.0,0.0,0.0,0.0,0.0,0.0,0.0,0.0,0.0,0.0,0.0,0.0,0.0,0.0,0.0,0.0,0.0,0.0,0.0,0.0,0.0,0.0,0.0,0.0,0.0,0.0,0.0,0.0,0.0,0.0,0.0,0.0,0.0,0.0,0.0,0.0,0.0,0.0,0.0,0.0,0.0,0.0,0.0,0.0,0.0,0.0,0.0,0.0,0.0,0.0,0.0,0.0,0.0,0.0,0.0,0.0,0.0,0.0,0.0,0.0,0.0,0.0,0.0,0.0,0.0,0.0,0.0,0.0,0.0,0.0,0.0,0.0,0.0,0.0,0.0,0.0,0.0,0.0,0.0,0.0,0.0,0.0,0.0,0.0,0.0,0.0,0.0,0.0,0.0,-1.5456,-1.6439,-1.6838,0.0,-1.7988,0.0,0.0,0.0,0.0,0.0,0.0,0.0,0.0,0.0,0.0,0.0,0.0,0.0,0.0,0.0,0.0,0.0,0.0,0.0,0.0,0.0,0.0,0.0,0.0,0.0,0.0,0.0,0.0,0.0,0.0,0.0,0.0,0.0,0.0,0.0,0.0,0.0,0.0,0.0,0.0,0.0,0.0,0.0,0.0,0.0,0.0,0.0,0.0,0.0,0.0,0.0,0.0,0.0,0.0,0.0,0.0,0.0,0.0,0.0,0.0,0.0,0.0,0.0,0.0,0.0,0.0,0.0,0.0,0.0,0.0,0.0,0.0,0.0,0.0,0.0,0.0,0.0,0.0,0.0,0.0,0.0,0.0,0.0,0.0,0.0,0.0,0.0,0.0,0.0,0.0,0.0,0.0,0.0,0.0,0.0,0.0,0.0,0.0,0.0,0.0,0.0,0.0,0.0,0.0,0.0,0.0,0.0,0.0,0.0,0.0,-1.621,-1.6926,-1.7451,-1.812,0.0,0.0,0.0,0.0,0.0,0.0,0.0,0.0,0.0,0.0,0.0,0.0,0.0,0.0,0.0,0.0,0.0,0.0,0.0,0.0,0.0,0.0,0.0,0.0,0.0,0.0,0.0,0.0,0.0,0.0,0.0,0.0,0.0,0.0,0.0,0.0,0.0,0.0,0.0,0.0,0.0,0.0,0.0,0.0,0.0,0.0,0.0,0.0,0.0,0.0,0.0,0.0,0.0,0.0,0.0,0.0,0.0,0.0,0.0,0.0,0.0,0.0,0.0,0.0,0.0,0.0,0.0,0.0,0.0,0.0,0.0,0.0,0.0,0.0,0.0,0.0,0.0,0.0,0.0,0.0,0.0,0.0,0.0,0.0,0.0,0.0,0.0,0.0,0.0,0.0,0.0,0.0,0.0,0.0,0.0,0.0,0.0,0.0,0.0,0.0,0.0,0.0,0.0,0.0,0.0,0.0,0.0,0.0,0.0,0.0,-1.627,-1.6747,-1.732,-1.8042,-1.8702,-1.9227,0.0,0.0,0.0,0.0,0.0,0.0,0.0,0.0,0.0,0.0,0.0,0.0,0.0,0.0,0.0,0.0,0.0,0.0,0.0,0.0,0.0,0.0,0.0,0.0,0.0,0.0,0.0,0.0,0.0,0.0,0.0,0.0,0.0,0.0,0.0,0.0,0.0,0.0,0.0,0.0,0.0,0.0,0.0,0.0,0.0,0.0,0.0,0.0,0.0,0.0,0.0,0.0,0.0,0.0,0.0,0.0,0.0,0.0,0.0,0.0,0.0,0.0,0.0,0.0,0.0,0.0,0.0,0.0,0.0,0.0,0.0,0.0,0.0,0.0,0.0,0.0,0.0,0.0,0.0,0.0,0.0,0.0,0.0,0.0,0.0,0.0,0.0,0.0,0.0,0.0,0.0,0.0,0.0,0.0,0.0,0.0,0.0,0.0,0.0,0.0,0.0,0.0,0.0,0.0,0.0,0.0,0.0,0.0,-1.657,-1.6828,-1.7248,-1.789,-1.8767,-1.8962,0.0,0.0,0.0,0.0,0.0,0.0,0.0,0.0,0.0,0.0,0.0,0.0,0.0,0.0,0.0,0.0,0.0,0.0,0.0,0.0,0.0,0.0,0.0,0.0,0.0,0.0,0.0,0.0,0.0,0.0,0.0,0.0,0.0,0.0,0.0,0.0,0.0,0.0,0.0,0.0,0.0,0.0,0.0,0.0,0.0,0.0,0.0,0.0,0.0,0.0,0.0,0.0,0.0,0.0,0.0,0.0,0.0,0.0,0.0,0.0,0.0,0.0,0.0,0.0,0.0,0.0,0.0,0.0,0.0,0.0,0.0,0.0,0.0,0.0,0.0,0.0,0.0,0.0,0.0,0.0,0.0,0.0,0.0,0.0,0.0,0.0,0.0,0.0,0.0,0.0,0.0,0.0,0.0,0.0,0.0,0.0,0.0,0.0,0.0,0.0,0.0,0.0,0.0,0.0,0.0,0.0,0.0,0.0,0.0,-1.76,-1.7519,-1.81,-1.9354,-1.8903,-1.8944,0.0,0.0,0.0,0.0,0.0,0.0,0.0,0.0,0.0,0.0,0.0,0.0,0.0,0.0,0.0,0.0,0.0,0.0,0.0,0.0,0.0,0.0,0.0,0.0,0.0,0.0,0.0,0.0,0.0,0.0,0.0,0.0,0.0,0.0,0.0,0.0,0.0,0.0,0.0,0.0,0.0,0.0,0.0,0.0,0.0,0.0,0.0,0.0,0.0,0.0,0.0,0.0,0.0,0.0,0.0,0.0,0.0,0.0,0.0,0.0,0.0,0.0,0.0,0.0,0.0,0.0,0.0,0.0,0.0,0.0,0.0,0.0,0.0,0.0,0.0,0.0,0.0,0.0,0.0,0.0,0.0,0.0,0.0,0.0,0.0,0.0,0.0,0.0,0.0,0.0,0.0,0.0,0.0,0.0,0.0,0.0,0.0,0.0,0.0,0.0,0.0,0.0,0.0,0.0,0.0,0.0,0.0,0.0,0.0,-1.8687,0.0,-1.9036,-2.0145,-1.9327,-1.9224,0.0,0.0,0.0,0.0,0.0,0.0,0.0,0.0,0.0,0.0,0.0,0.0,0.0,0.0,0.0,0.0,0.0,0.0,0.0,0.0,0.0,0.0,0.0,0.0,0.0,0.0,0.0,0.0,0.0,0.0,0.0,0.0,0.0,0.0,0.0,0.0,0.0,0.0,0.0,0.0,0.0,0.0,0.0,0.0,0.0,0.0,0.0,0.0,0.0,0.0,0.0,0.0,0.0,0.0,0.0,0.0,0.0,0.0,0.0,0.0,0.0,0.0,0.0,0.0,0.0,0.0,0.0,0.0,0.0,0.0,0.0,0.0,0.0,0.0,0.0,0.0,0.0,0.0,0.0,0.0,0.0,0.0,0.0,0.0,0.0,0.0,0.0,0.0,0.0,0.0,0.0,0.0,0.0,0.0,0.0,0.0,0.0,0.0,0.0,0.0,0.0,0.0,0.0,0.0,0.0,0.0,0.0,0.0,-1.9378,-1.9775,-1.9904,-2.0027,-2.0115,-2.0105,-1.9777,0.0,0.0,0.0,0.0,0.0,0.0,0.0,0.0,0.0,0.0,0.0,0.0,0.0,0.0,0.0,0.0,0.0,0.0,0.0,0.0,0.0,0.0,0.0,0.0,0.0,0.0,0.0,0.0,0.0,0.0,0.0,0.0,0.0,0.0,0.0,0.0,0.0,0.0,0.0,0.0,0.0,0.0,0.0,0.0,0.0,0.0,0.0,0.0,0.0,0.0,0.0,0.0,0.0,0.0,0.0,0.0,0.0,0.0,0.0,0.0,0.0,0.0,0.0,0.0,0.0,0.0,0.0,0.0,0.0,0.0,0.0,0.0,0.0,0.0,0.0,0.0,0.0,0.0,0.0,0.0,0.0,0.0,0.0,0.0,0.0,0.0,0.0,0.0,0.0,0.0,0.0,0.0,0.0,0.0,0.0,0.0,0.0,0.0,0.0,0.0,0.0,0.0,0.0,0.0,0.0,0.0,0.0,0.0,0.0,-1.9955,-2.0439,-2.0709,-2.0705,-1.9752,-1.9315,0.0,0.0,0.0,0.0,0.0,0.0,0.0,0.0,0.0,0.0,0.0,0.0,0.0,0.0,0.0,0.0,0.0,0.0,0.0,0.0,0.0,0.0,0.0,0.0,0.0,0.0,0.0,0.0,0.0,0.0,0.0,0.0,0.0,0.0,0.0,0.0,0.0,0.0,0.0,0.0,0.0,0.0,0.0,0.0,0.0,0.0,0.0,0.0,0.0,0.0,0.0,0.0,0.0,0.0,0.0,0.0,0.0,0.0,0.0,0.0,0.0,0.0,0.0,0.0,0.0,0.0,0.0,0.0,0.0,0.0,0.0,0.0,0.0,0.0,0.0,0.0,0.0,0.0,0.0,0.0,0.0,0.0,0.0,0.0,0.0,0.0,0.0,0.0,0.0,0.0,0.0,0.0,0.0,0.0,0.0,0.0,0.0,0.0,0.0,0.0,0.0,0.0,0.0,0.0,0.0,0.0,0.0,0.0,0.0,-2.2493,-2.2836,-2.3059,-2.3089,-2.19,-2.0715,-1.9631,0.0,0.0,0.0,0.0,0.0,0.0,0.0,0.0,0.0,0.0,0.0,0.0,0.0,0.0,0.0,0.0,0.0,0.0,0.0,0.0,0.0,0.0,0.0,0.0,0.0,0.0,0.0,0.0,0.0,0.0,0.0,0.0,0.0,0.0,0.0,0.0,0.0,0.0,0.0,0.0,0.0,0.0,0.0,0.0,0.0,0.0,0.0,0.0,0.0,0.0,0.0,0.0,0.0,0.0,0.0,0.0,0.0,0.0,0.0,0.0,0.0,0.0,0.0,0.0,0.0,0.0,0.0,0.0,0.0,0.0,0.0,0.0,0.0,0.0,0.0,0.0,0.0,0.0,0.0,0.0,0.0,0.0,0.0,0.0,0.0,0.0,0.0,0.0,0.0,0.0,0.0,0.0,0.0,0.0,0.0,0.0,0.0,0.0,0.0,0.0,0.0,0.0,0.0,0.0,0.0,0.0,0.0,0.0,-2.6791,-2.6889,-2.6907,-2.6741,-2.5816,-2.3563,0.0,0.0,0.0,0.0,0.0,0.0,0.0,0.0,0.0,0.0,0.0,0.0,0.0,0.0,0.0,0.0,0.0,0.0,0.0,0.0,0.0,0.0,0.0,0.0,0.0,0.0,0.0,0.0,0.0,0.0,0.0,0.0,0.0,0.0,0.0,0.0,0.0,0.0,0.0,0.0,0.0,0.0,0.0,0.0,0.0,0.0,0.0,0.0,0.0,0.0,0.0,0.0,0.0,0.0,0.0,0.0,0.0,0.0,0.0,0.0,0.0,0.0,0.0,0.0,0.0,0.0,0.0,0.0,0.0,0.0,0.0,0.0,0.0,0.0,0.0,0.0,0.0,0.0,0.0,0.0,0.0,0.0,0.0,0.0,0.0,0.0,0.0,0.0,0.0,0.0,0.0,0.0,0.0,0.0,0.0,0.0,0.0,0.0,0.0,0.0,0.0,0.0,0.0,0.0,0.0,0.0,0.0,0.0,0.0,-2.9274,-3.1373,-3.1411,-2.9147,-2.6549,-2.4116,0.0,0.0,0.0,0.0,0.0,0.0,0.0,0.0,0.0,0.0,0.0,0.0,0.0,0.0,0.0,0.0,0.0,0.0,0.0,0.0,0.0,0.0,0.0,0.0,0.0,0.0,0.0,0.0,0.0,0.0,0.0,0.0,0.0,0.0,0.0,0.0,0.0,0.0,0.0,0.0,0.0,0.0,0.0,0.0,0.0,0.0,0.0,0.0,0.0,0.0,0.0,0.0,0.0,0.0,0.0,0.0,0.0,0.0,0.0,0.0,0.0,0.0,0.0,0.0,0.0,0.0,0.0,0.0,0.0,0.0,0.0,0.0,0.0,0.0,0.0,0.0,0.0,0.0,0.0,0.0,0.0,0.0,0.0,0.0,0.0,0.0,0.0,0.0,0.0,0.0,0.0,0.0,0.0,0.0,0.0,0.0,0.0,0.0,0.0,0.0,0.0,0.0,0.0,0.0,0.0,0.0,0.0,0.0,-2.7949,-3.0087,-3.4056,-3.516,-3.3075,-2.948,-2.612,0.0,0.0,0.0,0.0,0.0,0.0,0.0,0.0,0.0,0.0,0.0,0.0,0.0,0.0,0.0,0.0,0.0,0.0,0.0,0.0,0.0,0.0,0.0,0.0,0.0,0.0,0.0,0.0,0.0,0.0,0.0,0.0,0.0,0.0,0.0,0.0,0.0,0.0,0.0,0.0,0.0,0.0,0.0,0.0,0.0,0.0,0.0,0.0,0.0,0.0,0.0,0.0,0.0,0.0,0.0,0.0,0.0,0.0,0.0,0.0,0.0,0.0,0.0,0.0,0.0,0.0,0.0,0.0,0.0,0.0,0.0,0.0,0.0,0.0,0.0,0.0,0.0,0.0,0.0,0.0,0.0,0.0,0.0,0.0,0.0,0.0,0.0,0.0,0.0,0.0,0.0,0.0,0.0,0.0,0.0,0.0,0.0,0.0,0.0,0.0,0.0,0.0,0.0,0.0,0.0,0.0,0.0,0.0,-2.956,-3.0087,-3.5308,-3.7762,-3.6949,-3.3053,-2.8644,0.0,0.0,0.0,0.0,0.0,0.0,0.0,0.0,0.0,0.0,0.0,0.0,0.0,0.0,0.0,0.0,0.0,0.0,0.0,0.0,0.0,0.0,0.0,0.0,0.0,0.0,0.0,0.0,0.0,0.0,0.0,0.0,0.0,0.0,0.0,0.0,0.0,0.0,0.0,0.0,0.0,0.0,0.0,0.0,0.0,0.0,0.0,0.0,0.0,0.0,0.0,0.0,0.0,0.0,0.0,0.0,0.0,0.0,0.0,0.0,0.0,0.0,0.0,0.0,0.0,0.0,0.0,0.0,0.0,0.0,0.0,0.0,0.0,0.0,0.0,0.0,0.0,0.0,0.0,0.0,0.0,0.0,0.0,0.0,0.0,0.0,0.0,0.0,0.0,0.0,0.0,0.0,0.0,0.0,0.0,0.0,0.0,0.0,0.0,0.0,0.0,0.0,0.0,0.0,0.0,0.0,0.0,0.0,-2.9769,-3.1555,-3.4995,-3.652,-3.5947,-3.2376,-2.8923,0.0,0.0,0.0,0.0,0.0,0.0,0.0,0.0,0.0,0.0,0.0,0.0,0.0,0.0,0.0,0.0,0.0,0.0,0.0,0.0,0.0,0.0,0.0,0.0,0.0,0.0,0.0,0.0,0.0,0.0,0.0,0.0,0.0,0.0,0.0,0.0,0.0,0.0,0.0,0.0,0.0,0.0,0.0,0.0,0.0,0.0,0.0,0.0,-2.6072,0.0,0.0,0.0,0.0,0.0,0.0,0.0,0.0,0.0,0.0,0.0,0.0,0.0,0.0,0.0,0.0,0.0,0.0,0.0,0.0,0.0,0.0,0.0,0.0,0.0,0.0,0.0,0.0,0.0,0.0,0.0,0.0,0.0,0.0,0.0,0.0,0.0,0.0,0.0,0.0,0.0,0.0,0.0,0.0,0.0,0.0,0.0,0.0,0.0,0.0,0.0,0.0,0.0,0.0,0.0,0.0,0.0,0.0,0.0,-2.9262,-3.1208,-3.4131,-3.5527,-3.5084,-3.2031,-2.9183,0.0,0.0,0.0,0.0,0.0,0.0,0.0,0.0,0.0,0.0,0.0,0.0,0.0,0.0,0.0,0.0,0.0,0.0,0.0,0.0,0.0,0.0,0.0,0.0,0.0,0.0,0.0,0.0,0.0,0.0,0.0,0.0,0.0,0.0,0.0,0.0,0.0,0.0,0.0,0.0,0.0,0.0,0.0,0.0,0.0,0.0,0.0,0.0,0.0,0.0,0.0,0.0,0.0,0.0,0.0,0.0,0.0,0.0,0.0,0.0,0.0,0.0,0.0,0.0,0.0,0.0,0.0,0.0,0.0,0.0,0.0,0.0,0.0,0.0,0.0,0.0,0.0,0.0,0.0,0.0,0.0,0.0,0.0,0.0,0.0,0.0,0.0,0.0,0.0,0.0,0.0,0.0,0.0,0.0,0.0,0.0,0.0,0.0,0.0,0.0,0.0,0.0,0.0,0.0,0.0,0.0,0.0,-2.6679,-2.8769,-3.0711,-3.3274,-3.461,-3.4432,-3.1656,-2.9087,-2.6899,0.0,0.0,0.0,0.0,0.0,0.0,0.0,0.0,0.0,0.0,0.0,0.0,0.0,0.0,0.0,0.0,0.0,0.0,0.0,0.0,0.0,0.0,0.0,0.0,0.0,0.0,0.0,0.0,0.0,0.0,0.0,0.0,0.0,0.0,0.0,0.0,0.0,0.0,-2.7126,-2.7801,0.0,0.0,0.0,0.0,0.0,0.0,0.0,0.0,-2.7037,0.0,0.0,0.0,0.0,0.0,0.0,0.0,0.0,0.0,0.0,0.0,0.0,0.0,0.0,0.0,0.0,0.0,0.0,0.0,0.0,0.0,0.0,0.0,0.0,0.0,0.0,0.0,0.0,0.0,0.0,0.0,0.0,0.0,0.0,0.0,0.0,0.0,0.0,0.0,0.0,0.0,0.0,0.0,0.0,0.0,0.0,0.0,0.0,0.0,0.0,0.0,0.0,0.0,0.0,0.0,0.0,-2.6998,-2.7606,-2.9388,-3.2477,-3.3152,-3.3525,-3.3519,-3.0494,-2.7868,-2.5788,0.0,0.0,0.0,0.0,0.0,0.0,0.0,0.0,0.0,0.0,0.0,0.0,0.0,0.0,0.0,0.0,0.0,0.0,0.0,0.0,0.0,0.0,0.0,0.0,0.0,0.0,0.0,0.0,0.0,0.0,0.0,0.0,0.0,0.0,0.0,0.0,0.0,0.0,0.0,-2.924,-2.9363,0.0,0.0,0.0,0.0,0.0,0.0,0.0,0.0,-2.8291,0.0,0.0,0.0,0.0,0.0,0.0,0.0,0.0,0.0,0.0,0.0,0.0,0.0,0.0,0.0,0.0,0.0,0.0,0.0,0.0,0.0,0.0,0.0,0.0,0.0,0.0,0.0,0.0,0.0,0.0,0.0,0.0,0.0,0.0,0.0,0.0,0.0,0.0,0.0,0.0,0.0,0.0,0.0,0.0,0.0,0.0,0.0,0.0,0.0,0.0,0.0,0.0,0.0,0.0,0.0,-2.676,-2.7659,-2.9419,-3.226,-3.2652,-3.2665,-3.2403,-2.9692,-2.7079,0.0,0.0,0.0,0.0,0.0,0.0,0.0,0.0,0.0,0.0,0.0,0.0,0.0,0.0,0.0,0.0,0.0,0.0,0.0,0.0,0.0,0.0,0.0,0.0,0.0,0.0,0.0,0.0,0.0,0.0,0.0,0.0,0.0,0.0,0.0,0.0,0.0,0.0,0.0,0.0,-3.0474,-3.083,-2.9863,0.0,0.0,0.0,0.0,0.0,0.0,-2.8514,-2.8271,0.0,0.0,0.0,0.0,0.0,0.0,0.0,0.0,0.0,0.0,0.0,0.0,0.0,0.0,0.0,0.0,0.0,0.0,0.0,0.0,0.0,0.0,0.0,0.0,0.0,0.0,0.0,0.0,0.0,0.0,0.0,0.0,0.0,0.0,0.0,0.0,0.0,0.0,0.0,0.0,0.0,0.0,0.0,0.0,0.0,0.0,0.0,0.0,0.0,0.0,0.0,0.0,0.0,0.0,0.0,-2.6098,-2.7435,-2.9254,-3.1634,-3.2135,-3.209,-3.1504,-2.9005,-2.6434,0.0,0.0,0.0,0.0,0.0,0.0,0.0,0.0,0.0,0.0,0.0,0.0,0.0,0.0,0.0,0.0,0.0,0.0,0.0,0.0,0.0,0.0,0.0,0.0,0.0,0.0,0.0,0.0,0.0,0.0,0.0,0.0,0.0,0.0,0.0,0.0,0.0,0.0,0.0,0.0,0.0,-3.1942,-3.0819,-3.0832,0.0,0.0,0.0,0.0,-2.9081,-2.8903,0.0,0.0,0.0,0.0,0.0,0.0,0.0,0.0,0.0,0.0,0.0,0.0,0.0,0.0,0.0,0.0,0.0,0.0,0.0,0.0,0.0,0.0,0.0,0.0,0.0,0.0,0.0,0.0,0.0,0.0,0.0,0.0,0.0,0.0,0.0,0.0,0.0,0.0,0.0,0.0,0.0,0.0,0.0,0.0,0.0,0.0,0.0,0.0,0.0,0.0,0.0,0.0,0.0,0.0,0.0,0.0,-2.5864,-2.7204,-2.9041,-3.1387,-3.1979,-3.1928,-3.124,-2.8395,-2.5784,0.0,0.0,0.0,0.0,0.0,0.0,0.0,0.0,0.0,0.0,0.0,0.0,0.0,0.0,0.0,0.0,0.0,0.0,0.0,0.0,0.0,0.0,0.0,0.0,0.0,0.0,0.0,0.0,0.0,0.0,0.0,0.0,0.0,0.0,0.0,0.0,0.0,0.0,0.0,0.0,0.0,-3.1915,-3.0382,-3.1192,-3.1479,0.0,0.0,-3.0416,-2.9808,-3.0867,0.0,0.0,0.0,0.0,0.0,0.0,0.0,0.0,0.0,0.0,0.0,0.0,0.0,0.0,0.0,0.0,0.0,0.0,0.0,0.0,0.0,0.0,0.0,0.0,0.0,0.0,0.0,0.0,0.0,0.0,0.0,0.0,0.0,0.0,0.0,0.0,0.0,0.0,0.0,0.0,0.0,0.0,0.0,0.0,0.0,0.0,0.0,0.0,0.0,0.0,0.0,0.0,0.0,0.0,0.0,-2.2963,-2.5489,-2.6756,-2.8356,-3.034,-3.0706,-3.0566,-2.9981,-2.7102,-2.4739,0.0,0.0,0.0,0.0,0.0,0.0,0.0,0.0,0.0,0.0,0.0,0.0,0.0,0.0,0.0,0.0,0.0,0.0,0.0,0.0,0.0,0.0,0.0,0.0,0.0,0.0,0.0,0.0,0.0,0.0,0.0,0.0,0.0,0.0,0.0,0.0,0.0,0.0,0.0,0.0,0.0,0.0,-3.1578,-3.2564,0.0,0.0,0.0,-3.1202,-3.0439,0.0,0.0,0.0,0.0,0.0,0.0,0.0,0.0,0.0,0.0,0.0,0.0,0.0,0.0,0.0,0.0,0.0,0.0,0.0,0.0,0.0,0.0,0.0,0.0,0.0,0.0,0.0,0.0,0.0,0.0,0.0,0.0,0.0,0.0,0.0,0.0,0.0,0.0,0.0,0.0,0.0,0.0,0.0,0.0,0.0,0.0,0.0,0.0,0.0,0.0,0.0,0.0,0.0,0.0,0.0,0.0,0.0,-2.5057,-2.6436,-2.7868,-2.9411,-2.9684,-2.9569,-2.9027,-2.667,0.0,0.0,0.0,0.0,0.0,0.0,0.0,0.0,0.0,0.0,0.0,0.0,0.0,0.0,0.0,0.0,0.0,0.0,0.0,0.0,0.0,0.0,0.0,0.0,0.0,0.0,0.0,-2.375,0.0,0.0,0.0,0.0,0.0,0.0,0.0,0.0,0.0,0.0,0.0,0.0,0.0,0.0,-3.4144,-3.2615,-3.3464,-3.3732,0.0,0.0,-3.1623,-3.0469,-3.0191,-2.966,0.0,0.0,0.0,0.0,0.0,0.0,0.0,0.0,0.0,0.0,0.0,0.0,0.0,0.0,0.0,0.0,0.0,0.0,0.0,0.0,0.0,0.0,0.0,0.0,0.0,0.0,0.0,0.0,0.0,0.0,0.0,0.0,0.0,0.0,0.0,0.0,0.0,0.0,0.0,0.0,0.0,0.0,0.0,0.0,0.0,0.0,0.0,0.0,0.0,0.0,0.0,0.0,0.0,0.0,0.0,-2.4498,-2.6458,-2.7966,-2.9096,-2.9577,-2.9607,-2.918,-2.7904,-2.601,0.0,0.0,0.0,0.0,0.0,0.0,0.0,0.0,0.0,0.0,0.0,0.0,0.0,0.0,0.0,0.0,0.0,0.0,0.0,0.0,0.0,0.0,0.0,0.0,0.0,0.0,0.0,0.0,0.0,0.0,0.0,0.0,0.0,0.0,0.0,0.0,0.0,0.0,0.0,0.0,0.0,-3.3729,-3.282,-3.3188,-3.3267,0.0,0.0,-3.1754,-2.9566,-3.0944,-3.1138,-2.7755,0.0,0.0,0.0,0.0,0.0,0.0,0.0,0.0,0.0,0.0,0.0,0.0,0.0,0.0,0.0,0.0,0.0,0.0,0.0,0.0,0.0,0.0,0.0,0.0,0.0,0.0,0.0,0.0,0.0,0.0,0.0,0.0,0.0,0.0,0.0,0.0,0.0,0.0,0.0,0.0,0.0,0.0,0.0,0.0,0.0,0.0,0.0,0.0,0.0,0.0,0.0,0.0,0.0,-2.3465,-2.4331,-2.5658,-2.6928,-2.8137,-2.826,-2.8259,-2.8106,-2.7096,-2.5472,0.0,0.0,0.0,0.0,0.0,0.0,0.0,0.0,0.0,0.0,0.0,0.0,0.0,0.0,0.0,0.0,0.0,0.0,0.0,0.0,0.0,0.0,0.0,0.0,0.0,0.0,0.0,0.0,-2.4159,-2.4634,-2.5829,0.0,0.0,0.0,0.0,0.0,0.0,0.0,0.0,0.0,0.0,-3.3331,-3.1961,-3.2669,0.0,0.0,-3.1948,-3.1853,-3.0588,-3.0707,-3.0393,-2.8664,-2.8184,0.0,0.0,0.0,0.0,0.0,0.0,0.0,0.0,0.0,0.0,0.0,0.0,0.0,0.0,0.0,0.0,0.0,0.0,0.0,0.0,0.0,0.0,0.0,0.0,0.0,0.0,0.0,0.0,0.0,0.0,0.0,0.0,0.0,0.0,0.0,0.0,0.0,0.0,0.0,0.0,0.0,0.0,0.0,0.0,0.0,0.0,0.0,0.0,0.0,0.0,0.0,0.0,-2.3242,-2.4063,-2.5209,-2.6271,-2.7265,-2.7284,-2.7299,-2.7321,-2.6716,-2.5591,0.0,0.0,0.0,0.0,0.0,0.0,0.0,0.0,0.0,0.0,0.0,0.0,0.0,0.0,0.0,0.0,0.0,0.0,0.0,0.0,0.0,0.0,0.0,0.0,0.0,0.0,0.0,0.0,-2.4685,-2.5364,-2.6672,0.0,0.0,0.0,0.0,0.0,0.0,0.0,0.0,0.0,0.0,-3.2798,-3.1641,-3.2264,-3.2492,-3.1442,-3.1587,-3.1598,-3.0915,-3.0338,-2.9683,-2.8881,0.0,0.0,0.0,0.0,0.0,0.0,0.0,0.0,0.0,0.0,0.0,0.0,0.0,0.0,0.0,0.0,0.0,0.0,0.0,0.0,0.0,0.0,0.0,0.0,0.0,0.0,0.0,0.0,0.0,0.0,0.0,0.0,0.0,0.0,0.0,0.0,0.0,0.0,0.0,0.0,0.0,0.0,0.0,0.0,0.0,0.0,0.0,0.0,0.0,0.0,0.0,0.0,0.0,-2.3478,-2.3553,-2.535,-2.6351,-2.6537,-2.6843,-2.7067,-2.7207,-2.7163,-2.6738,-2.5826,0.0,0.0,0.0,0.0,0.0,0.0,0.0,0.0,0.0,0.0,0.0,0.0,0.0,0.0,0.0,0.0,0.0,0.0,0.0,0.0,0.0,0.0,0.0,0.0,0.0,0.0,-2.4611,-2.5093,-2.5713,0.0,0.0,0.0,0.0,0.0,0.0,0.0,0.0,0.0,0.0,-3.1859,-3.2126,-3.2051,-3.2101,-3.2097,-3.1947,-3.154,-3.0931,-3.0109,-2.9941,-2.9383,0.0,0.0,0.0,0.0,0.0,0.0,0.0,0.0,0.0,0.0,0.0,0.0,0.0,0.0,0.0,0.0,0.0,0.0,0.0,0.0,0.0,0.0,0.0,0.0,0.0,0.0,0.0,-2.147,-2.1584,0.0,0.0,0.0,0.0,0.0,0.0,0.0,0.0,0.0,0.0,0.0,-2.1459,-2.2049,0.0,0.0,0.0,0.0,0.0,0.0,0.0,0.0,0.0,0.0,0.0,0.0,-2.3523,-2.3773,-2.5504,-2.6566,-2.6817,-2.7026,-2.7119,-2.7081,-2.7155,-2.6763,-2.5801,0.0,0.0,0.0,0.0,0.0,0.0,0.0,0.0,0.0,0.0,0.0,0.0,0.0,0.0,0.0,0.0,0.0,0.0,0.0,0.0,0.0,0.0,0.0,0.0,0.0,-2.3802,0.0,0.0,0.0,0.0,0.0,0.0,0.0,0.0,0.0,0.0,0.0,-2.9955,-3.0847,-3.1614,-3.1916,-3.1388,-3.172,-3.1788,0.0,0.0,0.0,0.0,0.0,0.0,0.0,0.0,0.0,0.0,0.0,0.0,0.0,0.0,-2.7158,-2.5403,-2.4815,-2.468,-2.501,0.0,0.0,0.0,0.0,0.0,0.0,0.0,0.0,0.0,0.0,0.0,0.0,0.0,0.0,0.0,0.0,-2.2667,0.0,0.0,0.0,0.0,0.0,0.0,0.0,0.0,-2.2582,-2.2781,-2.2713,-2.3497,-2.3836,0.0,-2.3779,-2.3083,0.0,0.0,0.0,0.0,0.0,0.0,0.0,0.0,-2.3599,-2.4079,-2.5631,-2.6539,-2.6738,-2.6963,-2.7,-2.6951,-2.7181,-2.6942,-2.6116,-2.5056,-2.418,0.0,0.0,0.0,0.0,0.0,0.0,0.0,0.0,0.0,0.0,0.0,0.0,0.0,0.0,0.0,0.0,0.0,0.0,0.0,0.0,0.0,0.0,0.0,-2.4664,0.0,0.0,0.0,0.0,0.0,0.0,0.0,0.0,0.0,-2.918,-2.9494,-2.9844,-3.0468,-3.1345,-3.1667,-3.1033,0.0,0.0,0.0,0.0,0.0,0.0,0.0,-3.0381,-3.0034,-2.9704,-2.9299,-2.8953,-2.8848,-2.8775,-2.872,0.0,0.0,-2.6243,-2.5595,-2.5392,-2.5485,-2.512,-2.4944,-2.5446,-2.5418,-2.5375,0.0,0.0,0.0,0.0,0.0,0.0,0.0,0.0,-2.3138,-2.3207,0.0,-2.3175,0.0,0.0,0.0,0.0,0.0,0.0,0.0,0.0,-2.4202,-2.4612,-2.4902,-2.4806,-2.468,-2.4521,-2.4814,-2.4589,-2.387,-2.2576,0.0,0.0,0.0,0.0,0.0,0.0,-2.38,-2.4492,-2.5698,-2.6313,-2.6313,-2.6647,-2.682,-2.6832,-2.7335,-2.735,-2.6841,-2.6635,-2.6047,-2.4953,-2.3113,0.0,0.0,0.0,0.0,0.0,0.0,0.0,0.0,0.0,0.0,0.0,0.0,0.0,0.0,0.0,0.0,0.0,0.0,0.0,0.0,-2.5729,0.0,0.0,0.0,0.0,0.0,0.0,0.0,0.0,0.0,0.0,-2.9491,-3.0152,-3.0514,-3.0332,0.0,0.0,0.0,0.0,-3.0831,-3.1095,-3.1171,-3.1171,-3.1151,-3.1055,-3.0663,-2.9782,0.0,0.0,-2.8657,-2.8581,-2.8638,-2.8663,-2.8455,-2.8165,-2.7767,-2.7148,-2.6775,-2.6822,-2.5699,-2.5225,-2.6349,-2.6242,-2.6098,-2.9702,0.0,0.0,0.0,0.0,-2.4839,-2.4997,-2.5364,-2.5345,-2.5093,-2.4633,-2.4579,0.0,0.0,0.0,0.0,0.0,0.0,-2.3538,-2.4499,-2.5063,-2.5516,-2.5842,-2.608,-2.6151,-2.61,-2.5369,-2.4887,-2.4632,-2.3193,-2.2651,-2.2998,0.0,0.0,0.0,0.0,-2.4363,-2.464,-2.5827,-2.6392,-2.6313,-2.6606,-2.6884,-2.7078,-2.7514,-2.77,-2.7682,-2.78,-2.7184,-2.5772,-2.4657,0.0,0.0,0.0,0.0,0.0,0.0,0.0,0.0,0.0,0.0,0.0,0.0,0.0,0.0,0.0,0.0,0.0,0.0,0.0,-2.4652,-2.5242,-2.5701,0.0,0.0,0.0,0.0,0.0,0.0,0.0,0.0,0.0,-2.9296,-2.9613,-2.9814,0.0,0.0,-3.0842,-3.0969,-3.0851,-3.0712,-3.0695,0.0,0.0,0.0,-3.0651,-3.0666,-3.0306,-3.0187,-2.9922,-2.9198,-2.8996,-2.8777,-2.8244,-2.8158,-2.7928,-2.724,-2.7061,-2.6857,-2.6395,-2.6015,-2.5916,-2.6319,-2.6353,-2.6371,-3.2039,-3.0159,-2.8653,-2.7551,-2.6819,-2.6684,-2.6622,-2.6618,-2.6602,-2.6404,-2.605,-2.5644,-2.4939,-2.4021,-2.3567,0.0,0.0,0.0,-2.4301,-2.5288,-2.5661,-2.609,-2.652,-2.6602,-2.6659,-2.6566,-2.5822,-2.5399,-2.5317,-2.4016,-2.3722,-2.4373,0.0,0.0,-2.37,-2.4306,-2.4769,-2.5133,-2.6044,-2.6472,-2.6406,-2.6765,-2.7119,-2.7437,-2.7715,-2.7955,-2.8079,-2.8275,-2.7775,-2.6446,-2.5729,-2.4796,0.0,0.0,0.0,0.0,0.0,0.0,0.0,0.0,0.0,0.0,0.0,-2.29,-2.2886,0.0,0.0,0.0,-2.4986,-2.5377,-2.5242,-2.5646,0.0,0.0,0.0,0.0,0.0,0.0,0.0,-2.7198,-2.7039,-2.7308,-2.8522,-2.902,-2.9425,-2.9794,-3.019,-3.0467,-3.0522,0.0,-3.0384,-3.0468,-3.0489,-3.0426,-3.0262,-3.0426,-3.0531,-3.041,-3.0342,-3.0058,-2.9369,-2.9124,-2.878,-2.8135,-2.7923,-2.7691,-2.6912,-2.6899,-2.6787,-2.6102,-2.6064,-2.6171,-2.6189,-2.6312,-2.6416,-3.3759,-3.3294,-3.1195,-2.9691,-2.8682,-2.8644,-2.813,-2.7294,-2.7257,-2.7301,-2.7295,-2.6388,-2.5758,-2.5332,-2.426,0.0,0.0,-2.4544,-2.5201,-2.6067,-2.6082,-2.6378,-2.6963,-2.6645,-2.6418,-2.6313,-2.6152,-2.6002,-2.5823,-2.4878,-2.4808,-2.551,-2.3569,-2.3155,-2.4263,-2.4543,-2.5085,-2.5879,-2.6292,-2.6505,-2.6563,-2.7011,-2.7412,-2.779,-2.7955,-2.8063,-2.8119,-2.8247,-2.7884,-2.695,-2.6325,-2.5528,-2.4523,0.0,0.0,0.0,0.0,0.0,0.0,0.0,0.0,0.0,0.0,0.0,0.0,0.0,0.0,0.0,-2.5983,0.0,-2.6242,-2.647,0.0,0.0,0.0,-2.6052,-2.6034,-2.5567,-2.5362,-2.5592,0.0,0.0,0.0,0.0,-2.921,-2.905,-2.9791,-3.0204,-2.9848,-2.9821,-2.9946,-3.0384,-3.0464,-3.0405,-3.0262,-3.03,-3.03,-3.0187,-3.0177,-2.9894,-2.9124,-2.8911,-2.86,-2.7753,-2.7607,-2.7332,-2.6701,-2.6633,-2.6531,-2.5975,-2.5936,-2.5992,-2.601,-2.617,-2.6278,-3.4833,-3.4161,-3.3453,-3.1997,-3.0199,-3.0108,-2.9594,-2.8783,-2.867,-2.8069,-2.7068,-2.6653,-2.5805,-2.4569,-2.4423,-2.4715,-2.5319,-2.5461,-2.5965,-2.674,-2.6666,-2.6686,-2.6832,-2.65,-2.6326,-2.6286,-2.5948,-2.5784,-2.5729,-2.4935,-2.4876,-2.5357,-2.4472,-2.4384,-2.5154,-2.5325,-2.5558,-2.5971,-2.6337,-2.6691,-2.7049,-2.7346,-2.764,-2.793,-2.8103,-2.7981,-2.761,-2.7618,-2.714,-2.6141,-2.603,-2.5425,-2.4177,-2.369,0.0,0.0,0.0,0.0,0.0,0.0,0.0,0.0,0.0,-2.3739,-2.3249,0.0,-2.5932,0.0,-2.5671,-2.5848,-2.5772,-2.5866,0.0,0.0,-2.5793,-2.5703,-2.5443,-2.5568,-2.5945,-2.6716,-2.7274,-2.7803,-2.834,-2.8646,-2.8779,-2.8605,-2.9225,-2.9736,-2.9761,-2.9783,-2.9875,-3.0065,-3.0103,-3.0081,-2.9995,-3.0011,-2.9995,-2.9832,-2.9919,-2.9545,-2.8257,-2.8009,-2.7616,-2.6432,-2.6102,-2.6037,-2.5924,-2.5875,-2.5845,-2.5724,-2.5844,-2.6008,-2.6008,-2.6115,-2.6205,-3.4775,-3.3998,-3.377,-3.2586,-3.0933,-3.0996,-3.0599,-2.9851,-2.9379,-2.8618,-2.7582,-2.6681,-2.5736,-2.4768,-2.492,-2.5382,-2.6096,-2.6201,-2.6483,-2.6884,-2.6846,-2.6794,-2.6779,-2.6447,-2.6313,-2.6272,-2.5948,-2.5866,-2.5933,-2.5488,-2.5439,-2.5778,-2.5412,-2.5398,-2.5792,-2.5706,-2.5775,-2.5992,-2.6408,-2.6877,-2.7433,-2.7615,-2.7714,-2.7782,-2.7556,-2.7373,-2.723,-2.6534,-2.596,-2.5571,-2.5258,-2.4668,-2.3699,-2.3316,-2.3012,0.0,0.0,0.0,0.0,0.0,0.0,0.0,0.0,0.0,0.0,0.0,-2.6129,0.0,-2.5619,0.0,-2.5645,-2.5735,-2.5698,-2.5508,-2.567,-2.5675,-2.5352,-2.569,-2.6196,-2.6701,-2.7231,-2.7705,-2.8077,-2.8364,-2.8527,-2.842,-2.8811,-2.9152,-2.9296,-2.9364,-2.9477,-2.9649,-2.9732,-2.977,-2.9742,-2.9786,-2.9798,-2.9717,-2.981,-2.941,-2.7996,-2.7721,-2.7231,-2.5937,-2.5597,-2.5597,-2.5597,-2.5597,-2.5597,-2.5635,-2.5733,-2.5883,-2.5954,-2.6096,-2.6185,-3.4204,-3.3399,-3.3136,-3.2402,-3.1379,-3.1544,-3.1212,-3.0491,-2.9735,-2.8956,-2.8147,-2.6546,-2.5665,-2.5364,-2.5485,-2.5935,-2.6593,-2.6748,-2.6794,-2.6794,-2.6794,-2.6794,-2.6779,-2.6474,-2.6313,-2.6286,-2.6056,-2.6055,-2.6297,-2.6204,-2.6242,-2.6354,-2.6224,-2.6168,-2.6223,-2.5944,-2.5902,-2.6039,-2.6522,-2.7076,-2.7689,-2.7688,-2.7612,-2.7426,-2.6882,-2.6664,-2.6835,-2.5445,-2.4803,-2.5029,-2.4318,-2.3713,-2.3273,-2.2862,-2.2865,0.0,-2.298,0.0,0.0,0.0,0.0,0.0,0.0,0.0,0.0,-2.5482,-2.5991,-2.5956,-2.5807,-2.5697,-2.57,-2.5791,-2.5694,-2.5341,-2.5656,-2.5816,-2.5595,-2.6021,-2.6306,-2.6306,-2.7018,-2.7503,-2.7596,-2.8057,-2.8411,-2.8396,-2.8477,-2.8597,-2.8629,-2.8826,-2.9082,-2.9282,-2.9412,-2.9541,-2.9563,-2.9669,-2.9687,-2.9711,-2.9826,-2.9378,-2.794,-2.7725,-2.7251,-2.5953,-2.5597,-2.5597,-2.5597,-2.5597,-2.5597,-2.5597,-2.5659,-2.5756,-2.5881,-2.6043,-2.6168,-3.3625,-3.3491,-3.2863,-3.2498,-3.2304,-3.188,-3.1134,-3.0272,-2.9984,-2.8952,-2.7392,-2.6522,-2.5947,-2.5647,-2.5667,-2.5991,-2.6608,-2.6733,-2.6794,-2.6794,-2.6794,-2.6794,-2.6779,-2.6447,-2.6313,-2.6313,-2.6258,-2.6244,-2.6324,-2.6498,-2.6615,-2.6629,-2.648,-2.6383,-2.6352,0.0,0.0,0.0,-2.6741,-2.7027,-2.7196,-2.7125,-2.7096,-2.7089,-2.7034,0.0,-2.6265,-2.5513,-2.4872,-2.4393,-2.3777,0.0,0.0,0.0,0.0,0.0,0.0,0.0,0.0,0.0,0.0,0.0,-2.4531,-2.4766,-2.4268,-2.557,-2.6442,-2.6383,-2.6249,-2.6034,-2.5726,-2.5618,-2.5472,-2.5197,-2.5696,-2.603,-2.594,-2.6457,-2.6892,-2.7009,-2.7616,-2.8086,-2.8157,-2.8334,-2.8348,-2.8299,-2.8259,-2.8235,-2.8162,-2.8677,-2.9098,-2.9282,-2.9389,-2.9541,-2.9653,-2.9697,-2.972,-2.972,-2.9792,-2.934,-2.8042,-2.7701,-2.7235,-2.5872,-2.5597,-2.5597,-2.5597,-2.5597,-2.5597,-2.5597,-2.5642,-2.5738,-2.5862,-2.5972,-2.6063,-3.358,0.0,-3.2426,-3.2064,0.0,-3.1627,-3.1016,-3.0219,-3.0265,-2.9258,-2.7497,-2.6627,-2.624,-2.6156,-2.591,-2.6266,-2.7081,-2.6879,-2.6794,-2.6794,-2.6794,-2.6794,-2.6779,-2.6513,-2.6433,-2.6527,-2.6445,-2.6496,-2.6736,-2.6907,-2.699,-2.7041,-2.7041,-2.7024,-2.699,-2.7194,-2.718,-2.694,-2.708,-2.73,-2.7612,-2.7558,-2.747,-2.7337,0.0,0.0,0.0,0.0,0.0,0.0,0.0,0.0,0.0,0.0,0.0,-2.3561,-2.3371,-2.3324,-2.3464,-2.3798,-2.3945,-2.3824,-2.4426,-2.4818,-2.4823,-2.5825,-2.6441,-2.6414,-2.6393,-2.6167,-2.5563,-2.5505,-2.5259,-2.4738,-2.5431,-2.5986,-2.6,-2.6801,-2.74,-2.7504,-2.7844,-2.8171,-2.8372,-2.8275,-2.8299,-2.8444,-2.8275,-2.8186,-2.8389,-2.8558,-2.874,-2.8982,-2.9321,-2.948,-2.9525,-2.9704,-2.9764,-2.973,-2.9824,-2.9291,-2.7956,-2.7709,-2.7267,-2.5937,-2.5597,-2.5597,-2.5597,-2.5597,-2.5597,-2.5597,-2.5637,-2.5698,-2.586,-2.5954,-2.6045,-3.3649,-3.3029,-3.2056,-3.152,-3.1334,-3.137,-3.103,-3.0428,0.0,0.0,0.0,-2.6856,-2.654,-2.6876,-2.6267,-2.6566,-2.7545,-2.7078,-2.6858,-2.6779,-2.6794,-2.6794,-2.6794,-2.6671,-2.6671,-2.6794,-2.6683,-2.6855,-2.7192,-2.7244,-2.7335,-2.7478,-2.7549,-2.7625,-2.7675,-2.7865,-2.7853,-2.7659,-2.7458,-2.7588,-2.8045,-2.7941,-2.7713,-2.7427,-2.6829,-2.644,-2.6333,-2.4983,-2.4331,-2.45,-2.3748,-2.3268,-2.3183,-2.3269,-2.3533,-2.3945,-2.3969,-2.4049,-2.4246,-2.4204,-2.4076,-2.3796,-2.45,-2.519,-2.5699,-2.6176,-2.6435,-2.648,-2.6563,-2.6332,-2.5667,-2.5542,-2.5284,-2.46,-2.544,-2.6036,-2.6184,-2.7058,-2.776,-2.779,-2.788,-2.8069,-2.829,-2.8143,-2.8143,-2.8444,-2.829,-2.821,-2.8653,-2.8566,-2.8558,-2.8865,-2.9213,-2.9434,-2.9441,-2.9637,-2.9776,-2.9532,-2.9604,-2.9178,-2.7957,-2.7526,-2.7008,-2.5824,-2.5597,-2.5597,-2.5597,-2.5597,-2.5597,-2.5597,-2.5597,-2.5654,-2.5844,-2.5952,-2.6008,-3.3491,-3.3409,-3.208,-3.1492,-3.1481,-3.167,-3.1564,-3.1168,-2.9346,-2.8668,-2.8821,-2.7199,-2.6976,-2.7769,-2.6789,-2.6801,-2.757,-2.7269,-2.7026,0.0,-2.6794,-2.6794,-2.6806,-2.6881,-2.6896,-2.6832,-2.7119,-2.7233,-2.7233,-2.7423,-2.76,-2.7715,-2.765,-2.77,-2.793,-2.788,-2.7984,-2.8258,-2.7806,-2.7566,-2.7581,-2.6938,-2.6492,-2.6329,-2.5982,-2.576,-2.5707,-2.5076,-2.471,-2.4658,-2.3798,-2.3437,-2.3736,-2.3552,-2.3571,-2.3958,-2.3899,-2.3803,-2.3724,-2.3702,-2.3929,-2.4455,-2.5615,-2.6206,-2.5918,-2.6496,-2.6986,-2.7126,-2.7118,-2.7033,-2.6748,-2.6145,-2.5886,-2.6122,-2.636,-2.6711,-2.7175,-2.746,-2.7675,-2.779,-2.7826,-2.7876,-2.8035,-2.7995,-2.7985,-2.8005,-2.8235,-2.8284,-2.8525,-2.8763,-2.9006,-2.919,-2.9282,-2.9412,-2.957,-2.9659,-2.9576,-2.9011,-2.9016,-2.86,-2.7259,-2.6947,-2.6604,-2.5743,-2.5597,-2.5597,-2.5597,-2.5597,-2.5597,-2.5597,-2.5597,-2.5656,-2.5844,-2.5917,-2.5972,-3.3642,-3.3257,-3.2154,-3.169,-3.1693,-3.128,-3.1219,-3.1145,-2.8791,-2.8139,-2.8649,-2.8099,-2.7772,-2.7537,-2.7195,-2.7372,-2.79,-2.7575,-2.7284,-2.7026,-2.7155,-2.7155,-2.7026,-2.7218,-2.7321,-2.7335,-2.7463,-2.7564,-2.7615,-2.769,-2.779,-2.7905,-2.79,-2.8014,-2.8177,-2.8152,-2.8226,-2.8396,-2.8097,-2.779,-2.7504,-2.7154,-2.6849,-2.6583,-2.6432,-2.6278,-2.6086,-2.6095,-2.595,-2.5599,-2.5051,-2.4787,-2.4865,-2.434,-2.4091,-2.4094,-2.3982,-2.3861,-2.3717,-2.3976,-2.4425,-2.5098,-2.6048,-2.6681,-2.6808,-2.7118,-2.7357,-2.7455,-2.7494,-2.7294,-2.685,-2.6525,-2.6266,-2.6048,-2.6363,-2.6731,-2.7031,-2.742,-2.7625,-2.7675,-2.768,-2.7775,-2.7961,-2.7891,-2.7989,-2.8301,-2.8661,-2.8881,-2.8779,-2.9059,-2.9236,-2.9144,-2.9328,-2.9547,-2.9681,-2.9748,-2.9669,-2.9426,-2.907,-2.8401,-2.7413,-2.6992,-2.6409,-2.5775,-2.5597,-2.5597,-2.5597,-2.5597,-2.5597,-2.5597,-2.5597,-2.5691,-2.5842,-2.597,-2.6096,-3.3917,-3.3188,-3.2276,-3.1893,-3.1824,-3.1127,-3.1011,-3.1034,-2.8977,-2.8231,-2.8552,-2.8379,-2.7941,-2.7524,-2.7498,-2.7767,-2.8143,-2.79,-2.7575,-2.7335,-2.7499,-2.7499,-2.7321,-2.7575,-2.7725,-2.779,-2.775,-2.784,-2.797,-2.789,-2.793,-2.8079,-2.8275,-2.8356,-2.8444,-2.8444,-2.842,-2.8396,-2.8154,-2.7864,-2.752,-2.7434,-2.7179,-2.6755,-2.6641,-2.649,-2.6218,-2.6536,-2.6506,-2.6062,-2.5812,-2.5623,-2.5441,-2.488,-2.4421,-2.4166,-2.4046,-2.3925,-2.382,-2.4432,-2.5038,-2.5561,-2.6363,-2.7061,-2.751,-2.7435,-2.7375,-2.739,-2.7415,-2.7189,-2.6501,-2.6279,-2.6144,-2.5854,-2.6123,-2.6497,-2.6811,-2.73,-2.7585,-2.7585,-2.7585,-2.7695,-2.7795,-2.7725,-2.7834,-2.8357,-2.8907,-2.9082,-2.8998,-2.915,-2.9166,-2.925,-2.9441,-2.9697,-2.9742,-2.983,-2.9777,-2.9724,-2.9021,-2.8223,-2.7494,-2.6863,-2.6328,-2.571,-2.5597,-2.5597,-2.5597,-2.5597,-2.5597,-2.5597,-2.5616,-2.5694,-2.5881,-2.6061,-2.6185,-3.416,-3.3388,-3.2511,-3.2073,-3.186,-3.1755,-3.1497,-3.1063,-3.0209,-2.9585,-2.8966,-2.6925,-2.6872,-2.8073,-2.7566,-2.7666,-2.8242,-2.818,-2.7925,-2.76,-2.7575,-2.7585,-2.76,-2.784,-2.7905,-2.7865,-2.8024,-2.8103,-2.8069,-2.8005,-2.8128,-2.8363,-2.8628,-2.866,-2.8612,-2.8573,-2.8525,-2.8396,-2.7851,-2.7543,-2.7496,-2.7199,-2.6692,-2.5921,-2.5644,-2.5396,-2.5289,-2.5266,-2.5282,-2.5183,-2.4952,-2.4755,-2.4693,-2.4472,-2.4255,-2.4046,-2.4003,-2.3897,-2.3728,-2.4807,-2.5472,-2.5689,-2.6707,-2.742,-2.7495,-2.7016,-2.6686,-2.6671,-2.6686,-2.6417,-2.5764,-2.5255,-2.539,-2.6213,-2.6004,-2.6153,-2.7136,-2.7555,-2.7585,-2.7585,-2.75,-2.764,-2.7625,-2.769,-2.7658,-2.7798,-2.8313,-2.8621,-2.865,-2.881,-2.9102,-2.947,-2.9681,-2.9748,-2.9836,-2.988,-2.9589,-2.9038,-2.8288,-2.7624,-2.6976,-2.6328,-2.5646,-2.5694,-2.5597,-2.5597,-2.5597,-2.5597,-2.5597,-2.56,-2.564,-2.5738,-2.5937,-2.6063,-2.6151,-3.3671,-3.2879,-3.2389,-3.1812,-3.1288,-3.1236,-3.0708,-2.9805,-2.9022,-2.8643,-2.8402,-2.654,-2.6539,-2.7943,-2.7833,-2.7924,-2.8209,-2.8435,-2.8381,-2.8113,-2.8162,-2.8146,-2.8082,-2.8244,-2.8372,-2.8396,-2.8429,-2.8444,-2.8468,-2.8468,-2.8532,-2.8628,-2.8747,-2.8755,-2.8692,-2.8373,-2.8171,-2.8093,-2.7574,-2.7114,-2.6728,-2.6514,-2.6108,-2.556,-2.5345,-2.524,-2.5155,-2.5369,-2.5505,-2.5455,-2.5191,-2.5008,-2.5008,-2.4575,-2.4198,-2.4003,-2.3861,-2.3717,-2.3631,-2.447,-2.5008,-2.5008,-2.5869,-2.6408,-2.6408,-2.6153,-2.5869,-2.554,-2.5794,-2.5884,-2.5615,-2.536,-2.5427,-2.5884,-2.5764,-2.5839,-2.6318,-2.6447,-2.6538,-2.6921,-2.7006,-2.7195,-2.757,-2.7993,-2.8259,-2.8396,-2.8783,-2.8992,-2.9177,-2.9312,-2.9491,-2.9717,-2.983,-2.9852,-2.9864,-2.9491,-2.9167,-2.873,-2.7834,-2.696,-2.6733,-2.6102,-2.5597,-2.5597,-2.5597,-2.5597,-2.5597,-2.5597,-2.5597,-2.5619,-2.5631,-2.5628,-2.5306,-2.5658,-2.5827,-3.3315,-3.2542,-3.2091,-3.1655,-3.115,-3.0699,-3.0074,-2.9217,-2.8379,-2.8124,-2.8094,-2.6899,-2.6781,-2.7454,-2.7656,-2.7778,-2.7901,-2.8355,-2.8467,-2.8254,-2.8504,-2.8597,-2.851,-2.8597,-2.8708,-2.8771,-2.8684,-2.87,-2.8779,-2.8561,-2.8615,-2.8779,-2.8654,-2.8568,-2.8529,-2.7971,-2.7633,-2.7608,-2.7152,-2.6661,-2.62,-2.5885,-2.5592,-2.5268,-2.5275,-2.5201,-2.5025,-2.5302,-2.5441,-2.5383,-2.5141,-2.5041,-2.5004,-2.4543,-2.4213,-2.4003,-2.3739,-2.3595,-2.361,-2.4216,-2.4627,-2.4687,-2.5264,-2.5661,-2.5678,-2.5543,-2.5205,-2.4829,-2.5122,-2.5332,-2.5061,-2.5061,-2.5121,-2.5285,-2.5322,-2.5367,-2.56,-2.56,-2.5902,-2.6466,-2.6663,-2.6811,-2.7405,-2.8008,-2.838,-2.8135,-2.8509,-2.8963,-2.8963,-2.8865,-2.8914,-2.9248,-2.9281,-2.9459,-2.974,-2.9329,-2.8887,-2.8519,-2.7688,-2.6782,-2.6652,-2.605,-2.5597,-2.5597,-2.5597,-2.5597,-2.5597,-2.5597,-2.5616,-2.5621,-2.5631,-2.5575,-2.5335,-2.5617,-2.5637,-3.3314,-3.2501,-3.1612,-3.1548,-3.1987,-3.0488,-2.9955,-2.987,-2.9114,-2.8619,-2.8329,-2.8078,-2.7665,-2.7123,-2.6924,-2.6835,-2.7286,-2.7832,-2.7985,-2.7805,-2.8412,-2.8779,-2.8794,-2.8794,-2.881,-2.8818,-2.8818,-2.8818,-2.8787,-2.8124,-2.8139,-2.8818,-2.8292,-2.803,-2.8002,-2.7375,-2.6985,-2.6983,-2.6492,-2.6177,-2.6158,-2.5528,-2.5171,-2.5107,-2.522,-2.5123,-2.4862,-2.4701,-2.4647,-2.458,-2.4457,-2.4358,-2.4343,-2.4312,-2.4198,-2.4003,-2.3754,-2.3595,-2.367,-2.4171,-2.459,-2.48,-2.5243,-2.5779,-2.5682,-2.5288,-2.4933,-2.4784,-2.4784,-2.4559,-2.4041,-2.4116,-2.4207,-2.4605,-2.4672,-2.4964,-2.5465,-2.5437,-2.5886,-2.639,-2.6609,-2.6789,-2.7106,-2.765,-2.7436,-2.6801,-2.6582,-2.6917,-2.7135,-2.6953,-2.7284,-2.7781,-2.8061,-2.8288,-2.9443,-2.8957,-2.8611,-2.8271,-2.7348,-2.662,-2.6426,-2.6163,-2.5824,-2.5597,-2.5597,-2.5597,-2.5597,-2.5616,-2.5637,-2.564,-2.5654,-2.5564,-2.523,-2.5658,-2.5644,-3.2954,-3.2012,-3.1078,-3.0728,-3.0672,-2.9659,-2.9152,-2.8973,-2.8066,-2.7807,-2.7891,-2.7719,-2.7665,-2.775,-2.7607,-2.7195,-2.6716,-2.7216,-2.7419,-2.7372,-2.7948,-2.8262,-2.8385,-2.8693,-2.8928,-2.8975,-2.8998,-2.9014,-2.8935,-2.829,-2.8122,-2.8363,-2.8211,-2.7945,-2.7577,-2.6987,-2.6657,-2.6634,-2.6074,-2.5741,-2.5678,-2.5368,-2.5143,-2.4942,-2.4946,-2.4886,-2.467,-2.4584,-2.4482,-2.438,-2.4317,-2.4281,-2.4281,-2.4177,-2.4088,-2.3982,-2.3739,-2.3595,-2.3625,-2.3819,-2.3969,-2.4028,-2.4326,-2.4609,-2.4556,-2.4461,-2.4411,-2.4454,-2.4346,-2.4201,-2.434,-2.4423,-2.4477,-2.4325,-2.4374,-2.4481,-2.4568,-2.4637,-2.4963,-2.5818,-2.6448,-2.6955,-2.7018,-2.7312,-2.7337,-2.7031,-2.7096,-2.7167,-2.7239,-2.7256,-2.7292,-2.7571,-2.7737,-2.7862,-2.8271,-2.7883,-2.7381,-2.717,-2.6636,-2.6183,-2.5872,-2.5888,-2.5613,-2.5597,-2.5597,-2.5597,-2.5597,-2.5597,-2.5619,-2.5619,-2.5632,-2.5491,-2.506,-2.5501,-2.5452,-3.2865,-3.2094,-3.1194,-3.0834,-3.0714,-2.9732,-2.9138,-2.8779,-2.8098,-2.7691,-2.7553,-2.7639,-2.7838,-2.794,-2.7833,-2.7313,-2.6587,-2.7045,-2.7127,-2.6899,-2.7462,-2.7784,-2.787,-2.8183,-2.8419,-2.8401,-2.816,-2.8176,-2.837,-2.7769,-2.7607,-2.7911,-2.7715,-2.7408,-2.7048,-2.6451,-2.6153,-2.6099,-2.5805,-2.5521,-2.5391,-2.5256,-2.5119,-2.4906,-2.4726,-2.4641,-2.4549,-2.4503,-2.4436,-2.4323,-2.4281,-2.4281,-2.4261,-2.4151,-2.4061,-2.3982,-2.3782,-2.3696,-2.3739,-2.3739,-2.3824,-2.3915,-2.4057,-2.4141,-2.4183,-2.4198,-2.4255,-2.4271,-2.4359,-2.4405,-2.443,-2.485,-2.4989,-2.442,-2.4328,-2.4364,-2.4266,-2.4281,-2.471,-2.5531,-2.6466,-2.687,-2.6776,-2.6873,-2.6885,-2.6929,-2.6981,-2.7041,-2.7021,-2.7005,-2.7021,-2.7025,-2.6924,-2.6911,-2.7041,-2.6701,-2.6798,-2.6652,-2.6328,-2.5807,-2.5597,-2.5597,-2.5597,-2.5597,-2.5597,-2.5597,-2.5597,-2.5597,-2.5597,-2.5597,-2.5597,-2.5521,-2.5343,-2.5341,-2.5343,-3.3097,-3.2714,-3.2003,-3.1684,-3.1809,-3.0561,-2.9934,-2.9622,-2.9437,-2.8578,-2.7656,-2.8262,-2.8399,-2.7749,-2.7602,-2.709,-2.7039,-2.7405,-2.711,-2.6426,-2.7029,-2.7306,-2.7227,-2.7349,-2.7407,-2.736,-2.6377,-2.6462,-2.7296,-2.6677,-2.6624,-2.712,-2.6732,-2.6506,-2.6494,-2.5824,-2.5474,-2.5608,-2.5629,-2.5597,-2.5559,-2.5236,-2.5064,-2.5029,-2.463,-2.4457,-2.4518,-2.4498,-2.4436,-2.4338,-2.4302,-2.4281,-2.4297,-2.4208,-2.4124,-2.404,-2.3882,-2.3861,-2.3982,-2.4036,-2.4224,-2.439,-2.4634,-2.4731,-2.4726,-2.463,-2.4487,-2.4462,-2.4637,-2.4685,-2.4292,-2.491,-2.5259,-2.4729,-2.4609,-2.4609,-2.4589,-2.4605,-2.4838,-2.554,-2.6335,-2.6652,-2.6333,-2.6297,-2.6281,-2.596,-2.5856,-2.5888,-2.5937,-2.5953,-2.5726,-2.5726,-2.5953,-2.6131,-2.5872,-2.5662,-2.6102,-2.6361,-2.5988,-2.5597,-2.5597,-2.5597,-2.5597,-2.5597,-2.5597,-2.5597,-2.5597,-2.5597,-2.5597,-2.5597,-2.5581,-2.5581,-2.5532,-2.5484,-2.5516,-3.1909,-3.17,-3.0207,-2.9868,-3.0243,-2.9727,-2.9682,-2.9988,-2.9826,-2.9364,-2.9024,-2.9463,-2.9567,-2.9267,-2.8948,-2.8492,-2.7951,-2.7514,-2.6779,-2.6092,-2.651,-2.6772,-2.6775,-2.713,-2.7327,-2.7216,-2.6527,-2.6543,-2.7035,-2.6532,-2.6438,-2.6655,-2.6527,-2.6233,-2.5895,-2.5637,-2.5559,-2.5597,-2.5597,-2.554,-2.541,-2.5275,-2.5162,-2.5025,-2.4866,-2.4806,-2.4826,-2.4528,-2.4405,-2.4487,-2.4364,-2.4281,-2.4276,-2.4151,-2.4109,-2.4193,-2.4046,-2.3961,-2.4024,-2.4219,-2.4343,-2.4369,-2.4594,-2.471,-2.4666,-2.4645,-2.465,-2.469,-2.4771,-2.4735,-2.5041,-2.5199,-2.5207,-2.4771,-2.4855,-2.4895,-2.4851,-2.4968,-2.5154,-2.5382,-2.5858,-2.5946,-2.5742,-2.5747,-2.5741,-2.5659,-2.5597,-2.5597,-2.5597,-2.5597,-2.5597,-2.5597,-2.5597,-2.5597,-2.5597,-2.5597,-2.5826,-2.6053,-2.5791,-2.5597,-2.5597,-2.5597,-2.5597,-2.5597,-2.5597,-2.5597,-2.5597,-2.5597,-2.5597,-2.5597,-2.5597,-2.5597,-2.5597,-2.5597,-2.5597,-3.2163,-3.1734,-3.0503,-2.9913,-2.9876,-2.979,-2.9917,-3.0194,-3.0069,-2.9941,-2.9898,-2.9937,-3.0099,-3.0087,-2.9637,-2.9264,-2.8848,-2.7765,-2.6867,-2.6288,-2.6165,-2.6247,-2.6241,-2.6586,-2.6728,-2.6583,-2.6178,-2.6214,-2.6599,-2.6214,-2.6029,-2.6147,-2.6167,-2.5992,-2.5629,-2.5597,-2.5597,-2.5597,-2.5597,-2.554,-2.541,-2.5333,-2.522,-2.5103,-2.5045,-2.506,-2.508,-2.4751,-2.4625,-2.4706,-2.4609,-2.4549,-2.4528,-2.4446,-2.4421,-2.4446,-2.4369,-2.4323,-2.4349,-2.4609,-2.469,-2.4655,-2.4835,-2.497,-2.4902,-2.4866,-2.4846,-2.4966,-2.4826,-2.4851,-2.5182,-2.5259,-2.5127,-2.4993,-2.5166,-2.5224,-2.5143,-2.5246,-2.5314,-2.541,-2.5593,-2.5599,-2.5518,-2.5486,-2.5489,-2.5597,-2.5597,-2.5597,-2.5597,-2.5597,-2.5597,-2.5597,-2.5597,-2.5597,-2.5597,-2.5597,-2.5597,-2.5662,-2.5646,-2.5597,-2.5597,-2.5597,-2.5597,-2.5597,-2.5597,-2.5597,-2.5597,-2.5597,-2.5597,-2.5597,-2.5616,-2.5597,-2.5597,-2.5597,-2.5597,-3.3389,-3.2593,-3.2187,-3.1306,-3.0563,-3.0506,-3.0359,-3.0247,-3.0291,-3.0251,-3.0163,-3.0037,-3.0179,-3.0311,-2.9734,-2.9462,-2.9456,-2.8137,-2.7413,-2.7037,-2.6506,-2.5961,-2.5882,-2.5926,-2.5864,-2.5647,-2.5564,-2.5529,-2.5654,-2.5574,-2.547,-2.5659,-2.5675,-2.5629,-2.5597,-2.5597,-2.5597,-2.5597,-2.5597,-2.5581,-2.5578,-2.5426,-2.5333,-2.5314,-2.5162,-2.5158,-2.5256,-2.5123,-2.5021,-2.5001,-2.4962,-2.4926,-2.4966,-2.4985,-2.4851,-2.4811,-2.4795,-2.4779,-2.4899,-2.4993,-2.5107,-2.5169,-2.524,-2.5371,-2.5371,-2.5158,-2.5025,-2.5123,-2.495,-2.4871,-2.4989,-2.5088,-2.5204,-2.5314,-2.5429,-2.5451,-2.5397,-2.5391,-2.5388,-2.541,-2.5505,-2.5578,-2.5543,-2.5559,-2.5578,-2.5597,-2.5597,-2.5597,-2.5597,-2.5597,-2.5597,-2.5597,-2.5597,-2.5597,-2.5597,-2.5597,-2.5597,-2.5597,-2.5597,-2.5597,-2.5597,-2.5597,-2.5597,-2.5597,-2.5597,-2.5597,-2.5616,-2.5616,-2.5619,-2.5621,-2.5619,-2.5616,-2.5616,-2.5635,-2.5597,-3.2009,-3.1091,-3.0268,-2.9722,-2.9484,-2.9777,-2.9843,-2.9729,-3.0181,-3.0537,-3.0821,-3.0745,-3.0924,-3.1479,-3.0538,-3.0131,-2.9656,-2.8447,-2.7681,-2.7421,-2.661,-2.6081,-2.5899,-2.5844,-2.5772,-2.5661,-2.5624,-2.5605,-2.5543,-2.5543,-2.5562,-2.5597,-2.5597,-2.5597,-2.5597,-2.5597,-2.5597,-2.5597,-2.5597,-2.5597,-2.5597,-2.5559,-2.5521,-2.5521,-2.5448,-2.5464,-2.5521,-2.5467,-2.5294,-2.5025,-2.5005,-2.5005,-2.5005,-2.493,-2.495,-2.5013,-2.4938,-2.4899,-2.4942,-2.5169,-2.5243,-2.5075,-2.5317,-2.5429,-2.524,-2.5252,-2.5233,-2.5236,-2.5178,-2.5233,-2.5352,-2.5429,-2.5486,-2.5505,-2.5489,-2.5451,-2.5413,-2.5352,-2.5349,-2.5394,-2.5397,-2.5432,-2.5451,-2.547,-2.5505,-2.5578,-2.5597,-2.5597,-2.5597,-2.5597,-2.5597,-2.5597,-2.5597,-2.5597,-2.5597,-2.5597,-2.5597,-2.5597,-2.5597,-2.5597,-2.5597,-2.5597,-2.5597,-2.5597,-2.5597,-2.5597,-2.5619,-2.564,-2.5624,-2.5642,-2.568,-2.5696,-2.5659,-2.5659,-2.5619,-3.1443,-3.0588,-2.9957,-2.9414,-2.9037,-2.9258,-2.9416,-2.9574,-2.9891,-3.0389,-3.0804,-3.0816,-3.0916,-3.108,-3.0491,-3.0056,-2.9618,-2.849,-2.7858,-2.7547,-2.6786,-2.631,-2.6079,-2.6025,-2.5954,-2.583,-2.5828,-2.5791,-2.5715,-2.5694,-2.564,-2.5656,-2.5616,-2.5597,-2.5597,-2.5597,-2.5597,-2.5597,-2.5597,-2.5597,-2.5597,-2.5597,-2.5597,-2.5597,-2.5597,-2.5597,-2.5597,-2.5597,-2.5483,-2.5294,-2.5256,-2.5256,-2.5256,-2.5182,-2.5201,-2.5301,-2.5243,-2.5185,-2.515,-2.5285,-2.5301,-2.513,-2.5298,-2.5298,-2.5259,-2.5256,-2.5236,-2.5391,-2.5423,-2.5499,-2.5559,-2.5597,-2.5597,-2.5578,-2.5508,-2.547,-2.5397,-2.5355,-2.5355,-2.5378,-2.5416,-2.5432,-2.547,-2.547,-2.5524,-2.5578,-2.5597,-2.5597,-2.5597,-2.5597,-2.5635,-2.5654,-2.5635,-2.5635,-2.5654,-2.5654,-2.5691,-2.5672,-2.5691,-2.5672,-2.5672,-2.5654,-2.5616,-2.5616,-2.5597,-2.5616,-2.5619,-2.564,-2.5663,-2.5701,-2.5738,-2.5738,-2.5735,-2.5663,-2.564,-3.1343,-3.0576,-3.0456,-2.9898,-2.9167,-2.8994,-2.9186,-2.9498,-2.9494,-2.9776,-3.0175,-3.0287,-3.0245,-2.9924,-3.01,-2.9744,-2.9264,-2.8357,-2.7777,-2.7351,-2.6877,-2.6537,-2.6293,-2.6276,-2.617,-2.6046,-2.6028,-2.5956,-2.5881,-2.5772,-2.5719,-2.5717,-2.5659,-2.5635,-2.5619,-2.5619,-2.56,-2.5619,-2.5619,-2.5619,-2.5619,-2.5616,-2.5597,-2.5597,-2.5597,-2.5597,-2.5597,-2.5597,-2.5578,-2.5597,-2.5597,-2.5559,-2.5594,-2.5578,-2.5578,-2.5578,-2.554,-2.5486,-2.5432,-2.5413,-2.5359,-2.5278,-2.5143,-2.5123,-2.5301,-2.5298,-2.5317,-2.554,-2.5597,-2.5578,-2.5597,-2.5597,-2.5597,-2.5597,-2.5581,-2.5543,-2.5451,-2.5432,-2.5416,-2.5416,-2.5543,-2.5597,-2.5597,-2.5597,-2.5597,-2.5597,-2.5616,-2.5654,-2.5635,-2.5635,-2.571,-2.5803,-2.5747,-2.5656,-2.5675,-2.5712,-2.5749,-2.5768,-2.5805,-2.5805,-2.5787,-2.5749,-2.5672,-2.5651,-2.5672,-2.5654,-2.5616,-2.564,-2.5717,-2.5756,-2.5828,-2.5809,-2.5772,-2.5719,-2.5661,-3.0744,-2.9879,-2.9772,-2.9531,-2.9238,-2.9104,-2.8997,-2.8935,-2.8858,-2.9112,-2.944,-2.9522,-2.9695,-3.0011,-2.9873,-2.9957,-2.9243,-2.8117,-2.7305,-2.6599,-2.6935,-2.6824,-2.6641,-2.6607,-2.6435,-2.6244,-2.6208,-2.6101,-2.5921,-2.5832,-2.5862,-2.5844,-2.5735,-2.5663,-2.568,-2.568,-2.568,-2.568,-2.568,-2.568,-2.5642,-2.5635,-2.5597,-2.5597,-2.5597,-2.5597,-2.5597,-2.5597,-2.5597,-2.5597,-2.5597,-2.5597,-2.5597,-2.5597,-2.5597,-2.5597,-2.5597,-2.5578,-2.5559,-2.5451,-2.5378,-2.5359,-2.5317,-2.5336,-2.5394,-2.5451,-2.5505,-2.5597,-2.5597,-2.5597,-2.5597,-2.5597,-2.5597,-2.5597,-2.5597,-2.5597,-2.5578,-2.5559,-2.5543,-2.5543,-2.5562,-2.5597,-2.5597,-2.5616,-2.5616,-2.5597,-2.5635,-2.5691,-2.5691,-2.5675,-2.5712,-2.5821,-2.5824,-2.5768,-2.5749,-2.5768,-2.5768,-2.5805,-2.5842,-2.5844,-2.5844,-2.5917,-2.586,-2.5787,-2.5766,-2.5728,-2.5635,-2.5749,-2.5844,-2.5881,-2.5917,-2.5917,-2.5883,-2.5793,-2.5719,-3.0248,-2.9783,-2.9645,-2.9513,-2.9373,-2.9225,-2.9037,-2.8827,-2.8675,-2.8466,-2.8331,-2.83,-2.8229,-2.8134,-2.8409,-2.8275,-2.7609,-2.6809,-2.6164,-2.5979,-2.6392,-2.6663,-2.6816,-2.683,-2.6722,-2.5998,-2.6126,-2.6021,-2.5734,-2.5826,-2.5954,-2.5936,-2.5828,-2.5807,-2.5791,-2.5791,-2.5738,-2.5701,-2.5701,-2.5682,-2.5659,-2.5619,-2.5597,-2.5597,-2.5597,-2.5597,-2.5597,-2.5597,-2.5597,-2.5597,-2.5597,-2.5597,-2.5597,-2.5597,-2.5597,-2.5597,-2.5597,-2.5578,-2.5505,-2.5451,-2.5378,-2.5355,-2.5355,-2.5375,-2.5413,-2.547,-2.5524,-2.5578,-2.5597,-2.5597,-2.5597,-2.5597,-2.5597,-2.5597,-2.5597,-2.5597,-2.5597,-2.5597,-2.5597,-2.5597,-2.5597,-2.5597,-2.5616,-2.5654,-2.5712,-2.5731,-2.5749,-2.5787,-2.5766,-2.5747,-2.571,-2.5766,-2.5877,-2.586,-2.5842,-2.5805,-2.5752,-2.5789,-2.5842,-2.5844,-2.5809,-2.5937,-2.6064,-2.5972,-2.586,-2.5747,-2.5691,-2.5824,-2.5934,-2.5934,-2.597,-2.6008,-2.6008,-2.5919,-2.5846,-2.9734,-2.9704,-2.9583,-2.9504,-2.9493,-2.9332,-2.9163,-2.898,-2.8628,-2.802,-2.7293,-2.7074,-2.6726,-2.6134,-2.6513,-2.6113,-2.5497,-2.5397,-2.5467,-2.571,-2.5949,-2.6336,-2.6603,-2.6638,-2.6145,-2.5196,-2.5982,-2.6014,-2.5761,-2.5706,-2.5902,-2.5998,-2.5808,-2.5822,-2.5886,-2.5899,-2.5748,-2.5511,-2.5481,-2.531,-2.525,-2.5278,-2.5405,-2.5597,-2.5597,-2.5597,-2.5597,-2.5597,-2.5597,-2.5597,-2.5597,-2.5597,-2.5597,-2.5597,-2.5597,-2.5597,-2.5597,-2.5578,-2.5489,-2.5432,-2.5394,-2.5317,-2.5317,-2.5355,-2.5432,-2.547,-2.5505,-2.5578,-2.5597,-2.5597,-2.5597,-2.5597,-2.5597,-2.5597,-2.5597,-2.5597,-2.5597,-2.5597,-2.5597,-2.5597,-2.5597,-2.5597,-2.5654,-2.5694,-2.577,-2.5862,-2.5879,-2.5879,-2.5842,-2.5803,-2.5747,-2.5787,-2.5915,-2.6043,-2.6008,-2.6007,-2.5936,-2.5934,-2.5952,-2.5936,-2.5919,-2.61,-2.6224,-2.6045,-2.5899,-2.5842,-2.5842,-2.5972,-2.6026,-2.5989,-2.6061,-2.617,-2.6118,-2.6028,-2.5956,-2.9017,-2.8889,-2.8757,-2.9032,-2.9514,-2.9465,-2.9217,-2.8972,-2.8242,-2.7722,-2.7248,-2.6586,-2.6111,-2.5875,-2.5927,-2.5569,-2.5065,-2.5118,-2.5471,-2.5582,-2.5685,-2.5918,-2.6226,-2.592,-2.5048,-2.475,-2.5636,-2.637,-2.5933,-2.5798,-2.5646,-2.6029,-2.5592,-2.5455,-2.58,-2.5995,-2.5495,-2.5064,-2.4984,-2.4751,-2.4399,-2.4556,-2.4972,-2.5324,-2.5338,-2.5435,-2.5532,-2.5565,-2.5597,-2.5597,-2.5597,-2.5597,-2.5597,-2.5597,-2.5597,-2.5597,-2.5597,-2.5578,-2.5543,-2.547,-2.547,-2.5486,-2.5448,-2.5448,-2.5524,-2.5562,-2.5578,-2.5578,-2.5597,-2.5597,-2.5597,-2.5597,-2.5597,-2.5597,-2.5597,-2.5597,-2.5597,-2.5616,-2.5635,-2.5654,-2.5635,-2.5616,-2.5656,-2.5715,-2.5828,-2.5864,-2.5862,-2.5917,-2.5936,-2.586,-2.5749,-2.5844,-2.599,-2.6117,-2.6189,-2.6206,-2.617,-2.6169,-2.6203,-2.6187,-2.6222,-2.6364,-2.6364,-2.6152,-2.6099,-2.6099,-2.6117,-2.6152,-2.6188,-2.6188,-2.626,-2.6348,-2.626,-2.6154,-2.6046,-2.8243,-2.8167,-2.7998,-2.8349,-2.8865,-2.8446,-2.8416,-2.8487,-2.764,-2.6885,-2.6319,-2.5778,-2.5272,-2.5007,-2.5177,-2.5034,-2.4843,-2.451,-2.4688,-2.473,-2.4972,-2.5222,-2.5689,-2.5283,-2.5055,-2.4962,-2.5651,-2.5641,-2.4989,-2.481,-2.4979,-2.5063,-2.4796,-2.483,-2.5063,-2.5012,-2.4862,-2.4497,-2.4431,-2.4231,-2.3735,-2.3991,-2.4262,-2.4419,-2.458,-2.4677,-2.5001,-2.5033,-2.5225,-2.55,-2.5597,-2.5597,-2.5581,-2.5597,-2.5597,-2.5597,-2.5597,-2.5597,-2.5597,-2.5543,-2.5543,-2.5578,-2.5524,-2.5524,-2.5578,-2.5597,-2.5597,-2.5597,-2.5597,-2.5597,-2.5597,-2.5597,-2.5597,-2.5597,-2.5597,-2.5597,-2.5635,-2.5677,-2.5715,-2.5731,-2.5672,-2.5654,-2.5656,-2.5752,-2.5866,-2.5903,-2.5899,-2.5936,-2.601,-2.5917,-2.5805,-2.5881,-2.6008,-2.6099,-2.6188,-2.617,-2.6222,-2.6291,-2.6292,-2.6292,-2.6328,-2.6397,-2.6364,-2.6225,-2.6242,-2.6241,-2.6206,-2.6152,-2.626,-2.6366,-2.6452,-2.6487,-2.64,-2.6279,-2.6154,-2.7478,-2.7458,-2.7255,-2.7615,-2.8112,-2.7486,-2.7455,-2.7708,-2.6942,-2.6138,-2.5374,-2.5012,-2.4535,-2.4145,-2.4324,-2.4529,-2.4482,-2.3869,-2.3892,-2.4165,-2.4283,-2.4516,-2.4873,-2.4898,-2.4817,-2.4524,-2.4549,-2.4356,-2.4224,-2.4044,-2.412,-2.4323,-2.4223,-2.4141,-2.4309,-2.4428,-2.4145,-2.393,-2.3881,-2.3801,-2.3622,-2.3472,-2.3452,-2.3497,-2.3496,-2.382,-2.4257,-2.4306,-2.4547,-2.4936,-2.5211,-2.5357,-2.5371,-2.5516,-2.5597,-2.5597,-2.5597,-2.5597,-2.5597,-2.5597,-2.5597,-2.5597,-2.5597,-2.5597,-2.5597,-2.5597,-2.5597,-2.5597,-2.5597,-2.5597,-2.5597,-2.5597,-2.5597,-2.5597,-2.5597,-2.5616,-2.5694,-2.5789,-2.5899,-2.586,-2.5749,-2.5768,-2.5844,-2.5875,-2.6023,-2.6048,-2.6045,-2.6063,-2.6082,-2.5972,-2.5915,-2.5952,-2.6026,-2.6081,-2.6099,-2.6026,-2.6114,-2.6217,-2.6184,-2.6185,-2.6238,-2.6308,-2.6258,-2.6242,-2.6259,-2.6259,-2.6206,-2.6225,-2.6383,-2.6521,-2.6624,-2.659,-2.6418,-2.6312,-2.6222,-2.6776,-2.6697,-2.6497,-2.6885,-2.7504,-2.7285,-2.7203,-2.71,-2.6281,-2.5801,-2.5412,-2.4677,-2.4261,-2.4158,-2.4069,-2.4109,-2.4011,-2.3923,-2.4003,-2.4334,-2.406,-2.4157,-2.451,-2.3724,-2.3774,-2.3716,-2.3324,-2.368,-2.3913,-2.3745,-2.3863,-2.409,-2.3708,-2.3646,-2.4017,-2.3937,-2.3827,-2.3295,-2.3193,-2.3116,-2.2929,-2.2736,-2.2931,-2.3238,-2.3366,-2.3432,-2.3578,-2.3627,-2.3772,-2.3885,-2.4387,-2.4614,-2.4709,-2.5292,-2.5532,-2.5597,-2.5597,-2.5597,-2.5597,-2.5597,-2.5597,-2.5597,-2.5597,-2.5597,-2.5597,-2.5597,-2.5597,-2.5597,-2.5597,-2.5616,-2.5616,-2.5616,-2.5597,-2.5616,-2.5654,-2.5712,-2.5807,-2.5899,-2.6008,-2.61,-2.6063,-2.6081,-2.6118,-2.6147,-2.6178,-2.6168,-2.6189,-2.6207,-2.6207,-2.6134,-2.6081,-2.6152,-2.6224,-2.6294,-2.6188,-2.6082,-2.6112,-2.6198,-2.6147,-2.6132,-2.6257,-2.6362,-2.6257,-2.6258,-2.6276,-2.6399,-2.6468,-2.6521,-2.6606,-2.6674,-2.6758,-2.659,-2.6365,-2.6294,-2.6258,-2.6017,-2.5916,-2.5726,-2.6129,-2.6707,-2.6261,-2.6208,-2.6306,-2.5619,-2.518,-2.5023,-2.4596,-2.4257,-2.4172,-2.4054,-2.3966,-2.3886,-2.3834,-2.3926,-2.4219,-2.3898,-2.3853,-2.3959,-2.3625,-2.3301,-2.3139,-2.3012,-2.3102,-2.3453,-2.3308,-2.3133,-2.3246,-2.3033,-2.2854,-2.3367,-2.3188,-2.294,-2.266,-2.2517,-2.2367,-2.2217,-2.2048,-2.202,-2.2297,-2.2329,-2.2573,-2.2866,-2.2931,-2.3174,-2.34,-2.3836,-2.3917,-2.4095,-2.4531,-2.4968,-2.5001,-2.5387,-2.5565,-2.5597,-2.5597,-2.5597,-2.5597,-2.5597,-2.5597,-2.5597,-2.5597,-2.5597,-2.5597,-2.5597,-2.5635,-2.5659,-2.5715,-2.5696,-2.5696,-2.5749,-2.5824,-2.5917,-2.601,-2.6136,-2.626,-2.6365,-2.6383,-2.6382,-2.6345,-2.6343,-2.6364,-2.64,-2.6452,-2.6486,-2.6469,-2.6418,-2.6383,-2.6469,-2.6572,-2.64,-2.6243,-2.6273,-2.6305,-2.6235,-2.6256,-2.6399,-2.6451,-2.6364,-2.6347,-2.64,-2.6555,-2.6708,-2.6759,-2.6792,-2.6825,-2.6892,-2.6674,-2.6487,-2.6365,-2.6312,-2.5565,-2.5432,-2.5321,-2.5562,-2.5969,-2.5336,-2.536,-2.5731,-2.5177,-2.4832,-2.4727,-2.4618,-2.4435,-2.4248,-2.4182,-2.4096,-2.3958,-2.3899,-2.3858,-2.3824,-2.3786,-2.3761,-2.3761,-2.3589,-2.3407,-2.3283,-2.3089,-2.3019,-2.2816,-2.267,-2.26,-2.2405,-2.2547,-2.2437,-2.2361,-2.2434,-2.2403,-2.2355,-2.213,-2.1997,-2.1862,-2.1667,-2.1512,-2.1466,-2.1467,-2.1646,-2.2102,-2.2199,-2.2508,-2.2751,-2.3107,-2.3204,-2.3318,-2.3852,-2.4225,-2.4387,-2.4822,-2.5227,-2.5324,-2.5422,-2.5565,-2.5597,-2.5597,-2.5597,-2.5597,-2.5597,-2.5597,-2.5597,-2.5619,-2.5642,-2.5701,-2.5809,-2.5844,-2.5862,-2.5899,-2.5954,-2.6045,-2.6206,-2.6313,-2.6435,-2.6555,-2.664,-2.6623,-2.6537,-2.652,-2.6521,-2.6606,-2.6674,-2.6708,-2.6742,-2.6708,-2.6657,-2.6708,-2.6759,-2.659,-2.6452,-2.6466,-2.6465,-2.6361,-2.6432,-2.6606,-2.6589,-2.6487,-2.6504,-2.6572,-2.6691,-2.6859,-2.6909,-2.6959,-2.6925,-2.6875,-2.6775,-2.664,-2.6504,-2.6365,-2.5669,-2.5571,-2.5439,-2.538,-2.5404,-2.5271,-2.5197,-2.5273,-2.507,-2.4935,-2.4854,-2.4817,-2.4684,-2.4543,-2.4452,-2.4356,-2.4229,-2.4126,-2.4029,-2.3927,-2.3839,-2.385,-2.3807,-2.3649,-2.3435,-2.3307,-2.3187,-2.299,-2.2777,-2.2777,-2.2592,-2.2432,-2.2432,-2.238,-2.2338,-2.2341,-2.2324,-2.2279,-2.2104,-2.1969,-2.1884,-2.1753,-2.1602,-2.1448,-2.1402,-2.1419,-2.139,-2.1503,-2.1584,-2.1778,-2.2199,-2.2491,-2.2638,-2.3222,-2.353,-2.3777,-2.4263,-2.4621,-2.4751,-2.5283,-2.5602,-2.5616,-2.5635,-2.5691,-2.571,-2.5635,-2.5616,-2.5654,-2.5696,-2.5701,-2.5756,-2.5828,-2.5974,-2.6028,-2.61,-2.6207,-2.6312,-2.6417,-2.6538,-2.664,-2.6725,-2.6792,-2.6859,-2.6775,-2.6725,-2.6742,-2.6808,-2.6875,-2.6958,-2.6974,-2.6958,-2.6942,-2.6942,-2.6909,-2.6742,-2.6691,-2.6691,-2.6657,-2.6605,-2.6691,-2.6859,-2.6758,-2.659,-2.6742,-2.6809,-2.6892,-2.6975,-2.7024,-2.7041,-2.6942,-2.6892,-2.6825,-2.6674,-2.6504,-2.6399,-2.5663,-2.56,-2.5549,-2.5447,-2.5354,-2.5336,-2.5264,-2.516,-2.5097,-2.4987,-2.4902,-2.487,-2.4783,-2.4681,-2.4583,-2.4485,-2.4364,-2.432,-2.422,-2.4126,-2.4057,-2.3988,-2.3907,-2.3782,-2.3631,-2.3479,-2.3383,-2.3295,-2.3157,-2.299,-2.2868,-2.2725,-2.2582,-2.2449,-2.2394,-2.238,-2.2394,-2.2335,-2.2172,-2.201,-2.2039,-2.1869,-2.1708,-2.1602,-2.1587,-2.151,-2.1419,-2.1371,-2.134,-2.1405,-2.1649,-2.1826,-2.2036,-2.2639,-2.2949,-2.3162,-2.3719,-2.4046,-2.4339,-2.5056,-2.5809,-2.5954,-2.5954,-2.5936,-2.5897,-2.5844,-2.5879,-2.5881,-2.5809,-2.5811,-2.6048,-2.6137,-2.6226,-2.6243,-2.633,-2.6469,-2.6555,-2.6657,-2.6725,-2.6792,-2.6859,-2.6926,-2.6975,-2.7007,-2.6975,-2.6958,-2.7023,-2.7087,-2.7137,-2.7153,-2.7138,-2.7122,-2.7122,-2.7089,-2.6925,-2.6909,-2.6893,-2.6859,-2.6843,-2.6925,-2.7006,-2.6791,-2.6691,-2.6875,-2.7024,-2.7057,-2.7106,-2.7154,-2.7154,-2.7106,-2.6991,-2.6875,-2.6708,-2.6538,-2.6486,-2.5661,-2.5632,-2.5632,-2.5571,-2.5471,-2.5445,-2.5352,-2.5265,-2.521,-2.5132,-2.5025,-2.4987,-2.4914,-2.4816,-2.4757,-2.4639,-2.454,-2.4483,-2.4426,-2.4311,-2.4219,-2.4125,-2.4037,-2.3937,-2.3795,-2.37,-2.3602,-2.3508,-2.3348,-2.3223,-2.3089,-2.2957,-2.279,-2.2632,-2.2446,-2.246,-2.2491,-2.2432,-2.2287,-2.2155,-2.2212,-2.1998,-2.1899,-2.1825,-2.1812,-2.1738,-2.1646,-2.1615,-2.1601,-2.154,-2.1559,-2.1589,-2.1783,-2.2043,-2.2354,-2.2729,-2.3156,-2.3588,-2.3935,-2.474,-2.5594,-2.5616,-2.5888,-2.5959,-2.6064,-2.5992,-2.5954,-2.6117,-2.5992,-2.5994,-2.633,-2.6331,-2.6418,-2.6469,-2.6624,-2.6759,-2.6792,-2.6859,-2.6892,-2.6941,-2.7025,-2.7126,-2.7105,-2.7153,-2.7154,-2.7138,-2.7154,-2.7202,-2.7234,-2.725,-2.7267,-2.7267,-2.7267,-2.7186,-2.7122,-2.7106,-2.7073,-2.7089,-2.7057,-2.7089,-2.7071,-2.6891,-2.6875,-2.7072,-2.717,-2.7203,-2.7219,-2.7251,-2.7267,-2.7283,-2.7138,-2.6941,-2.6859,-2.6708,-2.6657,-2.5702,-2.5703,-2.5698,-2.5641,-2.559,-2.5528,-2.5471,-2.5391,-2.5374,-2.5327,-2.5261,-2.5193,-2.513,-2.5057,-2.498,-2.4858,-2.4731,-2.4682,-2.4607,-2.4462,-2.4366,-2.4284,-2.4201,-2.4096,-2.3978,-2.3806,-2.3721,-2.3631,-2.3463,-2.3371,-2.3283,-2.3187,-2.3065,-2.2838,-2.2538,-2.2569,-2.2569,-2.2501,-2.2415,-2.2402,-2.236,-2.2158,-2.2099,-2.2053,-2.1955,-2.1884,-2.1838,-2.1853,-2.1823,-2.1811,-2.1781,-2.1811,-2.1951,-2.1835,-2.1918,-2.2056,-2.2637,-2.2937,-2.3039,-2.4164,-2.4758,-2.5125,-2.5488,-2.5794,-2.5928,-2.5975,-2.6063,-2.6278,-2.6225,-2.626,-2.6365,-2.6469,-2.6606,-2.6725,-2.6875,-2.6974,-2.699,-2.704,-2.7072,-2.7088,-2.7226,-2.7344,-2.7286,-2.7279,-2.7313,-2.7315,-2.7315,-2.7315,-2.7315,-2.7315,-2.7315,-2.7315,-2.7315,-2.7283,-2.7218,-2.7267,-2.7283,-2.7266,-2.725,-2.7234,-2.7234,-2.717,-2.7202,-2.7282,-2.7266,-2.7251,-2.7283,-2.7299,-2.7315,-2.7299,-2.717,-2.7007,-2.6941,-2.6908,-2.6892,-2.5704,-2.5697,-2.5703,-2.5698,-2.5654,-2.5589,-2.5551,-2.5537,-2.5494,-2.5417,-2.5313,-2.5273,-2.5215,-2.5153,-2.5056,-2.4955,-2.4876,-2.4893,-2.4794,-2.4601,-2.4414,-2.4469,-2.4327,-2.4054,-2.4025,-2.4049,-2.3949,-2.3832,-2.3884,-2.3563,-2.35,-2.3457,-2.3171,-2.2977,-2.2699,-2.2619,-2.2646,-2.2632,-2.2605,-2.2592,-2.2565,-2.2395,-2.2234,-2.2169,-2.2031,-2.1946,-2.1946,-2.1974,-2.2013,-2.1998,-2.1969,-2.2084,-2.2155,-2.2058,-2.2073,-2.2189,-2.2591,-2.2591,-2.2779,-2.3447,-2.4123,-2.4625,-2.518,-2.5546,-2.5765,-2.6097,-2.6282,-2.6385,-2.63,-2.6386,-2.6657,-2.6742,-2.6859,-2.6925,-2.704,-2.7087,-2.712,-2.7185,-2.7234,-2.7217,-2.7303,-2.7333,-2.7308,-2.731,-2.7345,-2.7346,-2.7315,-2.7315,-2.7315,-2.7315,-2.7315,-2.7315,-2.7315,-2.7315,-2.7315,-2.7315,-2.7315,-2.7299,-2.7299,-2.7299,-2.7299,-2.7315,-2.7315,-2.7315,-2.7315,-2.7315,-2.7315,-2.7315,-2.7315,-2.7267,-2.7186,-2.7154,-2.7138,-2.7154,-2.717,-2.5678,-2.5659,-2.5381,-2.5427,-2.5664,-2.5619,-2.56,-2.5588,-2.5553,-2.5471,-2.5375,-2.5352,-2.5317,-2.5182,-2.4903,-2.469,-2.4612,-2.4252,-2.4081,-2.3966,-2.3843,-2.3607,-2.3526,-2.3558,-2.3213,-2.3455,-2.3648,-2.3636,-2.3551,-2.3458,-2.3291,-2.3156,-2.3086,-2.2735,-2.2576,-2.2658,-2.2838,-2.2786,-2.2708,-2.2699,-2.2582,-2.2365,-2.2067,-2.2019,-2.1922,-2.1833,-2.1918,-2.204,-2.2212,-2.2198,-2.2254,-2.2378,-2.2433,-2.2419,-2.2422,-2.2497,-2.2515,-2.2518,-2.2695,-2.2779,-2.3396,-2.3835,-2.4657,-2.512,-2.5285,-2.5411,-2.5882,-2.61,-2.6169,-2.6455,-2.6706,-2.6806,-2.6923,-2.702,-2.712,-2.7166,-2.7233,-2.7297,-2.7297,-2.7297,-2.7329,-2.734,-2.7321,-2.734,-2.736,-2.7346,-2.7315,-2.7315,-2.7315,-2.7315,-2.7315,-2.7315,-2.7315,-2.7315,-2.7315,-2.7315,-2.7315,-2.7315,-2.7315,-2.7315,-2.7315,-2.7315,-2.7315,-2.7315,-2.7315,-2.7315,-2.7315,-2.7315,-2.7315,-2.7315,-2.7283,-2.7283,-2.7315,-2.7315,-2.7315,-2.5539,-2.5497,-2.4715,-2.4822,-2.5479,-2.5344,-2.5444,-2.5568,-2.5556,-2.5485,-2.5496,-2.5331,-2.5139,-2.5087,-2.4435,-2.3991,-2.3798,-2.3138,-2.2909,-2.2697,-2.2803,-2.2557,-2.2428,-2.2323,-2.2423,-2.2389,-2.2525,-2.2905,-2.285,-2.2774,-2.2687,-2.2562,-2.2432,-2.2261,-2.2302,-2.2435,-2.2586,-2.2387,-2.2317,-2.2287,-2.2158,-2.1742,-2.1561,-2.1534,-2.1509,-2.1558,-2.179,-2.2186,-2.2557,-2.2712,-2.2734,-2.2764,-2.2725,-2.2615,-2.2646,-2.2632,-2.2619,-2.2592,-2.2626,-2.2665,-2.2692,-2.3158,-2.3691,-2.4174,-2.456,-2.4759,-2.5232,-2.5584,-2.5705,-2.6194,-2.6597,-2.6731,-2.6897,-2.703,-2.7197,-2.7246,-2.7313,-2.7329,-2.7329,-2.7362,-2.7393,-2.7407,-2.736,-2.7379,-2.7362,-2.7346,-2.7315,-2.7315,-2.7315,-2.7315,-2.7315,-2.7315,-2.7315,-2.7315,-2.7315,-2.7315,-2.7315,-2.7315,-2.7315,-2.7315,-2.7315,-2.7315,-2.7315,-2.7315,-2.7315,-2.7315,-2.7315,-2.7315,-2.7315,-2.7315,-2.7315,-2.7315,-2.7315,-2.7315,-2.7315,-2.3748,-2.374,-2.3563,-2.3637,-2.3823,-2.3828,-2.4476,-2.5455,-2.5052,-2.5007,-2.549,-2.4193,-2.4122,-2.4405,-2.3572,-2.3202,-2.2973,-2.2823,-2.2697,-2.2477,-2.2185,-2.2275,-2.2176,-2.1978,-2.1988,-2.197,-2.2074,-2.2157,-2.2097,-2.2044,-2.1972,-2.188,-2.1777,-2.167,-2.166,-2.171,-2.1578,-2.1504,-2.1476,-2.154,-2.1434,-2.1014,-2.0935,-2.0917,-2.087,-2.1003,-2.1507,-2.1838,-2.2213,-2.2587,-2.2811,-2.2914,-2.2914,-2.2838,-2.2803,-2.2685,-2.2646,-2.2619,-2.2676,-2.2646,-2.2659,-2.2685,-2.3055,-2.3369,-2.383,-2.4264,-2.4611,-2.4925,-2.5092,-2.5465,-2.5886,-2.6151,-2.635,-2.6515,-2.6803,-2.7147,-2.7232,-2.7355,-2.734,-2.7393,-2.7442,-2.7393,-2.7364,-2.7348,-2.733,-2.7315,-2.7315,-2.7315,-2.7315,-2.7315,-2.7315,-2.7315,-2.7315,-2.7315,-2.7315,-2.7315,-2.7315,-2.7315,-2.7315,-2.7315,-2.7315,-2.7315,-2.7315,-2.7315,-2.7315,-2.7315,-2.7315,-2.7315,-2.7315,-2.7315,-2.7315,-2.7315,-2.7315,-2.7315,-2.7315,-2.2951,-2.2967,-2.2674,-2.256,-2.2656,-2.2957,-2.375,-2.4441,-2.4084,-2.4347,-2.491,-2.3641,-2.3259,-2.3521,-2.2829,-2.2331,-2.2241,-2.173,-2.1517,-2.1483,-2.1668,-2.1403,-2.1373,-2.1343,-2.11,-2.1197,-2.1369,-2.1425,-2.1353,-2.1262,-2.1203,-2.1178,-2.1115,-2.1043,-2.0979,-2.0895,-2.0546,-2.0454,-2.0467,-2.0662,-2.0606,-2.0358,-2.0214,-2.0225,-2.0147,-2.0448,-2.0854,-2.1121,-2.1602,-2.1895,-2.2094,-2.2334,-2.2557,-2.2818,-2.2927,-2.2812,-2.2764,-2.2712,-2.2699,-2.2699,-2.2699,-2.2712,-2.2712,-2.293,-2.3199,-2.3556,-2.395,-2.4288,-2.4391,-2.4574,-2.5008,-2.5409,-2.562,-2.5834,-2.6402,-2.6971,-2.715,-2.7311,-2.7384,-2.7407,-2.7409,-2.736,-2.7329,-2.733,-2.7315,-2.7315,-2.7315,-2.7315,-2.7315,-2.7315,-2.7315,-2.7315,-2.7315,-2.7315,-2.7315,-2.7315,-2.7315,-2.7315,-2.7315,-2.7315,-2.7315,-2.7315,-2.7315,-2.7315,-2.7315,-2.7315,-2.7315,-2.7315,-2.7315,-2.7315,-2.7315,-2.7315,-2.7315,-2.7315,-2.733,-2.2638,-2.2646,-2.1949,-2.1632,-2.1802,-2.2468,-2.2876,-2.2965,-2.2743,-2.3361,-2.394,-2.3267,-2.2756,-2.2703,-2.2009,-2.1581,-2.1348,-2.0893,-2.0649,-2.0245,-2.0494,-2.0469,-2.0375,-2.0045,-2.0325,-2.0233,-2.0311,-2.0696,-2.0588,-2.0502,-2.0429,-2.0416,-2.04,-2.0339,-2.0261,-2.0181,-1.9885,-1.9596,-1.9951,-2.0333,-2.0262,-1.9935,-1.9503,-1.9612,-1.9619,-1.9696,-1.9924,-2.0286,-2.0754,-2.0796,-2.0982,-2.1374,-2.2089,-2.2617,-2.2777,-2.2982,-2.2906,-2.2829,-2.2747,-2.2751,-2.2725,-2.2725,-2.2712,-2.2803,-2.301,-2.3034,-2.3381,-2.3602,-2.3705,-2.3857,-2.4223,-2.4711,-2.5024,-2.5515,-2.6136,-2.6722,-2.7173,-2.7298,-2.7382,-2.7407,-2.7426,-2.7396,-2.7404,-2.7388,-2.7345,-2.733,-2.7315,-2.7315,-2.7315,-2.7315,-2.733,-2.733,-2.7315,-2.7315,-2.7315,-2.7315,-2.7315,-2.7315,-2.7315,-2.7315,-2.7315,-2.7315,-2.7315,-2.7315,-2.7315,-2.7315,-2.7315,-2.7315,-2.7315,-2.7315,-2.7315,-2.7315,-2.7315,-2.7315,-2.7315,-2.0796,-2.086,-2.074,-2.0752,-2.0836,-2.1026,-2.1533,-2.1957,-2.0643,-2.1421,-2.2824,-2.193,-2.1448,-2.1706,-2.1085,-2.0679,-2.0484,-2.0163,-2.0231,-2.0108,-2.0039,-1.9953,-2.0079,-1.9977,-1.9936,-1.9928,-1.9982,-2.0067,-1.9966,-1.9815,-1.9674,-1.9638,-1.968,-1.9687,-1.9628,-1.9559,-1.9355,-1.9106,-1.9398,-1.9638,-1.9472,-1.9293,-1.8998,-1.9014,-1.9021,-1.9263,-1.9515,-1.9826,-2.0343,-2.0655,-2.0789,-2.1264,-2.1978,-2.2189,-2.2534,-2.2863,-2.2998,-2.2982,-2.2889,-2.285,-2.2868,-2.2829,-2.2842,-2.2893,-2.2881,-2.2764,-2.2794,-2.2962,-2.3097,-2.3265,-2.35,-2.4004,-2.4559,-2.5209,-2.5868,-2.6504,-2.7128,-2.7262,-2.7362,-2.7364,-2.7402,-2.741,-2.742,-2.7448,-2.739,-2.736,-2.733,-2.7315,-2.733,-2.733,-2.736,-2.736,-2.7315,-2.7315,-2.7315,-2.7346,-2.7345,-2.7329,-2.7329,-2.7313,-2.7315,-2.7315,-2.7315,-2.7315,-2.7315,-2.7315,-2.7315,-2.7315,-2.7315,-2.7315,-2.7315,-2.7315,-2.7315,-2.7315,-2.7315,-2.0078,-2.0164,-2.0305,-2.0363,-2.0407,-2.0398,-2.0523,-2.0469,-1.9989,-2.0111,-2.0721,-2.0205,-2.0057,-2.0318,-1.9878,-1.9575,-1.9437,-1.9242,-1.9065,-1.9146,-1.9561,-1.9585,-1.9667,-1.9807,-2.0011,-1.9972,-1.9835,-1.9763,-1.9628,-1.9546,-1.9501,-1.9424,-1.939,-1.9329,-1.9261,-1.9222,-1.9176,-1.9135,-1.916,-1.9111,-1.8975,-1.8923,-1.8825,-1.8779,-1.884,-1.9014,-1.9009,-1.9233,-1.9414,-1.9843,-2.0009,-2.035,-2.104,-2.1707,-2.2206,-2.2629,-2.2893,-2.3187,-2.3109,-2.306,-2.3052,-2.3028,-2.2982,-2.3028,-2.3015,-2.2927,-2.2919,-2.3054,-2.3066,-2.3188,-2.3227,-2.3627,-2.4147,-2.4743,-2.5511,-2.6234,-2.6809,-2.7177,-2.7119,-2.6978,-2.7016,-2.7008,-2.711,-2.7389,-2.7365,-2.7374,-2.7345,-2.7376,-2.7376,-2.7407,-2.7405,-2.7421,-2.7407,-2.7346,-2.7315,-2.736,-2.7421,-2.739,-2.7359,-2.736,-2.7329,-2.733,-2.7315,-2.7315,-2.7315,-2.7315,-2.7315,-2.7315,-2.7315,-2.7315,-2.7315,-2.7315,-2.7315,-2.7315,-2.7315,-1.9751,-1.9934,-2.0023,-2.0194,-2.0253,-2.0157,-1.9779,-1.9294,-1.9636,-1.9184,-1.8336,-1.8706,-1.8418,-1.8471,-1.862,-1.8337,-1.8219,-1.837,-1.8129,-1.8217,-1.8623,-1.878,-1.9037,-1.9323,-1.9481,-1.964,-1.9593,-1.9691,-1.9763,-1.9681,-1.9614,-1.9578,-1.9508,-1.9416,-1.9383,-1.9341,-1.9293,-1.9243,-1.9259,-1.9287,-1.9208,-1.9084,-1.8983,-1.8905,-1.8825,-1.8761,-1.8697,-1.8639,-1.8619,-1.88,-1.9255,-1.965,-2.0308,-2.1202,-2.1894,-2.2367,-2.3085,-2.3322,-2.337,-2.333,-2.3324,-2.3295,-2.3199,-2.3175,-2.3182,-2.3199,-2.3175,-2.3151,-2.3151,-2.3119,-2.3156,-2.3274,-2.3806,-2.4559,-2.5372,-2.5926,-2.6472,-2.6894,-2.6679,-2.65,-2.6588,-2.6613,-2.6886,-2.7185,-2.7374,-2.7384,-2.7404,-2.7434,-2.7481,-2.7511,-2.7539,-2.7542,-2.7526,-2.7452,-2.736,-2.7407,-2.7481,-2.7434,-2.7421,-2.739,-2.7376,-2.736,-2.7346,-2.733,-2.733,-2.7315,-2.7315,-2.7315,-2.7315,-2.7315,-2.7315,-2.7315,-2.7315,-2.7315,-2.7315,-1.8793,-1.8973,-1.9065,-1.9507,-2.0019,-1.9517,-1.9149,-1.8821,-1.7761,-1.7408,-1.7604,-1.7263,-1.7304,-1.7986,-1.8057,-1.7855,-1.76,-1.7613,-1.778,-1.7946,-1.7924,-1.7992,-1.8166,-1.8454,-1.8597,-1.8805,-1.9068,-1.9303,-1.9375,-1.9562,-1.9663,-1.9512,-1.9592,-1.9504,-1.9383,-1.9368,-1.936,-1.9311,-1.9337,-1.9383,-1.9334,-1.928,-1.9287,-1.919,-1.9101,-1.8973,-1.8869,-1.8797,-1.8688,-1.8656,-1.8749,-1.9155,-1.9805,-2.0705,-2.1472,-2.2243,-2.2991,-2.3444,-2.3523,-2.3544,-2.3547,-2.3513,-2.3468,-2.3491,-2.3513,-2.3547,-2.3513,-2.3445,-2.3388,-2.3259,-2.3235,-2.3217,-2.3612,-2.4765,-2.5713,-2.5812,-2.6069,-2.6007,-2.5791,-2.595,-2.618,-2.6335,-2.662,-2.7011,-2.7497,-2.7507,-2.7478,-2.7509,-2.76,-2.7627,-2.7654,-2.7689,-2.7674,-2.7569,-2.7496,-2.7513,-2.7557,-2.7511,-2.7465,-2.7452,-2.7421,-2.7407,-2.7392,-2.7376,-2.7346,-2.7315,-2.7315,-2.7315,-2.7315,-2.7315,-2.7315,-2.7315,-2.7315,-2.7315,-2.7315]},{"header":{"parameterUnit":"m.s-1","parameterCategory":1,"la1":31.0,"la2":29.5877,"lo1":-88.7671,"lo2":-86.6584,"dy":0.0162,"dx":0.0185,"nx":115,"ny":88,"refTime":"2023-09-10T18:00:00:Z","depth":0,"parameterNumber":3,"parameterNumberName":"V-component_of_WINDS"},"data":[0.0,0.0,0.0,0.0,0.0,0.0,0.0,0.0,0.0,0.0,0.0,0.0,0.0,0.0,0.0,0.0,0.0,0.0,0.0,0.0,0.0,0.0,0.0,0.0,0.0,0.0,0.0,0.0,0.0,0.0,0.0,0.0,0.0,0.0,0.0,0.0,0.0,0.0,0.0,0.0,0.0,0.0,0.0,0.0,0.0,0.0,0.0,0.0,0.0,0.0,0.0,0.0,0.0,0.0,0.0,0.0,0.0,0.0,0.0,0.0,0.0,0.0,0.0,0.0,0.0,0.0,0.0,0.0,0.0,0.0,0.0,0.0,0.0,0.0,0.0,0.0,0.0,0.0,0.0,0.0,0.0,0.0,0.0,0.0,0.0,0.0,0.0,0.0,0.0,0.0,0.0,0.0,0.0,0.0,0.0,0.0,0.0,0.0,0.0,0.0,0.0,0.0,0.0,0.0,0.0,0.0,0.0,0.0,0.0,0.0,0.0,0.0,0.0,0.0,0.0,0.0,0.0,0.0,0.0,0.0,0.0,0.0,0.0,0.0,0.0,0.0,0.0,0.0,0.0,0.0,0.0,0.0,0.0,0.0,0.0,0.0,0.0,0.0,0.0,0.0,0.0,0.0,0.0,0.0,0.0,0.0,0.0,0.0,0.0,0.0,0.0,0.0,0.0,0.0,0.0,0.0,0.0,0.0,0.0,0.0,0.0,0.0,0.0,0.0,0.0,0.0,0.0,0.0,0.0,0.0,0.0,0.0,0.0,0.0,0.0,0.0,0.0,0.0,0.0,0.0,0.0,0.0,0.0,0.0,0.0,0.0,0.0,0.0,0.0,0.0,0.0,0.0,0.0,0.0,0.0,0.0,0.0,0.0,0.0,0.0,0.0,0.0,0.0,0.0,0.0,0.0,0.0,0.0,0.0,0.0,0.0,0.0,0.0,0.0,0.0,0.0,0.0,0.0,0.0,0.0,0.0,0.0,0.0,0.0,0.0,0.0,0.0,0.0,0.0,0.0,0.0,0.0,0.0,0.0,0.0,0.0,0.0,0.0,0.0,0.0,0.0,0.0,0.0,0.0,0.0,0.0,0.0,0.0,0.0,0.0,0.0,0.0,0.0,0.0,0.0,0.0,0.0,0.0,0.0,0.0,0.0,0.0,0.0,0.0,0.0,0.0,0.0,0.0,0.0,0.0,0.0,0.0,0.0,0.0,0.0,0.0,0.0,0.0,0.0,0.0,0.0,0.0,0.0,0.0,0.0,0.0,0.0,0.0,0.0,0.0,0.0,0.0,0.0,0.0,0.0,0.0,0.0,0.0,0.0,0.0,0.0,0.0,0.0,0.0,0.0,0.0,0.0,0.0,0.0,0.0,0.0,0.0,0.0,0.0,0.0,0.0,0.0,0.0,0.0,0.0,0.0,0.0,0.0,0.0,0.0,0.0,0.0,0.0,0.0,0.0,0.0,0.0,0.0,0.0,0.0,0.0,0.0,0.0,0.0,0.0,0.0,0.0,0.0,0.0,0.0,0.0,0.0,0.0,0.0,0.0,0.0,0.0,0.0,0.0,0.0,0.0,0.0,0.0,0.0,0.0,0.0,0.0,0.0,0.0,0.0,0.0,0.0,0.0,0.0,0.0,0.0,0.0,0.0,0.0,0.0,0.0,0.0,0.0,0.0,0.0,0.0,0.0,0.0,0.0,0.0,0.0,0.0,0.0,0.0,0.0,0.0,0.0,0.0,0.0,0.0,0.0,0.0,0.0,0.0,0.0,0.0,0.0,0.0,0.0,0.0,0.0,0.0,0.0,0.0,0.0,0.0,0.0,0.0,0.0,0.0,0.0,0.0,0.0,0.0,0.0,0.0,0.0,0.0,0.0,0.0,0.0,0.0,0.0,0.0,0.0,0.0,0.0,0.0,0.0,0.0,0.0,0.0,0.0,0.0,0.0,0.0,0.0,0.0,0.0,0.0,0.0,0.0,0.0,0.0,0.0,0.0,0.0,0.0,0.0,0.0,0.0,0.0,0.0,0.0,0.0,0.0,0.0,0.0,0.0,0.0,0.0,0.0,0.0,0.0,0.0,0.0,0.0,0.0,0.0,0.0,0.0,0.0,0.0,0.0,0.0,0.0,0.0,0.0,0.0,0.0,0.0,0.0,0.0,0.0,0.0,0.0,0.0,0.0,0.0,0.0,0.0,0.0,0.0,0.0,0.0,0.0,0.0,0.0,0.0,0.0,0.0,0.0,0.0,0.0,0.0,0.0,0.0,0.0,0.0,0.0,0.0,0.0,0.0,0.0,0.0,0.0,0.0,0.0,0.0,0.0,0.0,0.0,0.0,0.0,0.0,0.0,0.0,0.0,0.0,0.0,0.0,0.0,0.0,0.0,0.0,0.0,0.0,0.0,0.0,0.0,0.0,0.0,0.0,0.0,0.0,0.0,0.0,0.0,0.0,0.0,0.0,0.0,0.0,0.0,0.0,0.0,0.0,0.0,0.0,0.0,0.0,0.0,0.0,0.0,0.0,0.0,0.0,0.0,0.0,0.0,0.0,0.0,0.0,0.0,0.0,0.0,0.0,0.0,0.0,0.0,0.0,0.0,0.0,0.0,0.0,0.0,0.0,0.0,0.0,0.0,0.0,0.0,0.0,0.0,0.0,0.0,0.0,0.0,0.0,0.0,0.0,0.0,0.0,0.0,0.0,0.0,0.0,0.0,0.0,0.0,0.0,0.0,0.0,0.0,0.0,0.0,0.0,0.0,0.0,0.0,0.0,0.0,0.0,0.0,0.0,0.0,0.0,0.0,0.0,0.0,0.0,0.0,0.0,0.0,0.0,0.0,0.0,0.0,0.0,0.0,0.0,0.0,0.0,0.0,0.0,0.0,0.0,0.0,0.0,0.0,0.0,0.0,0.0,0.0,0.0,0.0,0.0,0.0,0.0,0.0,0.0,0.0,0.0,0.0,0.0,0.0,0.0,0.0,0.0,0.0,0.0,0.0,0.0,0.0,0.0,0.0,0.0,0.0,0.0,0.0,0.0,0.0,0.0,0.0,0.0,0.0,0.0,0.0,0.0,0.0,0.0,0.0,0.0,0.0,0.0,0.0,0.0,0.0,0.0,0.0,0.0,0.0,0.0,0.0,0.0,0.0,0.0,0.0,0.0,0.0,0.0,0.0,0.0,0.0,0.0,0.0,0.0,0.0,0.0,0.0,0.0,0.0,0.0,0.0,0.0,0.0,0.0,0.0,0.0,0.0,0.0,0.0,0.0,0.0,0.0,0.0,0.0,0.0,0.0,0.0,0.0,0.0,0.0,0.0,0.0,0.0,0.0,0.0,0.0,0.0,0.0,0.0,0.0,0.0,0.0,0.0,0.0,0.0,0.0,0.0,0.0,0.0,0.0,0.0,0.0,0.0,0.0,0.0,0.0,0.0,0.0,0.0,0.0,0.0,0.0,0.0,0.0,0.0,0.0,0.0,0.0,0.0,0.0,0.0,0.0,0.0,0.0,0.0,0.0,0.0,0.0,0.0,0.0,0.0,0.0,0.0,0.0,0.0,0.0,0.0,0.0,0.0,0.0,0.0,0.0,0.0,0.0,0.0,0.0,0.0,0.0,0.0,0.0,0.0,0.0,0.0,0.0,0.0,0.0,0.0,0.0,0.0,0.0,0.0,0.0,0.0,0.0,0.0,0.0,0.0,0.0,0.0,0.0,0.0,0.0,0.0,0.0,0.0,0.0,0.0,0.0,0.0,0.0,0.0,0.0,0.0,0.0,0.0,0.0,0.0,0.0,0.0,0.0,0.0,0.0,0.0,0.0,0.0,0.0,0.0,0.0,0.0,0.0,0.0,0.0,0.0,0.0,0.0,0.0,0.0,0.0,0.0,0.0,0.0,0.0,0.0,0.0,0.0,0.0,0.0,0.0,0.0,0.0,0.0,0.0,0.0,0.0,0.0,0.0,0.0,0.0,0.0,0.0,0.0,0.0,0.0,0.0,0.0,0.0,0.0,0.0,0.0,0.0,0.0,0.0,0.0,0.0,0.0,0.0,0.0,0.0,0.0,0.0,0.0,0.0,0.0,0.0,0.0,0.0,0.0,0.0,0.0,0.0,0.0,0.0,0.0,0.0,0.0,0.0,0.0,0.0,0.0,0.0,0.0,0.0,0.0,0.0,0.0,0.0,0.0,0.0,0.0,0.0,0.0,0.0,0.0,0.0,0.0,0.0,0.0,0.0,0.0,0.0,0.0,0.0,0.0,0.0,0.0,0.0,0.0,0.0,-1.096,0.0,0.0,0.0,0.0,0.0,0.0,0.0,0.0,0.0,0.0,0.0,0.0,0.0,0.0,0.0,0.0,0.0,0.0,0.0,0.0,0.0,0.0,0.0,0.0,0.0,0.0,0.0,0.0,0.0,0.0,0.0,0.0,0.0,0.0,0.0,0.0,0.0,0.0,0.0,0.0,0.0,0.0,0.0,0.0,0.0,0.0,0.0,0.0,0.0,0.0,0.0,0.0,0.0,0.0,0.0,0.0,0.0,0.0,0.0,0.0,0.0,0.0,0.0,0.0,0.0,0.0,0.0,0.0,0.0,0.0,0.0,0.0,0.0,0.0,0.0,0.0,0.0,0.0,0.0,0.0,0.0,0.0,0.0,0.0,0.0,0.0,0.0,0.0,0.0,0.0,0.0,0.0,0.0,0.0,0.0,0.0,0.0,0.0,0.0,0.0,0.0,0.0,0.0,0.0,0.0,0.0,0.0,0.0,0.0,0.0,-1.3521,-1.2843,-1.1982,-1.1312,-1.0848,0.0,0.0,0.0,0.0,0.0,0.0,0.0,0.0,0.0,0.0,0.0,0.0,0.0,0.0,0.0,0.0,0.0,0.0,0.0,0.0,0.0,0.0,0.0,0.0,0.0,0.0,0.0,0.0,0.0,0.0,0.0,0.0,0.0,0.0,0.0,0.0,0.0,0.0,0.0,0.0,0.0,0.0,0.0,0.0,0.0,0.0,0.0,0.0,0.0,0.0,0.0,0.0,0.0,0.0,0.0,0.0,0.0,0.0,0.0,0.0,0.0,0.0,0.0,0.0,0.0,0.0,0.0,0.0,0.0,0.0,0.0,0.0,0.0,0.0,0.0,0.0,0.0,0.0,0.0,0.0,0.0,0.0,0.0,0.0,0.0,0.0,0.0,0.0,0.0,0.0,0.0,0.0,0.0,0.0,0.0,0.0,0.0,0.0,0.0,0.0,0.0,0.0,0.0,0.0,0.0,0.0,0.0,0.0,0.0,0.0,0.0,0.0,-1.1678,-1.1057,-1.0714,0.0,0.0,0.0,0.0,0.0,0.0,0.0,0.0,0.0,0.0,0.0,0.0,0.0,0.0,0.0,0.0,0.0,0.0,0.0,0.0,0.0,0.0,0.0,0.0,0.0,0.0,0.0,0.0,0.0,0.0,0.0,0.0,0.0,0.0,0.0,0.0,0.0,0.0,0.0,0.0,0.0,0.0,0.0,0.0,0.0,0.0,0.0,0.0,0.0,0.0,0.0,0.0,0.0,0.0,0.0,0.0,0.0,0.0,0.0,0.0,0.0,0.0,0.0,0.0,0.0,0.0,0.0,0.0,0.0,0.0,0.0,0.0,0.0,0.0,0.0,0.0,0.0,0.0,0.0,0.0,0.0,0.0,0.0,0.0,0.0,0.0,0.0,0.0,0.0,0.0,0.0,0.0,0.0,0.0,0.0,0.0,0.0,0.0,0.0,0.0,0.0,0.0,0.0,0.0,0.0,0.0,0.0,0.0,0.0,0.0,-1.2998,-1.1998,-1.1465,0.0,-0.9971,0.0,0.0,0.0,0.0,0.0,0.0,0.0,0.0,0.0,0.0,0.0,0.0,0.0,0.0,0.0,0.0,0.0,0.0,0.0,0.0,0.0,0.0,0.0,0.0,0.0,0.0,0.0,0.0,0.0,0.0,0.0,0.0,0.0,0.0,0.0,0.0,0.0,0.0,0.0,0.0,0.0,0.0,0.0,0.0,0.0,0.0,0.0,0.0,0.0,0.0,0.0,0.0,0.0,0.0,0.0,0.0,0.0,0.0,0.0,0.0,0.0,0.0,0.0,0.0,0.0,0.0,0.0,0.0,0.0,0.0,0.0,0.0,0.0,0.0,0.0,0.0,0.0,0.0,0.0,0.0,0.0,0.0,0.0,0.0,0.0,0.0,0.0,0.0,0.0,0.0,0.0,0.0,0.0,0.0,0.0,0.0,0.0,0.0,0.0,0.0,0.0,0.0,0.0,0.0,0.0,0.0,0.0,0.0,0.0,0.0,-1.2466,-1.1579,-1.0772,-1.0174,0.0,0.0,0.0,0.0,0.0,0.0,0.0,0.0,0.0,0.0,0.0,0.0,0.0,0.0,0.0,0.0,0.0,0.0,0.0,0.0,0.0,0.0,0.0,0.0,0.0,0.0,0.0,0.0,0.0,0.0,0.0,0.0,0.0,0.0,0.0,0.0,0.0,0.0,0.0,0.0,0.0,0.0,0.0,0.0,0.0,0.0,0.0,0.0,0.0,0.0,0.0,0.0,0.0,0.0,0.0,0.0,0.0,0.0,0.0,0.0,0.0,0.0,0.0,0.0,0.0,0.0,0.0,0.0,0.0,0.0,0.0,0.0,0.0,0.0,0.0,0.0,0.0,0.0,0.0,0.0,0.0,0.0,0.0,0.0,0.0,0.0,0.0,0.0,0.0,0.0,0.0,0.0,0.0,0.0,0.0,0.0,0.0,0.0,0.0,0.0,0.0,0.0,0.0,0.0,0.0,0.0,0.0,0.0,0.0,0.0,-1.2484,-1.1836,-1.0981,-1.0312,-0.984,-0.9586,0.0,0.0,0.0,0.0,0.0,0.0,0.0,0.0,0.0,0.0,0.0,0.0,0.0,0.0,0.0,0.0,0.0,0.0,0.0,0.0,0.0,0.0,0.0,0.0,0.0,0.0,0.0,0.0,0.0,0.0,0.0,0.0,0.0,0.0,0.0,0.0,0.0,0.0,0.0,0.0,0.0,0.0,0.0,0.0,0.0,0.0,0.0,0.0,0.0,0.0,0.0,0.0,0.0,0.0,0.0,0.0,0.0,0.0,0.0,0.0,0.0,0.0,0.0,0.0,0.0,0.0,0.0,0.0,0.0,0.0,0.0,0.0,0.0,0.0,0.0,0.0,0.0,0.0,0.0,0.0,0.0,0.0,0.0,0.0,0.0,0.0,0.0,0.0,0.0,0.0,0.0,0.0,0.0,0.0,0.0,0.0,0.0,0.0,0.0,0.0,0.0,0.0,0.0,0.0,0.0,0.0,0.0,0.0,-1.215,-1.1756,-1.1094,-1.0225,-1.0216,-0.9976,0.0,0.0,0.0,0.0,0.0,0.0,0.0,0.0,0.0,0.0,0.0,0.0,0.0,0.0,0.0,0.0,0.0,0.0,0.0,0.0,0.0,0.0,0.0,0.0,0.0,0.0,0.0,0.0,0.0,0.0,0.0,0.0,0.0,0.0,0.0,0.0,0.0,0.0,0.0,0.0,0.0,0.0,0.0,0.0,0.0,0.0,0.0,0.0,0.0,0.0,0.0,0.0,0.0,0.0,0.0,0.0,0.0,0.0,0.0,0.0,0.0,0.0,0.0,0.0,0.0,0.0,0.0,0.0,0.0,0.0,0.0,0.0,0.0,0.0,0.0,0.0,0.0,0.0,0.0,0.0,0.0,0.0,0.0,0.0,0.0,0.0,0.0,0.0,0.0,0.0,0.0,0.0,0.0,0.0,0.0,0.0,0.0,0.0,0.0,0.0,0.0,0.0,0.0,0.0,0.0,0.0,0.0,0.0,0.0,-1.2012,-1.1214,-1.0795,-1.0728,-1.021,-0.9967,0.0,0.0,0.0,0.0,0.0,0.0,0.0,0.0,0.0,0.0,0.0,0.0,0.0,0.0,0.0,0.0,0.0,0.0,0.0,0.0,0.0,0.0,0.0,0.0,0.0,0.0,0.0,0.0,0.0,0.0,0.0,0.0,0.0,0.0,0.0,0.0,0.0,0.0,0.0,0.0,0.0,0.0,0.0,0.0,0.0,0.0,0.0,0.0,0.0,0.0,0.0,0.0,0.0,0.0,0.0,0.0,0.0,0.0,0.0,0.0,0.0,0.0,0.0,0.0,0.0,0.0,0.0,0.0,0.0,0.0,0.0,0.0,0.0,0.0,0.0,0.0,0.0,0.0,0.0,0.0,0.0,0.0,0.0,0.0,0.0,0.0,0.0,0.0,0.0,0.0,0.0,0.0,0.0,0.0,0.0,0.0,0.0,0.0,0.0,0.0,0.0,0.0,0.0,0.0,0.0,0.0,0.0,0.0,0.0,-1.1962,0.0,-1.0935,-1.1195,-1.0576,-1.0356,0.0,0.0,0.0,0.0,0.0,0.0,0.0,0.0,0.0,0.0,0.0,0.0,0.0,0.0,0.0,0.0,0.0,0.0,0.0,0.0,0.0,0.0,0.0,0.0,0.0,0.0,0.0,0.0,0.0,0.0,0.0,0.0,0.0,0.0,0.0,0.0,0.0,0.0,0.0,0.0,0.0,0.0,0.0,0.0,0.0,0.0,0.0,0.0,0.0,0.0,0.0,0.0,0.0,0.0,0.0,0.0,0.0,0.0,0.0,0.0,0.0,0.0,0.0,0.0,0.0,0.0,0.0,0.0,0.0,0.0,0.0,0.0,0.0,0.0,0.0,0.0,0.0,0.0,0.0,0.0,0.0,0.0,0.0,0.0,0.0,0.0,0.0,0.0,0.0,0.0,0.0,0.0,0.0,0.0,0.0,0.0,0.0,0.0,0.0,0.0,0.0,0.0,0.0,0.0,0.0,0.0,0.0,0.0,-1.2584,-1.1912,-1.1695,-1.1562,-1.1526,-1.1346,-1.1133,0.0,0.0,0.0,0.0,0.0,0.0,0.0,0.0,0.0,0.0,0.0,0.0,0.0,0.0,0.0,0.0,0.0,0.0,0.0,0.0,0.0,0.0,0.0,0.0,0.0,0.0,0.0,0.0,0.0,0.0,0.0,0.0,0.0,0.0,0.0,0.0,0.0,0.0,0.0,0.0,0.0,0.0,0.0,0.0,0.0,0.0,0.0,0.0,0.0,0.0,0.0,0.0,0.0,0.0,0.0,0.0,0.0,0.0,0.0,0.0,0.0,0.0,0.0,0.0,0.0,0.0,0.0,0.0,0.0,0.0,0.0,0.0,0.0,0.0,0.0,0.0,0.0,0.0,0.0,0.0,0.0,0.0,0.0,0.0,0.0,0.0,0.0,0.0,0.0,0.0,0.0,0.0,0.0,0.0,0.0,0.0,0.0,0.0,0.0,0.0,0.0,0.0,0.0,0.0,0.0,0.0,0.0,0.0,0.0,-1.1725,-1.198,-1.2138,-1.2105,-1.149,-1.1349,0.0,0.0,0.0,0.0,0.0,0.0,0.0,0.0,0.0,0.0,0.0,0.0,0.0,0.0,0.0,0.0,0.0,0.0,0.0,0.0,0.0,0.0,0.0,0.0,0.0,0.0,0.0,0.0,0.0,0.0,0.0,0.0,0.0,0.0,0.0,0.0,0.0,0.0,0.0,0.0,0.0,0.0,0.0,0.0,0.0,0.0,0.0,0.0,0.0,0.0,0.0,0.0,0.0,0.0,0.0,0.0,0.0,0.0,0.0,0.0,0.0,0.0,0.0,0.0,0.0,0.0,0.0,0.0,0.0,0.0,0.0,0.0,0.0,0.0,0.0,0.0,0.0,0.0,0.0,0.0,0.0,0.0,0.0,0.0,0.0,0.0,0.0,0.0,0.0,0.0,0.0,0.0,0.0,0.0,0.0,0.0,0.0,0.0,0.0,0.0,0.0,0.0,0.0,0.0,0.0,0.0,0.0,0.0,0.0,-1.315,-1.3452,-1.3651,-1.36,-1.2964,-1.2509,-1.2296,0.0,0.0,0.0,0.0,0.0,0.0,0.0,0.0,0.0,0.0,0.0,0.0,0.0,0.0,0.0,0.0,0.0,0.0,0.0,0.0,0.0,0.0,0.0,0.0,0.0,0.0,0.0,0.0,0.0,0.0,0.0,0.0,0.0,0.0,0.0,0.0,0.0,0.0,0.0,0.0,0.0,0.0,0.0,0.0,0.0,0.0,0.0,0.0,0.0,0.0,0.0,0.0,0.0,0.0,0.0,0.0,0.0,0.0,0.0,0.0,0.0,0.0,0.0,0.0,0.0,0.0,0.0,0.0,0.0,0.0,0.0,0.0,0.0,0.0,0.0,0.0,0.0,0.0,0.0,0.0,0.0,0.0,0.0,0.0,0.0,0.0,0.0,0.0,0.0,0.0,0.0,0.0,0.0,0.0,0.0,0.0,0.0,0.0,0.0,0.0,0.0,0.0,0.0,0.0,0.0,0.0,0.0,0.0,-1.582,-1.6037,-1.6008,-1.5673,-1.5359,-1.4404,0.0,0.0,0.0,0.0,0.0,0.0,0.0,0.0,0.0,0.0,0.0,0.0,0.0,0.0,0.0,0.0,0.0,0.0,0.0,0.0,0.0,0.0,0.0,0.0,0.0,0.0,0.0,0.0,0.0,0.0,0.0,0.0,0.0,0.0,0.0,0.0,0.0,0.0,0.0,0.0,0.0,0.0,0.0,0.0,0.0,0.0,0.0,0.0,0.0,0.0,0.0,0.0,0.0,0.0,0.0,0.0,0.0,0.0,0.0,0.0,0.0,0.0,0.0,0.0,0.0,0.0,0.0,0.0,0.0,0.0,0.0,0.0,0.0,0.0,0.0,0.0,0.0,0.0,0.0,0.0,0.0,0.0,0.0,0.0,0.0,0.0,0.0,0.0,0.0,0.0,0.0,0.0,0.0,0.0,0.0,0.0,0.0,0.0,0.0,0.0,0.0,0.0,0.0,0.0,0.0,0.0,0.0,0.0,0.0,-1.8426,-1.9747,-1.939,-1.7169,-1.611,-1.5106,0.0,0.0,0.0,0.0,0.0,0.0,0.0,0.0,0.0,0.0,0.0,0.0,0.0,0.0,0.0,0.0,0.0,0.0,0.0,0.0,0.0,0.0,0.0,0.0,0.0,0.0,0.0,0.0,0.0,0.0,0.0,0.0,0.0,0.0,0.0,0.0,0.0,0.0,0.0,0.0,0.0,0.0,0.0,0.0,0.0,0.0,0.0,0.0,0.0,0.0,0.0,0.0,0.0,0.0,0.0,0.0,0.0,0.0,0.0,0.0,0.0,0.0,0.0,0.0,0.0,0.0,0.0,0.0,0.0,0.0,0.0,0.0,0.0,0.0,0.0,0.0,0.0,0.0,0.0,0.0,0.0,0.0,0.0,0.0,0.0,0.0,0.0,0.0,0.0,0.0,0.0,0.0,0.0,0.0,0.0,0.0,0.0,0.0,0.0,0.0,0.0,0.0,0.0,0.0,0.0,0.0,0.0,0.0,-1.9299,-1.9726,-2.2328,-2.2779,-2.0819,-1.8243,-1.6322,0.0,0.0,0.0,0.0,0.0,0.0,0.0,0.0,0.0,0.0,0.0,0.0,0.0,0.0,0.0,0.0,0.0,0.0,0.0,0.0,0.0,0.0,0.0,0.0,0.0,0.0,0.0,0.0,0.0,0.0,0.0,0.0,0.0,0.0,0.0,0.0,0.0,0.0,0.0,0.0,0.0,0.0,0.0,0.0,0.0,0.0,0.0,0.0,0.0,0.0,0.0,0.0,0.0,0.0,0.0,0.0,0.0,0.0,0.0,0.0,0.0,0.0,0.0,0.0,0.0,0.0,0.0,0.0,0.0,0.0,0.0,0.0,0.0,0.0,0.0,0.0,0.0,0.0,0.0,0.0,0.0,0.0,0.0,0.0,0.0,0.0,0.0,0.0,0.0,0.0,0.0,0.0,0.0,0.0,0.0,0.0,0.0,0.0,0.0,0.0,0.0,0.0,0.0,0.0,0.0,0.0,0.0,0.0,-2.0746,-2.0533,-2.404,-2.5711,-2.5099,-2.0855,-1.7812,0.0,0.0,0.0,0.0,0.0,0.0,0.0,0.0,0.0,0.0,0.0,0.0,0.0,0.0,0.0,0.0,0.0,0.0,0.0,0.0,0.0,0.0,0.0,0.0,0.0,0.0,0.0,0.0,0.0,0.0,0.0,0.0,0.0,0.0,0.0,0.0,0.0,0.0,0.0,0.0,0.0,0.0,0.0,0.0,0.0,0.0,0.0,0.0,0.0,0.0,0.0,0.0,0.0,0.0,0.0,0.0,0.0,0.0,0.0,0.0,0.0,0.0,0.0,0.0,0.0,0.0,0.0,0.0,0.0,0.0,0.0,0.0,0.0,0.0,0.0,0.0,0.0,0.0,0.0,0.0,0.0,0.0,0.0,0.0,0.0,0.0,0.0,0.0,0.0,0.0,0.0,0.0,0.0,0.0,0.0,0.0,0.0,0.0,0.0,0.0,0.0,0.0,0.0,0.0,0.0,0.0,0.0,0.0,-2.1927,-2.2926,-2.5135,-2.599,-2.5346,-2.1328,-1.8828,0.0,0.0,0.0,0.0,0.0,0.0,0.0,0.0,0.0,0.0,0.0,0.0,0.0,0.0,0.0,0.0,0.0,0.0,0.0,0.0,0.0,0.0,0.0,0.0,0.0,0.0,0.0,0.0,0.0,0.0,0.0,0.0,0.0,0.0,0.0,0.0,0.0,0.0,0.0,0.0,0.0,0.0,0.0,0.0,0.0,0.0,0.0,0.0,-0.9683,0.0,0.0,0.0,0.0,0.0,0.0,0.0,0.0,0.0,0.0,0.0,0.0,0.0,0.0,0.0,0.0,0.0,0.0,0.0,0.0,0.0,0.0,0.0,0.0,0.0,0.0,0.0,0.0,0.0,0.0,0.0,0.0,0.0,0.0,0.0,0.0,0.0,0.0,0.0,0.0,0.0,0.0,0.0,0.0,0.0,0.0,0.0,0.0,0.0,0.0,0.0,0.0,0.0,0.0,0.0,0.0,0.0,0.0,0.0,-2.2051,-2.3785,-2.5487,-2.6229,-2.5842,-2.2324,-1.9917,0.0,0.0,0.0,0.0,0.0,0.0,0.0,0.0,0.0,0.0,0.0,0.0,0.0,0.0,0.0,0.0,0.0,0.0,0.0,0.0,0.0,0.0,0.0,0.0,0.0,0.0,0.0,0.0,0.0,0.0,0.0,0.0,0.0,0.0,0.0,0.0,0.0,0.0,0.0,0.0,0.0,0.0,0.0,0.0,0.0,0.0,0.0,0.0,0.0,0.0,0.0,0.0,0.0,0.0,0.0,0.0,0.0,0.0,0.0,0.0,0.0,0.0,0.0,0.0,0.0,0.0,0.0,0.0,0.0,0.0,0.0,0.0,0.0,0.0,0.0,0.0,0.0,0.0,0.0,0.0,0.0,0.0,0.0,0.0,0.0,0.0,0.0,0.0,0.0,0.0,0.0,0.0,0.0,0.0,0.0,0.0,0.0,0.0,0.0,0.0,0.0,0.0,0.0,0.0,0.0,0.0,0.0,-1.9831,-2.1926,-2.4265,-2.5648,-2.6377,-2.6481,-2.3317,-2.0939,-1.9498,0.0,0.0,0.0,0.0,0.0,0.0,0.0,0.0,0.0,0.0,0.0,0.0,0.0,0.0,0.0,0.0,0.0,0.0,0.0,0.0,0.0,0.0,0.0,0.0,0.0,0.0,0.0,0.0,0.0,0.0,0.0,0.0,0.0,0.0,0.0,0.0,0.0,0.0,-0.9043,-0.9607,0.0,0.0,0.0,0.0,0.0,0.0,0.0,0.0,-1.1027,0.0,0.0,0.0,0.0,0.0,0.0,0.0,0.0,0.0,0.0,0.0,0.0,0.0,0.0,0.0,0.0,0.0,0.0,0.0,0.0,0.0,0.0,0.0,0.0,0.0,0.0,0.0,0.0,0.0,0.0,0.0,0.0,0.0,0.0,0.0,0.0,0.0,0.0,0.0,0.0,0.0,0.0,0.0,0.0,0.0,0.0,0.0,0.0,0.0,0.0,0.0,0.0,0.0,0.0,0.0,0.0,-2.0252,-2.0614,-2.2499,-2.6124,-2.6311,-2.6311,-2.6129,-2.3399,-2.1143,-1.9521,0.0,0.0,0.0,0.0,0.0,0.0,0.0,0.0,0.0,0.0,0.0,0.0,0.0,0.0,0.0,0.0,0.0,0.0,0.0,0.0,0.0,0.0,0.0,0.0,0.0,0.0,0.0,0.0,0.0,0.0,0.0,0.0,0.0,0.0,0.0,0.0,0.0,0.0,0.0,-1.086,-1.1308,0.0,0.0,0.0,0.0,0.0,0.0,0.0,0.0,-1.1827,0.0,0.0,0.0,0.0,0.0,0.0,0.0,0.0,0.0,0.0,0.0,0.0,0.0,0.0,0.0,0.0,0.0,0.0,0.0,0.0,0.0,0.0,0.0,0.0,0.0,0.0,0.0,0.0,0.0,0.0,0.0,0.0,0.0,0.0,0.0,0.0,0.0,0.0,0.0,0.0,0.0,0.0,0.0,0.0,0.0,0.0,0.0,0.0,0.0,0.0,0.0,0.0,0.0,0.0,0.0,-2.0534,-2.1319,-2.3192,-2.6299,-2.603,-2.5636,-2.5146,-2.2681,-2.0405,0.0,0.0,0.0,0.0,0.0,0.0,0.0,0.0,0.0,0.0,0.0,0.0,0.0,0.0,0.0,0.0,0.0,0.0,0.0,0.0,0.0,0.0,0.0,0.0,0.0,0.0,0.0,0.0,0.0,0.0,0.0,0.0,0.0,0.0,0.0,0.0,0.0,0.0,0.0,0.0,-1.1736,-1.2222,-1.2217,0.0,0.0,0.0,0.0,0.0,0.0,-1.307,-1.2661,0.0,0.0,0.0,0.0,0.0,0.0,0.0,0.0,0.0,0.0,0.0,0.0,0.0,0.0,0.0,0.0,0.0,0.0,0.0,0.0,0.0,0.0,0.0,0.0,0.0,0.0,0.0,0.0,0.0,0.0,0.0,0.0,0.0,0.0,0.0,0.0,0.0,0.0,0.0,0.0,0.0,0.0,0.0,0.0,0.0,0.0,0.0,0.0,0.0,0.0,0.0,0.0,0.0,0.0,0.0,-2.0621,-2.1921,-2.3742,-2.6077,-2.5676,-2.5071,-2.4393,-2.1906,-1.9605,0.0,0.0,0.0,0.0,0.0,0.0,0.0,0.0,0.0,0.0,0.0,0.0,0.0,0.0,0.0,0.0,0.0,0.0,0.0,0.0,0.0,0.0,0.0,0.0,0.0,0.0,0.0,0.0,0.0,0.0,0.0,0.0,0.0,0.0,0.0,0.0,0.0,0.0,0.0,0.0,0.0,-1.3272,-1.3122,-1.3486,0.0,0.0,0.0,0.0,-1.4066,-1.3941,0.0,0.0,0.0,0.0,0.0,0.0,0.0,0.0,0.0,0.0,0.0,0.0,0.0,0.0,0.0,0.0,0.0,0.0,0.0,0.0,0.0,0.0,0.0,0.0,0.0,0.0,0.0,0.0,0.0,0.0,0.0,0.0,0.0,0.0,0.0,0.0,0.0,0.0,0.0,0.0,0.0,0.0,0.0,0.0,0.0,0.0,0.0,0.0,0.0,0.0,0.0,0.0,0.0,0.0,0.0,0.0,-2.0945,-2.2177,-2.394,-2.6221,-2.5838,-2.534,-2.4794,-2.1739,-1.943,0.0,0.0,0.0,0.0,0.0,0.0,0.0,0.0,0.0,0.0,0.0,0.0,0.0,0.0,0.0,0.0,0.0,0.0,0.0,0.0,0.0,0.0,0.0,0.0,0.0,0.0,0.0,0.0,0.0,0.0,0.0,0.0,0.0,0.0,0.0,0.0,0.0,0.0,0.0,0.0,0.0,-1.4882,-1.4289,-1.5129,-1.5566,0.0,0.0,-1.5289,-1.5065,-1.5348,0.0,0.0,0.0,0.0,0.0,0.0,0.0,0.0,0.0,0.0,0.0,0.0,0.0,0.0,0.0,0.0,0.0,0.0,0.0,0.0,0.0,0.0,0.0,0.0,0.0,0.0,0.0,0.0,0.0,0.0,0.0,0.0,0.0,0.0,0.0,0.0,0.0,0.0,0.0,0.0,0.0,0.0,0.0,0.0,0.0,0.0,0.0,0.0,0.0,0.0,0.0,0.0,0.0,0.0,0.0,-1.8225,-2.032,-2.2351,-2.4059,-2.5402,-2.5144,-2.4697,-2.4116,-2.089,-1.8642,0.0,0.0,0.0,0.0,0.0,0.0,0.0,0.0,0.0,0.0,0.0,0.0,0.0,0.0,0.0,0.0,0.0,0.0,0.0,0.0,0.0,0.0,0.0,0.0,0.0,0.0,0.0,0.0,0.0,0.0,0.0,0.0,0.0,0.0,0.0,0.0,0.0,0.0,0.0,0.0,0.0,0.0,-1.5274,-1.6103,0.0,0.0,0.0,-1.6199,-1.5888,0.0,0.0,0.0,0.0,0.0,0.0,0.0,0.0,0.0,0.0,0.0,0.0,0.0,0.0,0.0,0.0,0.0,0.0,0.0,0.0,0.0,0.0,0.0,0.0,0.0,0.0,0.0,0.0,0.0,0.0,0.0,0.0,0.0,0.0,0.0,0.0,0.0,0.0,0.0,0.0,0.0,0.0,0.0,0.0,0.0,0.0,0.0,0.0,0.0,0.0,0.0,0.0,0.0,0.0,0.0,0.0,0.0,-2.011,-2.2728,-2.4386,-2.4898,-2.4633,-2.4159,-2.3401,-2.065,0.0,0.0,0.0,0.0,0.0,0.0,0.0,0.0,0.0,0.0,0.0,0.0,0.0,0.0,0.0,0.0,0.0,0.0,0.0,0.0,0.0,0.0,0.0,0.0,0.0,0.0,0.0,-0.9929,0.0,0.0,0.0,0.0,0.0,0.0,0.0,0.0,0.0,0.0,0.0,0.0,0.0,0.0,-1.6653,-1.635,-1.7097,-1.7513,0.0,0.0,-1.6991,-1.6415,-1.6478,-1.6146,0.0,0.0,0.0,0.0,0.0,0.0,0.0,0.0,0.0,0.0,0.0,0.0,0.0,0.0,0.0,0.0,0.0,0.0,0.0,0.0,0.0,0.0,0.0,0.0,0.0,0.0,0.0,0.0,0.0,0.0,0.0,0.0,0.0,0.0,0.0,0.0,0.0,0.0,0.0,0.0,0.0,0.0,0.0,0.0,0.0,0.0,0.0,0.0,0.0,0.0,0.0,0.0,0.0,0.0,0.0,-2.0877,-2.3563,-2.5071,-2.5237,-2.4763,-2.4082,-2.3211,-2.1801,-2.0003,0.0,0.0,0.0,0.0,0.0,0.0,0.0,0.0,0.0,0.0,0.0,0.0,0.0,0.0,0.0,0.0,0.0,0.0,0.0,0.0,0.0,0.0,0.0,0.0,0.0,0.0,0.0,0.0,0.0,0.0,0.0,0.0,0.0,0.0,0.0,0.0,0.0,0.0,0.0,0.0,0.0,-1.7981,-1.7774,-1.8444,-1.8822,0.0,0.0,-1.7647,-1.6558,-1.7374,-1.7349,-1.507,0.0,0.0,0.0,0.0,0.0,0.0,0.0,0.0,0.0,0.0,0.0,0.0,0.0,0.0,0.0,0.0,0.0,0.0,0.0,0.0,0.0,0.0,0.0,0.0,0.0,0.0,0.0,0.0,0.0,0.0,0.0,0.0,0.0,0.0,0.0,0.0,0.0,0.0,0.0,0.0,0.0,0.0,0.0,0.0,0.0,0.0,0.0,0.0,0.0,0.0,0.0,0.0,0.0,-1.9343,-1.9703,-2.2551,-2.4034,-2.3925,-2.3871,-2.3659,-2.3324,-2.1844,-2.0216,0.0,0.0,0.0,0.0,0.0,0.0,0.0,0.0,0.0,0.0,0.0,0.0,0.0,0.0,0.0,0.0,0.0,0.0,0.0,0.0,0.0,0.0,0.0,0.0,0.0,0.0,0.0,0.0,-1.0851,-1.1129,-1.1805,0.0,0.0,0.0,0.0,0.0,0.0,0.0,0.0,0.0,0.0,-1.8428,-1.8037,-1.8767,0.0,0.0,-1.8492,-1.8344,-1.7527,-1.7595,-1.7239,-1.5848,-1.5303,0.0,0.0,0.0,0.0,0.0,0.0,0.0,0.0,0.0,0.0,0.0,0.0,0.0,0.0,0.0,0.0,0.0,0.0,0.0,0.0,0.0,0.0,0.0,0.0,0.0,0.0,0.0,0.0,0.0,0.0,0.0,0.0,0.0,0.0,0.0,0.0,0.0,0.0,0.0,0.0,0.0,0.0,0.0,0.0,0.0,0.0,0.0,0.0,0.0,0.0,0.0,0.0,-1.9245,-1.9226,-2.2205,-2.3655,-2.3442,-2.3509,-2.3522,-2.3437,-2.2368,-2.1002,0.0,0.0,0.0,0.0,0.0,0.0,0.0,0.0,0.0,0.0,0.0,0.0,0.0,0.0,0.0,0.0,0.0,0.0,0.0,0.0,0.0,0.0,0.0,0.0,0.0,0.0,0.0,0.0,-1.1347,-1.1693,-1.2402,0.0,0.0,0.0,0.0,0.0,0.0,0.0,0.0,0.0,0.0,-1.8698,-1.836,-1.8958,-1.9187,-1.866,-1.8606,-1.8473,-1.7939,-1.7648,-1.7181,-1.634,0.0,0.0,0.0,0.0,0.0,0.0,0.0,0.0,0.0,0.0,0.0,0.0,0.0,0.0,0.0,0.0,0.0,0.0,0.0,0.0,0.0,0.0,0.0,0.0,0.0,0.0,0.0,0.0,0.0,0.0,0.0,0.0,0.0,0.0,0.0,0.0,0.0,0.0,0.0,0.0,0.0,0.0,0.0,0.0,0.0,0.0,0.0,0.0,0.0,0.0,0.0,0.0,0.0,-1.9876,-1.9939,-2.2926,-2.4465,-2.4263,-2.4011,-2.3789,-2.3599,-2.356,-2.2736,-2.1054,0.0,0.0,0.0,0.0,0.0,0.0,0.0,0.0,0.0,0.0,0.0,0.0,0.0,0.0,0.0,0.0,0.0,0.0,0.0,0.0,0.0,0.0,0.0,0.0,0.0,0.0,-1.0893,-1.1768,-1.2507,0.0,0.0,0.0,0.0,0.0,0.0,0.0,0.0,0.0,0.0,-1.8255,-1.8924,-1.8974,-1.9004,-1.9049,-1.9148,-1.8532,-1.7948,-1.7691,-1.7592,-1.7308,0.0,0.0,0.0,0.0,0.0,0.0,0.0,0.0,0.0,0.0,0.0,0.0,0.0,0.0,0.0,0.0,0.0,0.0,0.0,0.0,0.0,0.0,0.0,0.0,0.0,0.0,0.0,-1.4414,-1.4593,0.0,0.0,0.0,0.0,0.0,0.0,0.0,0.0,0.0,0.0,0.0,-1.5555,-1.6204,0.0,0.0,0.0,0.0,0.0,0.0,0.0,0.0,0.0,0.0,0.0,0.0,-1.9914,-1.9859,-2.2813,-2.429,-2.4041,-2.3806,-2.373,-2.3802,-2.3658,-2.2857,-2.1269,0.0,0.0,0.0,0.0,0.0,0.0,0.0,0.0,0.0,0.0,0.0,0.0,0.0,0.0,0.0,0.0,0.0,0.0,0.0,0.0,0.0,0.0,0.0,0.0,0.0,-1.1162,0.0,0.0,0.0,0.0,0.0,0.0,0.0,0.0,0.0,0.0,0.0,-1.6862,-1.817,-1.8715,-1.8894,-1.8674,-1.8918,-1.9147,0.0,0.0,0.0,0.0,0.0,0.0,0.0,0.0,0.0,0.0,0.0,0.0,0.0,0.0,-1.4899,-1.3295,-1.2987,-1.295,-1.295,0.0,0.0,0.0,0.0,0.0,0.0,0.0,0.0,0.0,0.0,0.0,0.0,0.0,0.0,0.0,0.0,-1.5433,0.0,0.0,0.0,0.0,0.0,0.0,0.0,0.0,-1.6863,-1.7441,-1.7626,-1.8399,-1.879,0.0,-1.883,-1.7593,0.0,0.0,0.0,0.0,0.0,0.0,0.0,0.0,-2.0066,-2.0071,-2.2877,-2.4319,-2.4128,-2.3907,-2.3835,-2.3949,-2.3628,-2.2858,-2.1624,-1.9797,-1.8345,0.0,0.0,0.0,0.0,0.0,0.0,0.0,0.0,0.0,0.0,0.0,0.0,0.0,0.0,0.0,0.0,0.0,0.0,0.0,0.0,0.0,0.0,0.0,-1.2163,0.0,0.0,0.0,0.0,0.0,0.0,0.0,0.0,0.0,-1.6763,-1.7157,-1.7755,-1.8762,-1.9161,-1.9121,-1.8508,0.0,0.0,0.0,0.0,0.0,0.0,0.0,-1.7496,-1.7471,-1.7106,-1.6831,-1.6843,-1.6908,-1.6992,-1.7086,0.0,0.0,-1.4697,-1.4334,-1.4257,-1.409,-1.3781,-1.3614,-1.396,-1.3765,-1.3599,0.0,0.0,0.0,0.0,0.0,0.0,0.0,0.0,-1.6466,-1.6401,0.0,-1.6379,0.0,0.0,0.0,0.0,0.0,0.0,0.0,0.0,-1.9862,-2.0652,-2.0301,-2.0449,-2.0663,-2.0851,-2.0409,-1.9912,-1.9373,-1.8363,0.0,0.0,0.0,0.0,0.0,0.0,-2.0282,-2.0734,-2.324,-2.4591,-2.4591,-2.4258,-2.4096,-2.4054,-2.345,-2.2797,-2.2126,-2.1044,-1.9762,-1.8255,-1.6601,0.0,0.0,0.0,0.0,0.0,0.0,0.0,0.0,0.0,0.0,0.0,0.0,0.0,0.0,0.0,0.0,0.0,0.0,0.0,0.0,-1.343,0.0,0.0,0.0,0.0,0.0,0.0,0.0,0.0,0.0,0.0,-1.7851,-1.8568,-1.9021,-1.9092,0.0,0.0,0.0,0.0,-1.8617,-1.8134,-1.8042,-1.8042,-1.8076,-1.8202,-1.8288,-1.8161,0.0,0.0,-1.7604,-1.7429,-1.7335,-1.718,-1.7523,-1.7472,-1.6356,-1.5713,-1.5303,-1.5021,-1.4429,-1.4235,-1.4946,-1.4659,-1.4355,-1.8515,0.0,0.0,0.0,0.0,-1.7031,-1.7422,-1.7884,-1.7912,-1.7693,-1.7328,-1.7371,0.0,0.0,0.0,0.0,0.0,0.0,-1.8473,-1.9619,-2.066,-2.1458,-2.2071,-2.2721,-2.3085,-2.3142,-2.2993,-2.2855,-2.267,-2.1723,-1.9908,-1.7252,0.0,0.0,0.0,0.0,-2.0946,-2.1992,-2.3563,-2.445,-2.4591,-2.4274,-2.3995,-2.3747,-2.3241,-2.2834,-2.2517,-2.1965,-2.0718,-1.8724,-1.7832,0.0,0.0,0.0,0.0,0.0,0.0,0.0,0.0,0.0,0.0,0.0,0.0,0.0,0.0,0.0,0.0,0.0,0.0,0.0,-1.37,-1.4245,-1.4504,0.0,0.0,0.0,0.0,0.0,0.0,0.0,0.0,0.0,-1.9575,-1.9415,-1.9177,0.0,0.0,-1.9085,-1.8424,-1.8583,-1.8774,-1.8764,0.0,0.0,0.0,-1.8875,-1.87,-1.88,-1.8955,-1.8788,-1.8068,-1.8207,-1.8333,-1.808,-1.8069,-1.7921,-1.7438,-1.6992,-1.6579,-1.6175,-1.5748,-1.5533,-1.5736,-1.5601,-1.5417,-2.0118,-1.9399,-1.892,-1.8496,-1.8218,-1.8382,-1.8641,-1.8986,-1.8975,-1.8747,-1.8368,-1.8334,-1.7707,-1.6703,-1.6772,0.0,0.0,0.0,-1.9988,-2.1456,-2.1772,-2.2382,-2.3257,-2.39,-2.4216,-2.429,-2.4344,-2.442,-2.4449,-2.3294,-2.1785,-1.9869,0.0,0.0,-1.9149,-2.0622,-2.1818,-2.2729,-2.376,-2.4363,-2.4463,-2.4099,-2.373,-2.333,-2.3,-2.2739,-2.2586,-2.234,-2.1264,-1.9258,-1.865,-1.7402,0.0,0.0,0.0,0.0,0.0,0.0,0.0,0.0,0.0,0.0,0.0,-1.2792,-1.2817,0.0,0.0,0.0,-1.4535,-1.4911,-1.4832,-1.5031,0.0,0.0,0.0,0.0,0.0,0.0,0.0,-1.7286,-1.7855,-1.8681,-1.9879,-2.0085,-2.0082,-1.9955,-2.003,-1.9786,-1.8934,0.0,-1.9264,-1.9131,-1.9098,-1.9198,-1.9419,-1.9198,-1.9031,-1.9187,-1.933,-1.9195,-1.8531,-1.8733,-1.8869,-1.8534,-1.8394,-1.8285,-1.794,-1.7677,-1.7313,-1.6789,-1.6485,-1.6314,-1.6285,-1.6124,-1.599,-2.1455,-2.1673,-2.0599,-2.0074,-1.999,-2.001,-1.9926,-1.9785,-1.9803,-1.9609,-1.9246,-1.9172,-1.8543,-1.7451,-1.7747,0.0,0.0,-2.0368,-2.1619,-2.3062,-2.3075,-2.3389,-2.3907,-2.4203,-2.4421,-2.4591,-2.4763,-2.4892,-2.4937,-2.3608,-2.3084,-2.3273,-2.1978,-2.1218,-2.1091,-2.1954,-2.2637,-2.3098,-2.3778,-2.4182,-2.4234,-2.3793,-2.336,-2.2909,-2.2739,-2.2574,-2.2317,-2.2218,-2.1348,-1.976,-1.9126,-1.8125,-1.6697,0.0,0.0,0.0,0.0,0.0,0.0,0.0,0.0,0.0,0.0,0.0,0.0,0.0,0.0,0.0,-1.565,0.0,-1.62,-1.5787,0.0,0.0,0.0,-1.6358,-1.6386,-1.7245,-1.7717,-1.7384,0.0,0.0,0.0,0.0,-2.1368,-2.1057,-2.1298,-2.1051,-1.9803,-1.9879,-1.9868,-1.9264,-1.9175,-1.9231,-1.9419,-1.9396,-1.9396,-1.9464,-1.9551,-1.9413,-1.8913,-1.8955,-1.893,-1.8369,-1.8447,-1.8436,-1.801,-1.7796,-1.7561,-1.6949,-1.6722,-1.6599,-1.657,-1.6353,-1.6142,-2.2459,-2.2238,-2.2247,-2.1684,-2.0853,-2.0984,-2.0867,-2.0626,-2.0782,-2.0347,-1.9531,-1.9767,-1.9402,-1.864,-1.9558,-2.0283,-2.0871,-2.2035,-2.2972,-2.3658,-2.38,-2.3923,-2.4054,-2.439,-2.4549,-2.462,-2.4948,-2.5118,-2.5118,-2.445,-2.3865,-2.344,-2.2671,-2.1956,-2.1342,-2.1534,-2.2071,-2.2876,-2.2844,-2.3151,-2.3721,-2.3407,-2.309,-2.2769,-2.2555,-2.2207,-2.1669,-2.1626,-2.0873,-1.9343,-1.8999,-1.8303,-1.7127,-1.5942,0.0,0.0,0.0,0.0,0.0,0.0,0.0,0.0,0.0,-1.4264,-1.3866,0.0,-1.5123,0.0,-1.6119,-1.6786,-1.6937,-1.6758,0.0,0.0,-1.687,-1.6972,-1.7324,-1.8238,-1.885,-1.8881,-2.0044,-2.0904,-2.1067,-2.1342,-2.1588,-2.1851,-2.1282,-2.0629,-2.0074,-2.0042,-2.0009,-1.9758,-1.9736,-1.9769,-1.99,-1.9911,-1.99,-1.9933,-1.9944,-1.9695,-1.8881,-1.8759,-1.8539,-1.7745,-1.7606,-1.7562,-1.7486,-1.7453,-1.7392,-1.7188,-1.6864,-1.6609,-1.6609,-1.6477,-1.6335,-2.2368,-2.2131,-2.2511,-2.1928,-2.0816,-2.1452,-2.1475,-2.1146,-2.1101,-2.0554,-1.972,-1.9698,-1.9526,-1.9438,-2.0588,-2.1345,-2.18,-2.3028,-2.3741,-2.3995,-2.4067,-2.4125,-2.4112,-2.4447,-2.4591,-2.4607,-2.4948,-2.5033,-2.4879,-2.4721,-2.4406,-2.3934,-2.3697,-2.3019,-2.1979,-2.1475,-2.1484,-2.1955,-2.2159,-2.2602,-2.3275,-2.312,-2.2694,-2.2049,-2.1674,-2.1242,-2.0659,-2.0315,-1.9651,-1.8536,-1.8267,-1.7717,-1.6788,-1.5764,-1.534,0.0,0.0,0.0,0.0,0.0,0.0,0.0,0.0,0.0,0.0,0.0,-1.6012,0.0,-1.6637,0.0,-1.7095,-1.6994,-1.705,-1.7368,-1.7684,-1.8019,-1.8504,-1.9359,-1.992,-2.003,-2.0754,-2.1355,-2.1544,-2.1716,-2.1889,-2.2154,-2.1612,-2.1083,-2.0848,-2.0752,-2.0592,-2.0377,-2.0291,-2.027,-2.0346,-2.0281,-2.0194,-2.0139,-2.0107,-1.9791,-1.8884,-1.8698,-1.8411,-1.7536,-1.7306,-1.7306,-1.7306,-1.7306,-1.7306,-1.725,-1.7032,-1.6768,-1.6694,-1.6545,-1.6402,-2.1738,-2.169,-2.1984,-2.1395,-2.0426,-2.1377,-2.1552,-2.1152,-2.0869,-2.0416,-1.9801,-1.9287,-1.9296,-1.9817,-2.1008,-2.181,-2.2363,-2.356,-2.4125,-2.4125,-2.4125,-2.4125,-2.4112,-2.4419,-2.4591,-2.462,-2.4835,-2.478,-2.4523,-2.465,-2.4525,-2.4202,-2.4401,-2.3769,-2.2347,-2.1434,-2.0929,-2.0852,-2.1621,-2.227,-2.2724,-2.2572,-2.2013,-2.1045,-2.0535,-2.0047,-1.9586,-1.8872,-1.8228,-1.7648,-1.7266,-1.6836,-1.641,-1.5493,-1.5278,0.0,-1.5318,0.0,0.0,0.0,0.0,0.0,0.0,0.0,0.0,-1.6667,-1.696,-1.6977,-1.7203,-1.7333,-1.7294,-1.7192,-1.7372,-1.7951,-1.8683,-1.9322,-1.9773,-2.0467,-2.0925,-2.0925,-2.1252,-2.1488,-2.156,-2.1921,-2.2197,-2.2185,-2.2049,-2.1894,-2.1819,-2.1526,-2.1178,-2.0935,-2.0786,-2.0637,-2.0604,-2.0486,-2.0356,-2.0182,-2.0118,-1.9769,-1.8757,-1.8657,-1.8381,-1.7547,-1.7306,-1.7306,-1.7306,-1.7306,-1.7306,-1.7306,-1.7145,-1.6927,-1.6807,-1.6591,-1.6431,-2.1628,-2.1439,-2.1189,-2.0853,-2.0431,-2.0115,-1.9978,-1.9942,-1.9987,-1.9805,-1.9448,-1.8918,-1.8981,-1.9546,-2.0785,-2.1713,-2.2376,-2.3548,-2.4125,-2.4125,-2.4125,-2.4125,-2.4112,-2.4447,-2.4591,-2.4591,-2.4593,-2.458,-2.4494,-2.4334,-2.3651,-2.2593,-2.2767,-2.2187,-2.0867,0.0,0.0,0.0,-2.1319,-2.1837,-2.1876,-2.0861,-2.0187,-1.9999,-1.9777,0.0,-1.8908,-1.8282,-1.77,-1.716,-1.661,0.0,0.0,0.0,0.0,0.0,0.0,0.0,0.0,0.0,0.0,0.0,-1.7337,-1.7342,-1.7032,-1.7451,-1.7835,-1.7922,-1.8083,-1.8357,-1.882,-1.9,-1.9195,-1.9554,-2.0121,-2.0613,-2.0819,-2.1329,-2.1631,-2.1484,-2.1819,-2.2042,-2.2048,-2.2137,-2.2247,-2.2309,-2.2328,-2.2359,-2.2451,-2.1757,-2.119,-2.0935,-2.0818,-2.0637,-2.0475,-2.041,-2.0378,-2.0378,-2.0237,-1.9651,-1.8605,-1.8553,-1.837,-1.7492,-1.7306,-1.7306,-1.7306,-1.7306,-1.7306,-1.7306,-1.7134,-1.6955,-1.6835,-1.6666,-1.6524,-2.0932,0.0,-2.0311,-1.9745,0.0,-1.8769,-1.8498,-1.8383,-1.905,-1.9137,-1.8854,-1.8601,-1.8977,-1.9844,-2.0795,-2.1749,-2.2723,-2.3677,-2.4125,-2.4125,-2.4125,-2.4125,-2.4112,-2.4347,-2.4434,-2.4361,-2.4392,-2.4279,-2.4073,-2.391,-2.3462,-2.274,-2.274,-2.2426,-2.1758,-2.1534,-2.1235,-2.0812,-2.13,-2.1715,-2.2013,-2.1386,-2.0794,-2.0321,0.0,0.0,0.0,0.0,0.0,0.0,0.0,0.0,0.0,0.0,0.0,-1.7674,-1.7373,-1.7338,-1.7802,-1.8137,-1.8332,-1.8488,-1.8955,-1.8958,-1.8201,-1.8849,-1.9298,-1.9368,-1.9396,-1.9407,-1.9527,-1.9571,-1.9602,-1.9633,-2.0456,-2.1043,-2.1243,-2.1897,-2.2337,-2.2272,-2.2347,-2.2408,-2.2216,-2.234,-2.2309,-2.2123,-2.234,-2.242,-2.213,-2.1913,-2.1706,-2.1348,-2.0914,-2.069,-2.0625,-2.0367,-2.0313,-2.0433,-2.0259,-1.9618,-1.8416,-1.8471,-1.8392,-1.7536,-1.7306,-1.7306,-1.7306,-1.7306,-1.7306,-1.7306,-1.7211,-1.705,-1.6874,-1.6694,-1.6552,-2.0069,-1.9699,-1.9309,-1.8567,-1.7638,-1.7613,-1.7422,-1.7216,0.0,0.0,0.0,-1.8372,-1.9062,-2.0252,-2.0754,-2.1753,-2.3113,-2.3747,-2.4024,-2.4112,-2.4125,-2.4125,-2.4125,-2.4173,-2.4173,-2.4125,-2.4131,-2.3969,-2.3586,-2.3526,-2.345,-2.3313,-2.3168,-2.3078,-2.3017,-2.2818,-2.2305,-2.1416,-2.1356,-2.1602,-2.2158,-2.1879,-2.1313,-2.0527,-1.9989,-1.9166,-1.8098,-1.7372,-1.684,-1.6487,-1.617,-1.6179,-1.6536,-1.6483,-1.6786,-1.7517,-1.7615,-1.7999,-1.89,-1.9081,-1.9366,-1.9923,-2.0603,-2.0535,-1.9542,-2.0268,-2.0793,-2.0735,-2.066,-2.0481,-2.0189,-2.0001,-1.9887,-1.9743,-2.0693,-2.1414,-2.1633,-2.2354,-2.2884,-2.2909,-2.283,-2.2629,-2.2352,-2.2537,-2.2537,-2.2123,-2.2352,-2.2389,-2.1788,-2.187,-2.1913,-2.1506,-2.1031,-2.0754,-2.0711,-2.0464,-2.0226,-2.0202,-2.0062,-1.9542,-1.8592,-1.8392,-1.8217,-1.7459,-1.7306,-1.7306,-1.7306,-1.7306,-1.7306,-1.7306,-1.7306,-1.7222,-1.6864,-1.6733,-1.6609,-1.9336,-1.9047,-1.8104,-1.7636,-1.7495,-1.7151,-1.7182,-1.7455,-1.7939,-1.8396,-1.8806,-1.8389,-1.9021,-2.0361,-2.0463,-2.1462,-2.3083,-2.3497,-2.3806,0.0,-2.4125,-2.4125,-2.4083,-2.394,-2.3953,-2.4054,-2.373,-2.3569,-2.3569,-2.3318,-2.3108,-2.3,-2.3047,-2.2987,-2.2769,-2.283,-2.261,-2.2077,-2.1385,-2.1152,-2.1356,-1.9842,-1.9028,-1.8954,-1.8193,-1.7622,-1.7422,-1.6716,-1.6278,-1.6321,-1.6166,-1.6449,-1.7206,-1.7587,-1.8209,-1.9014,-1.9181,-1.9362,-1.9643,-1.9669,-1.9946,-2.0566,-2.1493,-2.1699,-2.0941,-2.1313,-2.1513,-2.1336,-2.1378,-2.1455,-2.1467,-2.1219,-2.1197,-2.1677,-2.1972,-2.2314,-2.2702,-2.294,-2.3017,-2.2909,-2.2989,-2.2928,-2.2702,-2.272,-2.2763,-2.2678,-2.2359,-2.2297,-2.1987,-2.1675,-2.1316,-2.1063,-2.0935,-2.0786,-2.0561,-2.0432,-2.0138,-1.9614,-1.9572,-1.9246,-1.83,-1.8133,-1.7944,-1.7405,-1.7306,-1.7306,-1.7306,-1.7306,-1.7306,-1.7306,-1.7306,-1.7183,-1.6864,-1.6751,-1.6666,-1.8266,-1.787,-1.7322,-1.7072,-1.6985,-1.6763,-1.7039,-1.7576,-1.7385,-1.7626,-1.8208,-1.8554,-1.9177,-1.9915,-2.0446,-2.1434,-2.2744,-2.3138,-2.3509,-2.3806,-2.3658,-2.3658,-2.3806,-2.3556,-2.3437,-2.345,-2.33,-2.318,-2.312,-2.303,-2.2909,-2.28,-2.2744,-2.2635,-2.2463,-2.2494,-2.2402,-2.2185,-2.1902,-2.1565,-2.12,-2.037,-1.9732,-1.9269,-1.881,-1.8315,-1.7803,-1.7893,-1.7794,-1.7512,-1.7582,-1.7885,-1.8441,-1.8425,-1.8653,-1.9251,-1.942,-1.9539,-1.9682,-2.0073,-2.0541,-2.1106,-2.1857,-2.2289,-2.2197,-2.2404,-2.2452,-2.2332,-2.2314,-2.2251,-2.2084,-2.1865,-2.1749,-2.1857,-2.2121,-2.238,-2.2631,-2.2957,-2.3078,-2.3017,-2.3072,-2.3049,-2.2947,-2.294,-2.2665,-2.2211,-2.1745,-2.1517,-2.1588,-2.121,-2.0999,-2.1126,-2.0871,-2.0593,-2.0399,-2.0302,-2.0106,-1.9802,-1.9562,-1.9157,-1.849,-1.8206,-1.7813,-1.7426,-1.7306,-1.7306,-1.7306,-1.7306,-1.7306,-1.7306,-1.7306,-1.7166,-1.6902,-1.6705,-1.6545,-1.7282,-1.6819,-1.6757,-1.6647,-1.6611,-1.6551,-1.7013,-1.7692,-1.7111,-1.7216,-1.7885,-1.8518,-1.9069,-1.9633,-2.0301,-2.121,-2.2286,-2.2744,-2.3138,-2.345,-2.3228,-2.3228,-2.3437,-2.3138,-2.2957,-2.2909,-2.2927,-2.2848,-2.2751,-2.2787,-2.2769,-2.2586,-2.234,-2.2204,-2.2123,-2.2123,-2.2154,-2.2185,-2.2145,-2.1819,-2.1212,-2.1003,-2.0434,-1.9662,-1.9356,-1.8895,-1.8231,-1.8797,-1.8907,-1.8419,-1.8668,-1.896,-1.9171,-1.8876,-1.8866,-1.9223,-1.9342,-1.946,-1.968,-2.041,-2.1056,-2.1496,-2.2121,-2.2656,-2.3032,-2.297,-2.292,-2.2932,-2.275,-2.2563,-2.2138,-2.1856,-2.1743,-2.1694,-2.192,-2.2234,-2.2498,-2.2857,-2.3095,-2.3095,-2.3095,-2.3085,-2.3117,-2.311,-2.264,-2.1661,-2.0954,-2.0744,-2.0828,-2.0649,-2.066,-2.0912,-2.0711,-2.041,-2.0346,-2.0216,-2.0085,-1.9955,-1.9529,-1.9037,-1.8545,-1.8119,-1.7759,-1.7383,-1.7306,-1.7306,-1.7306,-1.7306,-1.7306,-1.7306,-1.7278,-1.7127,-1.6807,-1.6563,-1.6402,-1.6753,-1.6375,-1.6254,-1.6342,-1.6585,-1.6575,-1.7101,-1.7799,-1.7441,-1.7732,-1.8365,-1.7779,-1.8383,-1.9702,-1.9708,-2.0565,-2.2065,-2.2365,-2.2714,-2.3108,-2.3138,-2.3095,-2.3108,-2.2848,-2.28,-2.2818,-2.2592,-2.2555,-2.2629,-2.2678,-2.2525,-2.2259,-2.1917,-2.1843,-2.1906,-2.1925,-2.1987,-2.2185,-2.1613,-2.1278,-2.1146,-2.031,-1.9616,-1.9181,-1.8334,-1.7907,-1.7956,-1.8022,-1.8034,-1.8004,-1.8422,-1.8654,-1.8735,-1.8863,-1.9078,-1.9342,-1.9394,-1.9525,-1.9822,-2.0815,-2.1421,-2.1556,-2.241,-2.2957,-2.302,-2.2619,-2.2343,-2.233,-2.2343,-2.2117,-2.1619,-2.1192,-2.1305,-2.1995,-2.182,-2.1945,-2.2719,-2.307,-2.3095,-2.3095,-2.3075,-2.309,-2.3078,-2.303,-2.2547,-2.1523,-2.0808,-2.0415,-2.0341,-2.008,-2.0001,-2.0396,-2.0399,-2.0302,-2.0172,-2.0107,-1.9911,-1.954,-1.908,-1.8632,-1.8196,-1.7759,-1.7339,-1.7372,-1.7306,-1.7306,-1.7306,-1.7306,-1.7306,-1.7267,-1.7172,-1.6955,-1.6684,-1.6524,-1.642,-1.606,-1.5859,-1.6016,-1.6165,-1.6244,-1.626,-1.663,-1.7165,-1.6841,-1.7253,-1.805,-1.7442,-1.7901,-1.9205,-1.967,-2.0381,-2.1112,-2.172,-2.2173,-2.2512,-2.2451,-2.2439,-2.2488,-2.2316,-2.2216,-2.2185,-2.2111,-2.2123,-2.2092,-2.2092,-2.2042,-2.1917,-2.1761,-2.1718,-2.1769,-2.1381,-2.1228,-2.1266,-2.0591,-2.0064,-1.9732,-1.9396,-1.8925,-1.8316,-1.7912,-1.7755,-1.7943,-1.8347,-1.8658,-1.8793,-1.9113,-1.932,-1.932,-1.9114,-1.9119,-1.9394,-1.9539,-1.9682,-1.9785,-2.0578,-2.1031,-2.1031,-2.1707,-2.2159,-2.2159,-2.1945,-2.1707,-2.143,-2.1644,-2.1719,-2.1493,-2.128,-2.1383,-2.1719,-2.1619,-2.1681,-2.2083,-2.2142,-2.2367,-2.2942,-2.2812,-2.2769,-2.293,-2.2567,-2.198,-2.1253,-2.0626,-2.016,-2.0099,-2.0005,-1.9986,-2.0139,-2.0216,-2.0183,-2.0096,-1.9845,-1.9627,-1.9333,-1.8774,-1.8185,-1.8032,-1.7606,-1.7306,-1.7306,-1.7306,-1.7306,-1.7306,-1.7306,-1.7306,-1.7239,-1.7045,-1.6802,-1.6473,-1.6504,-1.6493,-1.5579,-1.5478,-1.5738,-1.5912,-1.6001,-1.5853,-1.6159,-1.6699,-1.6509,-1.694,-1.7769,-1.7427,-1.7642,-1.8431,-1.9275,-1.9814,-2.0179,-2.0981,-2.1549,-2.1827,-2.1822,-2.1894,-2.1975,-2.1894,-2.1781,-2.173,-2.1812,-2.1824,-2.1686,-2.1522,-2.1514,-2.1588,-2.1495,-2.1381,-2.1304,-2.0745,-2.0447,-2.0382,-1.9682,-1.9061,-1.8731,-1.8634,-1.8339,-1.7817,-1.7739,-1.781,-1.8057,-1.8638,-1.9041,-1.9215,-1.9467,-1.9564,-1.9579,-1.9218,-1.9131,-1.9394,-1.9656,-1.9798,-1.9811,-2.0365,-2.0665,-2.0715,-2.1152,-2.1437,-2.1356,-2.1244,-2.1009,-2.0788,-2.0986,-2.1162,-2.1029,-2.1029,-2.1079,-2.1217,-2.1295,-2.1333,-2.1481,-2.1481,-2.1879,-2.2604,-2.2522,-2.2498,-2.2792,-2.2079,-2.1144,-2.0819,-2.0101,-1.9581,-1.9581,-1.9516,-1.9549,-1.9682,-1.9704,-1.9824,-1.9966,-1.9736,-1.9484,-1.9191,-1.8676,-1.8065,-1.7977,-1.7612,-1.7306,-1.7306,-1.7306,-1.7306,-1.7306,-1.7306,-1.7278,-1.72,-1.7045,-1.6847,-1.6571,-1.6676,-1.6609,-1.5534,-1.5199,-1.5248,-1.5558,-1.6035,-1.5451,-1.5885,-1.6814,-1.6682,-1.7026,-1.7616,-1.7759,-1.7752,-1.7656,-1.8203,-1.8746,-1.9463,-2.0175,-2.066,-2.1,-2.1459,-2.1686,-2.1698,-2.1698,-2.171,-2.1667,-2.1667,-2.1667,-2.1643,-2.1193,-2.1108,-2.1373,-2.0935,-2.0599,-2.0438,-2.0072,-1.9877,-1.9649,-1.9028,-1.8629,-1.8487,-1.8125,-1.7954,-1.7909,-1.7783,-1.792,-1.8313,-1.853,-1.8699,-1.8819,-1.8979,-1.9074,-1.9062,-1.9037,-1.9119,-1.9394,-1.9668,-1.9798,-1.9861,-2.0327,-2.0588,-2.058,-2.0902,-2.1203,-2.0983,-2.057,-2.0326,-2.0476,-2.0476,-2.038,-1.9995,-2.0057,-2.0223,-2.06,-2.0702,-2.0901,-2.1368,-2.1249,-2.1625,-2.1997,-2.2131,-2.228,-2.2845,-2.1554,-2.0581,-2.0059,-1.9136,-1.8456,-1.8519,-1.8438,-1.8577,-1.8783,-1.8927,-1.908,-1.9813,-1.9486,-1.9299,-1.9069,-1.8447,-1.7955,-1.7824,-1.7689,-1.7459,-1.7306,-1.7306,-1.7306,-1.7306,-1.7278,-1.7211,-1.7172,-1.7222,-1.7041,-1.666,-1.6862,-1.6813,-1.4286,-1.4295,-1.4368,-1.4698,-1.5126,-1.4707,-1.4974,-1.569,-1.5638,-1.6055,-1.6759,-1.7153,-1.7498,-1.7764,-1.8057,-1.843,-1.8881,-1.9593,-2.0012,-2.0208,-2.0775,-2.1008,-2.0908,-2.128,-2.1454,-2.1391,-2.136,-2.1371,-2.1313,-2.0838,-2.0573,-2.0607,-2.045,-2.0118,-1.9625,-1.9073,-1.8796,-1.8693,-1.813,-1.7857,-1.798,-1.7845,-1.7893,-1.8205,-1.8166,-1.8247,-1.8506,-1.8652,-1.8786,-1.8919,-1.8999,-1.9013,-1.9013,-1.9146,-1.9289,-1.942,-1.9656,-1.9798,-1.9823,-1.9987,-2.0112,-2.0072,-2.0142,-2.0196,-2.0108,-1.9853,-1.9636,-1.9582,-1.9715,-1.9554,-1.9318,-1.9558,-1.9865,-1.9742,-1.965,-1.9736,-1.9939,-2.004,-2.035,-2.1094,-2.1465,-2.1489,-2.0967,-2.0256,-1.9725,-1.9415,-1.8885,-1.8541,-1.8503,-1.8514,-1.8495,-1.8641,-1.8709,-1.8838,-1.9069,-1.8807,-1.8469,-1.8327,-1.7966,-1.766,-1.7492,-1.7503,-1.7317,-1.7306,-1.7306,-1.7306,-1.7306,-1.7306,-1.7239,-1.7239,-1.7289,-1.7113,-1.6705,-1.6959,-1.6926,-1.3697,-1.3913,-1.397,-1.4337,-1.4773,-1.4381,-1.4528,-1.5101,-1.5216,-1.5468,-1.5948,-1.6648,-1.7185,-1.7501,-1.7817,-1.8078,-1.8315,-1.9025,-1.9349,-1.9365,-1.9953,-2.014,-2.0156,-2.0523,-2.0695,-2.0587,-2.0554,-2.0565,-2.0564,-2.0129,-1.992,-1.9863,-1.9769,-1.946,-1.8851,-1.8307,-1.8016,-1.7853,-1.7487,-1.7418,-1.7573,-1.7767,-1.7959,-1.822,-1.8464,-1.861,-1.8667,-1.8759,-1.8878,-1.896,-1.9013,-1.9013,-1.904,-1.921,-1.9354,-1.942,-1.9604,-1.9708,-1.9656,-1.9656,-1.9552,-1.941,-1.9265,-1.916,-1.9107,-1.9119,-1.9078,-1.909,-1.9419,-1.9456,-1.9172,-1.9459,-1.9567,-1.9122,-1.8922,-1.8907,-1.9001,-1.9013,-1.948,-2.0173,-2.0308,-2.0065,-1.9633,-1.9301,-1.8913,-1.8508,-1.8328,-1.8239,-1.8269,-1.8258,-1.8269,-1.8228,-1.8203,-1.8152,-1.8239,-1.801,-1.8075,-1.7977,-1.7759,-1.7448,-1.7306,-1.7306,-1.7306,-1.7306,-1.7306,-1.7306,-1.7306,-1.7306,-1.7306,-1.7306,-1.7306,-1.7174,-1.7054,-1.7092,-1.7054,-1.3751,-1.4055,-1.4123,-1.4356,-1.4833,-1.4413,-1.4681,-1.5256,-1.5528,-1.5396,-1.533,-1.64,-1.6938,-1.688,-1.7415,-1.7635,-1.7855,-1.8398,-1.8589,-1.8547,-1.9014,-1.9298,-1.9376,-1.9508,-1.9595,-1.956,-1.9252,-1.927,-1.9515,-1.9205,-1.9078,-1.9122,-1.8892,-1.8603,-1.8209,-1.7873,-1.759,-1.7395,-1.7328,-1.7306,-1.7362,-1.7794,-1.8002,-1.8018,-1.856,-1.8851,-1.8771,-1.8798,-1.8878,-1.8972,-1.8987,-1.9013,-1.9025,-1.917,-1.9275,-1.938,-1.9512,-1.9539,-1.942,-1.9291,-1.9054,-1.8842,-1.8521,-1.8425,-1.8464,-1.856,-1.8747,-1.894,-1.9509,-1.9856,-1.9409,-1.9287,-1.912,-1.872,-1.8587,-1.8587,-1.8614,-1.8625,-1.8802,-1.9202,-1.9046,-1.8836,-1.8914,-1.8628,-1.8105,-1.7676,-1.7481,-1.7503,-1.7536,-1.7547,-1.7394,-1.7394,-1.7547,-1.7667,-1.7492,-1.735,-1.7606,-1.7781,-1.7529,-1.7306,-1.7306,-1.7306,-1.7306,-1.7306,-1.7306,-1.7306,-1.7306,-1.7306,-1.7306,-1.7306,-1.7295,-1.7295,-1.7262,-1.723,-1.7251,-1.2249,-1.2248,-1.2358,-1.291,-1.3703,-1.3705,-1.4078,-1.4748,-1.5115,-1.5245,-1.5473,-1.6542,-1.707,-1.7197,-1.7653,-1.7761,-1.7593,-1.7698,-1.7682,-1.7724,-1.822,-1.8529,-1.8661,-1.904,-1.9268,-1.919,-1.8878,-1.8889,-1.9107,-1.8838,-1.8598,-1.8491,-1.8402,-1.8072,-1.7632,-1.7456,-1.7362,-1.7306,-1.7306,-1.739,-1.7545,-1.7739,-1.7865,-1.8057,-1.8275,-1.8356,-1.8329,-1.8694,-1.8854,-1.8747,-1.8907,-1.9013,-1.9052,-1.921,-1.9263,-1.9158,-1.9342,-1.9447,-1.9368,-1.9093,-1.8934,-1.8869,-1.8575,-1.8452,-1.8545,-1.8572,-1.8533,-1.8479,-1.8794,-1.8809,-1.8235,-1.8183,-1.8272,-1.8371,-1.8224,-1.817,-1.8263,-1.8433,-1.8444,-1.823,-1.8064,-1.8041,-1.8025,-1.7778,-1.765,-1.7389,-1.7306,-1.7306,-1.7306,-1.7306,-1.7306,-1.7306,-1.7306,-1.7306,-1.7306,-1.7306,-1.742,-1.7573,-1.7437,-1.7306,-1.7306,-1.7306,-1.7306,-1.7306,-1.7306,-1.7306,-1.7306,-1.7306,-1.7306,-1.7306,-1.7306,-1.7306,-1.7306,-1.7306,-1.7306,-1.1508,-1.1433,-1.1824,-1.2352,-1.299,-1.3186,-1.3713,-1.4321,-1.4625,-1.4887,-1.5275,-1.6044,-1.6684,-1.7066,-1.7414,-1.7584,-1.7592,-1.7265,-1.7116,-1.7112,-1.7442,-1.7704,-1.7783,-1.8144,-1.8455,-1.8527,-1.8288,-1.827,-1.8538,-1.827,-1.8057,-1.7887,-1.7858,-1.7698,-1.7328,-1.7306,-1.7306,-1.7306,-1.7306,-1.739,-1.7545,-1.7656,-1.7783,-1.7947,-1.803,-1.8041,-1.8014,-1.8398,-1.8598,-1.8491,-1.8587,-1.8667,-1.8694,-1.8801,-1.8866,-1.8801,-1.8869,-1.896,-1.8895,-1.8587,-1.8479,-1.8494,-1.8251,-1.81,-1.8259,-1.8275,-1.8302,-1.8139,-1.8329,-1.8263,-1.7838,-1.7728,-1.7881,-1.8034,-1.7826,-1.7744,-1.7893,-1.805,-1.8056,-1.7751,-1.759,-1.7512,-1.7456,-1.7434,-1.7396,-1.7306,-1.7306,-1.7306,-1.7306,-1.7306,-1.7306,-1.7306,-1.7306,-1.7306,-1.7306,-1.7306,-1.7306,-1.735,-1.7339,-1.7306,-1.7306,-1.7306,-1.7306,-1.7306,-1.7306,-1.7306,-1.7306,-1.7306,-1.7306,-1.7306,-1.7278,-1.7306,-1.7306,-1.7306,-1.7306,-1.1375,-1.1582,-1.2235,-1.245,-1.2621,-1.291,-1.3398,-1.4024,-1.4206,-1.4429,-1.4834,-1.5346,-1.592,-1.6501,-1.6737,-1.7096,-1.7568,-1.7032,-1.6757,-1.6772,-1.6846,-1.6899,-1.709,-1.7201,-1.7364,-1.7545,-1.7528,-1.7545,-1.7673,-1.7617,-1.7423,-1.7389,-1.74,-1.7328,-1.7306,-1.7306,-1.7306,-1.7306,-1.7306,-1.7295,-1.7334,-1.7557,-1.7656,-1.7684,-1.7865,-1.7904,-1.7767,-1.792,-1.8096,-1.8123,-1.8177,-1.8193,-1.8139,-1.8111,-1.8263,-1.8317,-1.8306,-1.8294,-1.8131,-1.8034,-1.7909,-1.7788,-1.7755,-1.7601,-1.7601,-1.7904,-1.8057,-1.792,-1.8127,-1.8236,-1.8073,-1.7936,-1.7772,-1.7684,-1.7518,-1.7451,-1.7496,-1.7573,-1.7612,-1.7545,-1.7407,-1.7334,-1.7351,-1.7362,-1.7334,-1.7306,-1.7306,-1.7306,-1.7306,-1.7306,-1.7306,-1.7306,-1.7306,-1.7306,-1.7306,-1.7306,-1.7306,-1.7306,-1.7306,-1.7306,-1.7306,-1.7306,-1.7306,-1.7306,-1.7306,-1.7306,-1.7278,-1.7278,-1.7239,-1.72,-1.7239,-1.7278,-1.7278,-1.725,-1.7306,-1.0131,-1.0177,-1.0718,-1.1076,-1.1429,-1.222,-1.2821,-1.3275,-1.3794,-1.428,-1.4866,-1.5287,-1.5757,-1.6343,-1.6452,-1.6788,-1.6993,-1.6548,-1.6387,-1.6517,-1.6347,-1.6495,-1.6779,-1.6864,-1.6937,-1.7106,-1.7162,-1.719,-1.7351,-1.7351,-1.7323,-1.7306,-1.7306,-1.7306,-1.7306,-1.7306,-1.7306,-1.7306,-1.7306,-1.7306,-1.7306,-1.7362,-1.7418,-1.7418,-1.749,-1.7501,-1.7418,-1.7462,-1.7711,-1.8057,-1.8084,-1.8084,-1.8084,-1.8154,-1.8127,-1.8007,-1.8077,-1.8131,-1.8038,-1.7788,-1.7717,-1.7886,-1.7645,-1.7518,-1.7755,-1.7805,-1.7833,-1.7794,-1.7877,-1.7833,-1.7629,-1.7518,-1.7434,-1.7407,-1.7396,-1.7451,-1.7507,-1.7629,-1.7667,-1.7534,-1.7496,-1.7479,-1.7451,-1.7423,-1.7407,-1.7334,-1.7306,-1.7306,-1.7306,-1.7306,-1.7306,-1.7306,-1.7306,-1.7306,-1.7306,-1.7306,-1.7306,-1.7306,-1.7306,-1.7306,-1.7306,-1.7306,-1.7306,-1.7306,-1.7306,-1.7306,-1.7239,-1.7172,-1.7162,-1.7134,-1.7078,-1.7088,-1.7145,-1.7145,-1.7239,-0.9651,-0.9571,-1.006,-1.038,-1.0676,-1.1415,-1.2072,-1.2706,-1.3152,-1.3809,-1.4446,-1.474,-1.5162,-1.5751,-1.583,-1.6192,-1.6545,-1.616,-1.6124,-1.6307,-1.6095,-1.6202,-1.6534,-1.662,-1.6694,-1.6814,-1.6853,-1.6909,-1.706,-1.7127,-1.7172,-1.7183,-1.7278,-1.7306,-1.7306,-1.7306,-1.7306,-1.7306,-1.7306,-1.7306,-1.7306,-1.7306,-1.7306,-1.7306,-1.7306,-1.7306,-1.7306,-1.7306,-1.7473,-1.7711,-1.7767,-1.7767,-1.7767,-1.7838,-1.781,-1.7634,-1.7717,-1.7799,-1.7815,-1.7623,-1.7634,-1.7843,-1.7673,-1.7673,-1.7728,-1.7767,-1.7794,-1.7573,-1.7595,-1.7484,-1.7362,-1.7306,-1.7306,-1.7334,-1.7368,-1.7423,-1.7496,-1.759,-1.759,-1.7523,-1.7468,-1.7479,-1.7423,-1.7423,-1.7379,-1.7334,-1.7306,-1.7306,-1.7306,-1.7306,-1.725,-1.7222,-1.725,-1.725,-1.7222,-1.7222,-1.7166,-1.7194,-1.7166,-1.7194,-1.7194,-1.7222,-1.7278,-1.7278,-1.7306,-1.7278,-1.7239,-1.7172,-1.7067,-1.7011,-1.6955,-1.6955,-1.6994,-1.7067,-1.7172,-0.9508,-0.9348,-0.9859,-1.0113,-1.0257,-1.0624,-1.1386,-1.2181,-1.2444,-1.3024,-1.3712,-1.3843,-1.4305,-1.492,-1.5048,-1.536,-1.6055,-1.5597,-1.5675,-1.5712,-1.5674,-1.5788,-1.6192,-1.622,-1.6353,-1.6513,-1.6542,-1.6655,-1.6807,-1.6937,-1.6983,-1.7022,-1.7145,-1.725,-1.7239,-1.7239,-1.7267,-1.7239,-1.7239,-1.7239,-1.7239,-1.7278,-1.7306,-1.7306,-1.7306,-1.7306,-1.7306,-1.7306,-1.7334,-1.7306,-1.7306,-1.7362,-1.7345,-1.7334,-1.7334,-1.7334,-1.739,-1.7434,-1.7479,-1.7507,-1.7551,-1.77,-1.7893,-1.792,-1.7634,-1.7673,-1.7645,-1.739,-1.7306,-1.7334,-1.7306,-1.7306,-1.7306,-1.7306,-1.7295,-1.7351,-1.7451,-1.7479,-1.7468,-1.7468,-1.7351,-1.7306,-1.7306,-1.7306,-1.7306,-1.7306,-1.7278,-1.7222,-1.725,-1.725,-1.7138,-1.6998,-1.7082,-1.7183,-1.7155,-1.7099,-1.7043,-1.7015,-1.6959,-1.6959,-1.6987,-1.7043,-1.7194,-1.7261,-1.7194,-1.7222,-1.7278,-1.7172,-1.7022,-1.6927,-1.6853,-1.6881,-1.6937,-1.6983,-1.7106,-0.8562,-0.8744,-0.9102,-0.9417,-0.9748,-1.0199,-1.0841,-1.1544,-1.1733,-1.2395,-1.3108,-1.326,-1.3729,-1.4476,-1.4449,-1.4854,-1.5182,-1.4637,-1.4252,-1.4292,-1.4777,-1.5138,-1.5497,-1.5555,-1.5845,-1.6122,-1.6218,-1.6389,-1.6673,-1.6775,-1.6835,-1.6864,-1.6994,-1.7067,-1.7078,-1.7078,-1.7078,-1.7078,-1.7078,-1.7078,-1.7134,-1.725,-1.7306,-1.7306,-1.7306,-1.7306,-1.7306,-1.7306,-1.7306,-1.7306,-1.7306,-1.7306,-1.7306,-1.7306,-1.7306,-1.7306,-1.7306,-1.7334,-1.7362,-1.7451,-1.7523,-1.7551,-1.7645,-1.7617,-1.7534,-1.7451,-1.7407,-1.7306,-1.7306,-1.7306,-1.7306,-1.7306,-1.7306,-1.7306,-1.7306,-1.7306,-1.7334,-1.7362,-1.7351,-1.7351,-1.7323,-1.7306,-1.7306,-1.7278,-1.7278,-1.7306,-1.725,-1.7166,-1.7166,-1.7155,-1.7099,-1.697,-1.6931,-1.7015,-1.7043,-1.7015,-1.7015,-1.6959,-1.6902,-1.6864,-1.6864,-1.6751,-1.6874,-1.6987,-1.7054,-1.711,-1.725,-1.7043,-1.6864,-1.6807,-1.6751,-1.6751,-1.6768,-1.687,-1.6983,-0.7928,-0.8155,-0.8501,-0.8882,-0.9332,-0.9849,-1.039,-1.0958,-1.1404,-1.1864,-1.2282,-1.2452,-1.2753,-1.3194,-1.3436,-1.3714,-1.3916,-1.3808,-1.3439,-1.3416,-1.3849,-1.4214,-1.4258,-1.4644,-1.508,-1.5737,-1.6128,-1.626,-1.6276,-1.6532,-1.6694,-1.6722,-1.6853,-1.692,-1.6909,-1.6909,-1.6955,-1.7011,-1.7011,-1.7039,-1.7145,-1.7239,-1.7306,-1.7306,-1.7306,-1.7306,-1.7306,-1.7306,-1.7306,-1.7306,-1.7306,-1.7306,-1.7306,-1.7306,-1.7306,-1.7306,-1.7306,-1.7334,-1.7407,-1.7451,-1.7523,-1.759,-1.759,-1.7562,-1.7507,-1.7423,-1.7379,-1.7334,-1.7306,-1.7306,-1.7306,-1.7306,-1.7306,-1.7306,-1.7306,-1.7306,-1.7306,-1.7306,-1.7306,-1.7306,-1.7306,-1.7306,-1.7278,-1.7222,-1.7099,-1.7071,-1.7043,-1.6987,-1.7054,-1.7082,-1.7138,-1.7054,-1.6885,-1.6874,-1.6902,-1.6959,-1.7004,-1.6948,-1.6902,-1.6864,-1.6881,-1.6684,-1.6485,-1.6666,-1.6874,-1.7082,-1.7166,-1.6931,-1.6761,-1.6761,-1.6705,-1.6609,-1.6609,-1.6712,-1.6825,-0.7414,-0.7613,-0.7996,-0.8425,-0.8947,-0.946,-0.997,-1.0548,-1.1097,-1.1357,-1.148,-1.1597,-1.176,-1.1841,-1.2187,-1.2351,-1.2505,-1.2836,-1.2697,-1.247,-1.3044,-1.3274,-1.3264,-1.3756,-1.4269,-1.5139,-1.5727,-1.5825,-1.5864,-1.6063,-1.6303,-1.6443,-1.656,-1.661,-1.6691,-1.6779,-1.6761,-1.6766,-1.6706,-1.6752,-1.6912,-1.701,-1.7136,-1.7306,-1.7306,-1.7306,-1.7306,-1.7306,-1.7306,-1.7306,-1.7306,-1.7306,-1.7306,-1.7306,-1.7306,-1.7306,-1.7306,-1.7334,-1.7396,-1.7479,-1.7534,-1.7645,-1.7645,-1.759,-1.7479,-1.7423,-1.7407,-1.7334,-1.7306,-1.7306,-1.7306,-1.7306,-1.7306,-1.7306,-1.7306,-1.7306,-1.7306,-1.7306,-1.7306,-1.7306,-1.7306,-1.7306,-1.7222,-1.7127,-1.6976,-1.6835,-1.6846,-1.6846,-1.6902,-1.6998,-1.7082,-1.6987,-1.679,-1.6591,-1.6609,-1.6648,-1.6722,-1.6761,-1.6733,-1.6722,-1.6712,-1.6428,-1.6267,-1.6552,-1.6779,-1.6902,-1.6902,-1.6666,-1.6581,-1.6676,-1.6563,-1.6353,-1.64,-1.6542,-1.6655,-0.6633,-0.7169,-0.7605,-0.8085,-0.8603,-0.8973,-0.9564,-1.0224,-1.0349,-1.0676,-1.1078,-1.1046,-1.1117,-1.1318,-1.1442,-1.1384,-1.1456,-1.1713,-1.1742,-1.1591,-1.2114,-1.2397,-1.2792,-1.31,-1.3423,-1.3684,-1.4541,-1.5263,-1.5505,-1.5654,-1.5716,-1.5912,-1.5914,-1.6022,-1.6318,-1.6521,-1.636,-1.6199,-1.6109,-1.6073,-1.6111,-1.6369,-1.6765,-1.7082,-1.7131,-1.7197,-1.7262,-1.7284,-1.7306,-1.7306,-1.7306,-1.7306,-1.7306,-1.7306,-1.7306,-1.7306,-1.7306,-1.7334,-1.7351,-1.7423,-1.7423,-1.7434,-1.749,-1.749,-1.7379,-1.7323,-1.7334,-1.7334,-1.7306,-1.7306,-1.7306,-1.7306,-1.7306,-1.7306,-1.7306,-1.7306,-1.7306,-1.7278,-1.725,-1.7222,-1.725,-1.7278,-1.7183,-1.706,-1.6853,-1.6797,-1.6835,-1.6751,-1.6722,-1.6874,-1.7043,-1.6864,-1.6637,-1.6438,-1.6285,-1.6296,-1.6353,-1.6392,-1.6374,-1.6363,-1.6306,-1.6077,-1.6077,-1.6381,-1.6467,-1.6467,-1.6438,-1.6381,-1.6324,-1.6324,-1.6171,-1.6028,-1.6171,-1.6343,-1.6513,-0.5971,-0.6406,-0.7111,-0.7696,-0.8175,-0.8426,-0.8926,-0.9532,-0.9652,-0.9852,-1.0136,-1.0284,-1.0339,-1.0518,-1.0915,-1.095,-1.0899,-1.088,-1.0863,-1.0817,-1.1282,-1.1628,-1.2013,-1.2365,-1.256,-1.2787,-1.3496,-1.4213,-1.4646,-1.4871,-1.5046,-1.5134,-1.5158,-1.5253,-1.5396,-1.5478,-1.5535,-1.5419,-1.5377,-1.54,-1.545,-1.5842,-1.6211,-1.6432,-1.6579,-1.6645,-1.6863,-1.6885,-1.7054,-1.724,-1.7306,-1.7306,-1.7295,-1.7306,-1.7306,-1.7306,-1.7306,-1.7306,-1.7306,-1.7351,-1.7351,-1.7334,-1.7379,-1.7379,-1.7334,-1.7306,-1.7306,-1.7306,-1.7306,-1.7306,-1.7306,-1.7306,-1.7306,-1.7306,-1.7306,-1.7306,-1.725,-1.7117,-1.706,-1.7071,-1.7194,-1.7222,-1.7183,-1.7004,-1.6758,-1.6701,-1.6779,-1.6722,-1.657,-1.6751,-1.6959,-1.6807,-1.6609,-1.6467,-1.6324,-1.6353,-1.6306,-1.6269,-1.623,-1.623,-1.6173,-1.6097,-1.6077,-1.6228,-1.62,-1.6239,-1.6296,-1.6381,-1.6171,-1.596,-1.5855,-1.5797,-1.5941,-1.6104,-1.6343,-0.5217,-0.5524,-0.6449,-0.711,-0.7598,-0.7881,-0.8263,-0.8703,-0.8917,-0.9096,-0.9204,-0.9507,-0.9603,-0.9633,-1.0075,-1.0444,-1.0455,-1.0348,-1.0296,-1.0351,-1.0717,-1.0915,-1.1074,-1.1445,-1.1937,-1.2094,-1.2609,-1.3019,-1.3705,-1.4057,-1.435,-1.4506,-1.4483,-1.4506,-1.4606,-1.4787,-1.4688,-1.4628,-1.4634,-1.48,-1.5085,-1.5352,-1.5596,-1.5774,-1.5811,-1.6029,-1.6323,-1.6356,-1.6557,-1.6819,-1.7005,-1.7103,-1.7153,-1.7251,-1.7306,-1.7306,-1.7306,-1.7306,-1.7306,-1.7306,-1.7306,-1.7306,-1.7306,-1.7306,-1.7306,-1.7306,-1.7306,-1.7306,-1.7306,-1.7306,-1.7306,-1.7306,-1.7306,-1.7306,-1.7306,-1.7278,-1.7127,-1.6948,-1.6779,-1.6874,-1.7043,-1.7015,-1.6864,-1.6924,-1.6658,-1.6475,-1.6552,-1.6524,-1.6457,-1.6666,-1.679,-1.6733,-1.6581,-1.6495,-1.6467,-1.6581,-1.6516,-1.6462,-1.6441,-1.6402,-1.6355,-1.628,-1.6249,-1.62,-1.621,-1.621,-1.6296,-1.6228,-1.597,-1.5739,-1.5565,-1.5623,-1.5912,-1.6124,-1.6306,-0.4241,-0.4707,-0.5542,-0.6145,-0.6667,-0.7215,-0.7736,-0.8156,-0.8098,-0.8321,-0.8626,-0.8951,-0.895,-0.9002,-0.9239,-0.9406,-0.9549,-0.9818,-1.0034,-1.0204,-1.0399,-1.0567,-1.0784,-1.1189,-1.1403,-1.1567,-1.2045,-1.2791,-1.3221,-1.34,-1.3708,-1.3978,-1.3896,-1.3963,-1.4218,-1.4276,-1.4459,-1.4206,-1.4074,-1.42,-1.4572,-1.4836,-1.525,-1.5564,-1.5724,-1.5731,-1.5829,-1.5861,-1.5959,-1.6073,-1.6411,-1.6563,-1.6667,-1.706,-1.7262,-1.7306,-1.7306,-1.7306,-1.7306,-1.7306,-1.7306,-1.7306,-1.7306,-1.7306,-1.7306,-1.7306,-1.7306,-1.7306,-1.7306,-1.7278,-1.7278,-1.7278,-1.7306,-1.7278,-1.7222,-1.7099,-1.692,-1.6779,-1.6609,-1.6428,-1.6524,-1.6495,-1.64,-1.6537,-1.6597,-1.6431,-1.6285,-1.6257,-1.6257,-1.641,-1.6495,-1.6381,-1.6267,-1.6153,-1.6324,-1.6457,-1.6555,-1.653,-1.6537,-1.6488,-1.6288,-1.6155,-1.6288,-1.6249,-1.622,-1.6019,-1.5904,-1.5778,-1.5633,-1.5517,-1.5332,-1.5623,-1.5999,-1.6153,-1.6249,-0.3339,-0.4047,-0.4913,-0.5584,-0.6135,-0.6487,-0.6931,-0.7388,-0.7376,-0.7488,-0.78,-0.811,-0.8441,-0.8738,-0.9113,-0.929,-0.9439,-0.9569,-0.9758,-0.997,-1.0082,-1.0187,-1.0386,-1.0705,-1.0896,-1.1192,-1.1536,-1.1962,-1.247,-1.282,-1.3055,-1.3252,-1.3231,-1.3228,-1.3627,-1.3625,-1.3546,-1.3481,-1.353,-1.374,-1.4018,-1.4318,-1.4644,-1.4898,-1.492,-1.5047,-1.5242,-1.5286,-1.5484,-1.5709,-1.604,-1.6094,-1.6214,-1.6546,-1.6841,-1.6863,-1.7164,-1.7284,-1.7306,-1.7306,-1.7306,-1.7306,-1.7306,-1.7306,-1.7306,-1.7306,-1.7306,-1.7306,-1.7306,-1.725,-1.7145,-1.706,-1.7088,-1.7088,-1.7043,-1.6931,-1.6751,-1.657,-1.6371,-1.6171,-1.5999,-1.597,-1.6009,-1.6144,-1.6222,-1.6077,-1.5941,-1.5894,-1.5836,-1.5826,-1.5912,-1.597,-1.5826,-1.5691,-1.5941,-1.6161,-1.6298,-1.6358,-1.6433,-1.6327,-1.6019,-1.5933,-1.6077,-1.6066,-1.5941,-1.572,-1.5498,-1.541,-1.5352,-1.5254,-1.5137,-1.5478,-1.5797,-1.5999,-1.6124,-0.2462,-0.3292,-0.4181,-0.494,-0.549,-0.5646,-0.6059,-0.6595,-0.6629,-0.6712,-0.6945,-0.7321,-0.791,-0.8468,-0.8712,-0.889,-0.9256,-0.9354,-0.9458,-0.9595,-0.9792,-0.9903,-1.0055,-1.0257,-1.0667,-1.0888,-1.1293,-1.1697,-1.2004,-1.2277,-1.2527,-1.2676,-1.2821,-1.2856,-1.291,-1.3018,-1.3032,-1.3037,-1.3264,-1.3447,-1.3628,-1.3936,-1.4138,-1.4208,-1.4242,-1.4361,-1.4698,-1.4798,-1.5075,-1.5274,-1.5549,-1.5615,-1.5691,-1.6051,-1.6302,-1.6411,-1.6743,-1.7016,-1.7082,-1.7147,-1.7284,-1.7306,-1.7306,-1.7306,-1.7306,-1.7306,-1.7306,-1.7306,-1.7239,-1.7134,-1.7011,-1.6881,-1.6864,-1.6835,-1.6779,-1.6694,-1.6552,-1.6296,-1.6085,-1.5884,-1.5681,-1.5575,-1.5643,-1.5788,-1.5817,-1.5739,-1.5633,-1.5556,-1.5459,-1.5362,-1.5459,-1.5546,-1.5459,-1.5371,-1.5623,-1.5855,-1.6021,-1.6099,-1.6194,-1.6039,-1.5672,-1.5662,-1.5797,-1.5768,-1.5652,-1.5488,-1.5274,-1.5186,-1.5098,-1.5117,-1.5167,-1.5303,-1.5536,-1.5768,-1.5999,-0.1654,-0.2181,-0.3236,-0.3935,-0.4394,-0.4798,-0.527,-0.5748,-0.5845,-0.6073,-0.6399,-0.6766,-0.7166,-0.7503,-0.7857,-0.815,-0.8521,-0.8751,-0.9014,-0.9335,-0.9662,-0.9636,-0.974,-1.0069,-1.0557,-1.0837,-1.1091,-1.1494,-1.1952,-1.1952,-1.2298,-1.2627,-1.2627,-1.2759,-1.2832,-1.2866,-1.2856,-1.2895,-1.3118,-1.3266,-1.3443,-1.3692,-1.3928,-1.4129,-1.4199,-1.4278,-1.4428,-1.447,-1.4524,-1.469,-1.4974,-1.5099,-1.5162,-1.5553,-1.576,-1.5812,-1.6174,-1.6412,-1.6499,-1.6933,-1.7228,-1.7278,-1.725,-1.7166,-1.7138,-1.725,-1.7278,-1.7222,-1.7088,-1.7011,-1.6927,-1.6853,-1.6627,-1.6542,-1.6428,-1.6257,-1.6124,-1.5951,-1.571,-1.5536,-1.543,-1.5352,-1.5235,-1.5381,-1.5469,-1.54,-1.5245,-1.5167,-1.5059,-1.499,-1.5059,-1.5088,-1.5088,-1.5147,-1.5362,-1.5527,-1.5605,-1.5702,-1.575,-1.5527,-1.5196,-1.5332,-1.5623,-1.54,-1.5284,-1.5176,-1.5068,-1.498,-1.495,-1.5088,-1.5176,-1.5254,-1.5478,-1.5768,-1.598,-0.1036,-0.151,-0.2207,-0.3012,-0.3846,-0.4211,-0.4625,-0.5062,-0.5363,-0.5769,-0.6209,-0.649,-0.6815,-0.7106,-0.7369,-0.7691,-0.8064,-0.8196,-0.8488,-0.8751,-0.8995,-0.9178,-0.9387,-0.9699,-1.0061,-1.0362,-1.0625,-1.0863,-1.1108,-1.1494,-1.1778,-1.2051,-1.2357,-1.2637,-1.2735,-1.2759,-1.2735,-1.2798,-1.2963,-1.316,-1.3112,-1.3467,-1.3763,-1.3928,-1.3952,-1.4069,-1.4244,-1.428,-1.4326,-1.4404,-1.4568,-1.4549,-1.4551,-1.4913,-1.5046,-1.5005,-1.5403,-1.5653,-1.5882,-1.6427,-1.6881,-1.6694,-1.6694,-1.6722,-1.6818,-1.6864,-1.6846,-1.6807,-1.6881,-1.6842,-1.6475,-1.6332,-1.6189,-1.6161,-1.6056,-1.5826,-1.5681,-1.5546,-1.543,-1.5274,-1.5196,-1.5156,-1.5068,-1.497,-1.5029,-1.5059,-1.4902,-1.4784,-1.4734,-1.4704,-1.4773,-1.4803,-1.4803,-1.4862,-1.5079,-1.5147,-1.5215,-1.5274,-1.5342,-1.5117,-1.4931,-1.5235,-1.541,-1.5167,-1.498,-1.4921,-1.4832,-1.4743,-1.4743,-1.4832,-1.5,-1.5167,-1.542,-1.571,-1.5836,-0.0392,-0.0811,-0.1287,-0.2181,-0.3297,-0.3633,-0.3987,-0.4398,-0.4701,-0.5199,-0.5778,-0.5941,-0.6241,-0.662,-0.6837,-0.7182,-0.7444,-0.7631,-0.7937,-0.8282,-0.8606,-0.8811,-0.9047,-0.9309,-0.9614,-0.9847,-1.0079,-1.0344,-1.0702,-1.1015,-1.1293,-1.1603,-1.1927,-1.2224,-1.2603,-1.2578,-1.2563,-1.2627,-1.2803,-1.2953,-1.2856,-1.3218,-1.342,-1.3539,-1.3597,-1.3716,-1.3823,-1.3836,-1.3894,-1.3988,-1.4067,-1.402,-1.4045,-1.4145,-1.4275,-1.4341,-1.4505,-1.4847,-1.5138,-1.5837,-1.6423,-1.628,-1.6652,-1.6578,-1.6485,-1.6599,-1.6694,-1.6438,-1.6599,-1.656,-1.6056,-1.6017,-1.5874,-1.5826,-1.5565,-1.5371,-1.5313,-1.5196,-1.5137,-1.5049,-1.5019,-1.4998,-1.4793,-1.4704,-1.4743,-1.4773,-1.4743,-1.4654,-1.4595,-1.4565,-1.4575,-1.4575,-1.4575,-1.4684,-1.4803,-1.4832,-1.4891,-1.4862,-1.4921,-1.4862,-1.4813,-1.5098,-1.5128,-1.4852,-1.4714,-1.4693,-1.4664,-1.4604,-1.4575,-1.4545,-1.4773,-1.5049,-1.5196,-1.542,-1.5507,0.0224,-0.0084,-0.0533,-0.1484,-0.2605,-0.2993,-0.3297,-0.3597,-0.3849,-0.4267,-0.4853,-0.5097,-0.5399,-0.5727,-0.6055,-0.6458,-0.6858,-0.6961,-0.7289,-0.7889,-0.8182,-0.8421,-0.8659,-0.889,-0.9204,-0.9588,-0.9795,-1.0061,-1.0446,-1.0651,-1.0888,-1.1091,-1.1343,-1.1794,-1.2397,-1.2382,-1.2382,-1.2505,-1.2618,-1.2642,-1.2715,-1.2987,-1.305,-1.3088,-1.329,-1.3443,-1.3481,-1.3457,-1.3505,-1.3563,-1.361,-1.3563,-1.3484,-1.3744,-1.3796,-1.3649,-1.4008,-1.4229,-1.4361,-1.5505,-1.5773,-1.5776,-1.6043,-1.6472,-1.6518,-1.6588,-1.6524,-1.6142,-1.6228,-1.6171,-1.5999,-1.5826,-1.5633,-1.543,-1.5167,-1.499,-1.4961,-1.4911,-1.4852,-1.4823,-1.4898,-1.4885,-1.4623,-1.4428,-1.4446,-1.4485,-1.4485,-1.4485,-1.4485,-1.4485,-1.4485,-1.4485,-1.4485,-1.4545,-1.4625,-1.4575,-1.4545,-1.4536,-1.4565,-1.4595,-1.4595,-1.4714,-1.4654,-1.4506,-1.4536,-1.4604,-1.4545,-1.4515,-1.4485,-1.4515,-1.4714,-1.497,-1.5049,-1.5108,-1.5137,0.0982,0.0561,0.0084,-0.0505,-0.1232,-0.1958,-0.2404,-0.274,-0.3272,-0.3827,-0.4349,-0.4684,-0.4987,-0.5289,-0.5555,-0.5905,-0.6231,-0.6322,-0.6701,-0.7171,-0.7522,-0.7803,-0.8051,-0.8429,-0.8744,-0.8961,-0.9223,-0.9418,-0.9498,-0.9972,-1.0218,-1.0413,-1.0805,-1.1519,-1.2101,-1.2249,-1.22,-1.2224,-1.2274,-1.2298,-1.2348,-1.2574,-1.274,-1.2735,-1.301,-1.3154,-1.3154,-1.3106,-1.3194,-1.3218,-1.3266,-1.3074,-1.2953,-1.3156,-1.3132,-1.2973,-1.3175,-1.3175,-1.3318,-1.3915,-1.4423,-1.4723,-1.5242,-1.5655,-1.5329,-1.5914,-1.5909,-1.5853,-1.5881,-1.5776,-1.5546,-1.5439,-1.5274,-1.5117,-1.4911,-1.4784,-1.4725,-1.4645,-1.4595,-1.4586,-1.4632,-1.4533,-1.433,-1.4369,-1.4387,-1.4426,-1.4485,-1.4485,-1.4485,-1.4485,-1.4485,-1.4485,-1.4485,-1.4485,-1.4485,-1.4485,-1.4485,-1.4515,-1.4515,-1.4515,-1.4515,-1.4485,-1.4485,-1.4485,-1.4485,-1.4485,-1.4485,-1.4485,-1.4485,-1.4575,-1.4684,-1.4743,-1.4773,-1.4743,-1.4714,0.1514,0.112,0.0692,0.0333,-0.0112,-0.1147,-0.1818,-0.2211,-0.277,-0.3297,-0.3707,-0.3987,-0.4322,-0.4639,-0.4953,-0.5304,-0.5569,-0.5655,-0.5948,-0.6394,-0.6696,-0.7021,-0.7418,-0.7825,-0.7993,-0.8248,-0.8578,-0.8837,-0.8952,-0.93,-0.9558,-0.9829,-1.0188,-1.0723,-1.1317,-1.1545,-1.1794,-1.1893,-1.2042,-1.2101,-1.207,-1.2143,-1.22,-1.2205,-1.234,-1.2574,-1.2623,-1.2725,-1.2856,-1.288,-1.2783,-1.2564,-1.2467,-1.2491,-1.2525,-1.2471,-1.248,-1.2514,-1.2677,-1.2888,-1.3304,-1.328,-1.4128,-1.4576,-1.4525,-1.4968,-1.5132,-1.5183,-1.5414,-1.5351,-1.5148,-1.5051,-1.4962,-1.4785,-1.4725,-1.4597,-1.4556,-1.4476,-1.4476,-1.4476,-1.4417,-1.427,-1.4222,-1.427,-1.4357,-1.4426,-1.4485,-1.4485,-1.4485,-1.4485,-1.4485,-1.4485,-1.4485,-1.4485,-1.4485,-1.4485,-1.4485,-1.4485,-1.4485,-1.4485,-1.4485,-1.4485,-1.4485,-1.4485,-1.4485,-1.4485,-1.4485,-1.4485,-1.4485,-1.4485,-1.4545,-1.4545,-1.4485,-1.4485,-1.4485,0.1842,0.1587,0.1241,0.103,0.0667,-0.0608,-0.1501,-0.1984,-0.2124,-0.2482,-0.2933,-0.2998,-0.3421,-0.3917,-0.4034,-0.4419,-0.4896,-0.4997,-0.5394,-0.5764,-0.6057,-0.6362,-0.667,-0.7012,-0.734,-0.7627,-0.7949,-0.8337,-0.8543,-0.8742,-0.8965,-0.9173,-0.9435,-0.9882,-1.0311,-1.0671,-1.1077,-1.1345,-1.1525,-1.154,-1.1535,-1.1652,-1.1494,-1.142,-1.1467,-1.1583,-1.1647,-1.1734,-1.1868,-1.195,-1.1993,-1.1977,-1.2051,-1.2215,-1.22,-1.2224,-1.2249,-1.2298,-1.2317,-1.2531,-1.2482,-1.2607,-1.3575,-1.4027,-1.418,-1.4187,-1.4421,-1.4475,-1.4617,-1.4744,-1.4743,-1.4703,-1.4604,-1.4562,-1.4499,-1.4449,-1.4446,-1.4417,-1.4417,-1.4396,-1.4336,-1.4267,-1.4357,-1.4405,-1.4396,-1.4426,-1.4485,-1.4485,-1.4485,-1.4485,-1.4485,-1.4485,-1.4485,-1.4485,-1.4485,-1.4485,-1.4485,-1.4485,-1.4485,-1.4485,-1.4485,-1.4485,-1.4485,-1.4485,-1.4485,-1.4485,-1.4485,-1.4485,-1.4485,-1.4485,-1.4485,-1.4485,-1.4485,-1.4485,-1.4485,0.2182,0.2051,0.1544,0.129,0.1092,0.0104,-0.0881,-0.1641,-0.1807,-0.2133,-0.2623,-0.281,-0.3069,-0.3457,-0.3865,-0.417,-0.444,-0.4695,-0.5006,-0.5267,-0.548,-0.5838,-0.6202,-0.6536,-0.6906,-0.7218,-0.752,-0.7819,-0.7988,-0.8187,-0.8379,-0.8564,-0.8771,-0.9031,-0.9306,-0.9581,-1.0062,-1.0488,-1.0678,-1.0857,-1.0892,-1.0939,-1.0753,-1.0744,-1.0836,-1.0962,-1.1136,-1.1217,-1.1471,-1.1852,-1.1717,-1.1644,-1.1644,-1.1794,-1.1902,-1.2126,-1.22,-1.2249,-1.2184,-1.22,-1.2175,-1.2126,-1.2714,-1.2953,-1.3209,-1.3554,-1.3853,-1.3852,-1.3873,-1.4006,-1.4091,-1.4052,-1.4011,-1.395,-1.399,-1.4132,-1.4138,-1.424,-1.427,-1.4336,-1.4285,-1.4336,-1.4435,-1.4465,-1.4455,-1.4485,-1.4485,-1.4485,-1.4485,-1.4485,-1.4485,-1.4485,-1.4485,-1.4485,-1.4485,-1.4485,-1.4485,-1.4485,-1.4485,-1.4485,-1.4485,-1.4485,-1.4485,-1.4485,-1.4485,-1.4485,-1.4485,-1.4485,-1.4485,-1.4485,-1.4485,-1.4485,-1.4485,-1.4485,-1.4485,0.2666,0.2338,0.1909,0.1602,0.1336,0.0726,-0.0052,-0.0773,-0.1341,-0.1809,-0.2125,-0.2276,-0.2547,-0.2836,-0.3158,-0.3462,-0.3772,-0.4077,-0.4353,-0.4517,-0.4953,-0.5139,-0.5503,-0.5919,-0.62,-0.6556,-0.6917,-0.7247,-0.7457,-0.7712,-0.7928,-0.805,-0.8158,-0.8289,-0.8503,-0.8708,-0.888,-0.9375,-0.9762,-1.0077,-1.019,-1.0206,-1.0189,-1.0167,-1.0321,-1.0503,-1.0654,-1.0733,-1.1036,-1.1277,-1.1015,-1.1014,-1.1093,-1.1314,-1.1619,-1.1843,-1.1977,-1.2076,-1.2101,-1.2101,-1.2101,-1.2076,-1.2076,-1.2289,-1.2531,-1.2856,-1.3072,-1.3187,-1.3243,-1.3273,-1.3332,-1.3368,-1.3301,-1.327,-1.3489,-1.3706,-1.3871,-1.4028,-1.4142,-1.4267,-1.4306,-1.4357,-1.4417,-1.4455,-1.4485,-1.4485,-1.4485,-1.4485,-1.4485,-1.4485,-1.4485,-1.4485,-1.4485,-1.4485,-1.4485,-1.4485,-1.4485,-1.4485,-1.4485,-1.4485,-1.4485,-1.4485,-1.4485,-1.4485,-1.4485,-1.4485,-1.4485,-1.4485,-1.4485,-1.4485,-1.4485,-1.4485,-1.4485,-1.4485,-1.4455,0.3257,0.258,0.2307,0.194,0.1525,0.1202,0.0824,0.0426,-0.0695,-0.1327,-0.1464,-0.1576,-0.1866,-0.2236,-0.2483,-0.2769,-0.3167,-0.3543,-0.3804,-0.3729,-0.4286,-0.4585,-0.4821,-0.5021,-0.5494,-0.5754,-0.6113,-0.665,-0.7039,-0.7285,-0.7486,-0.7633,-0.7678,-0.7782,-0.793,-0.8026,-0.8186,-0.8369,-0.9066,-0.9589,-0.9692,-0.9696,-0.9644,-0.9512,-0.9542,-0.9606,-0.9718,-0.9867,-1.0066,-1.0115,-1.0177,-1.031,-1.0625,-1.0879,-1.1263,-1.1553,-1.1703,-1.1852,-1.1968,-1.2002,-1.2051,-1.2051,-1.2076,-1.2029,-1.2138,-1.2344,-1.2563,-1.2648,-1.2704,-1.2752,-1.2812,-1.2932,-1.2923,-1.3036,-1.3281,-1.3506,-1.3696,-1.3796,-1.3802,-1.3927,-1.3974,-1.4034,-1.4189,-1.4219,-1.4387,-1.4455,-1.4485,-1.4485,-1.4485,-1.4485,-1.4455,-1.4455,-1.4485,-1.4485,-1.4485,-1.4485,-1.4485,-1.4485,-1.4485,-1.4485,-1.4485,-1.4485,-1.4485,-1.4485,-1.4485,-1.4485,-1.4485,-1.4485,-1.4485,-1.4485,-1.4485,-1.4485,-1.4485,-1.4485,-1.4485,0.3644,0.3257,0.2569,0.2112,0.1846,0.1424,0.1128,0.0839,0.0248,-0.0467,-0.1121,-0.1365,-0.1547,-0.1756,-0.2123,-0.2425,-0.272,-0.3036,-0.3476,-0.3613,-0.3873,-0.4105,-0.4451,-0.4635,-0.4971,-0.5316,-0.5706,-0.6111,-0.656,-0.6823,-0.6991,-0.7148,-0.726,-0.741,-0.751,-0.7581,-0.7673,-0.7768,-0.8085,-0.8666,-0.8797,-0.8767,-0.8708,-0.8766,-0.8844,-0.9111,-0.9308,-0.9563,-0.984,-1.0046,-1.0083,-1.0314,-1.0631,-1.0733,-1.1051,-1.1399,-1.1435,-1.1553,-1.1694,-1.1769,-1.1778,-1.1852,-1.1828,-1.1728,-1.1753,-1.1977,-1.2088,-1.2145,-1.2184,-1.2241,-1.2298,-1.2429,-1.2547,-1.2776,-1.3074,-1.3287,-1.3525,-1.3518,-1.3493,-1.3532,-1.3588,-1.3703,-1.3858,-1.4061,-1.4258,-1.4357,-1.4455,-1.4485,-1.4455,-1.4455,-1.4357,-1.4357,-1.4485,-1.4485,-1.4485,-1.4426,-1.4387,-1.4417,-1.4417,-1.4446,-1.4485,-1.4485,-1.4485,-1.4485,-1.4485,-1.4485,-1.4485,-1.4485,-1.4485,-1.4485,-1.4485,-1.4485,-1.4485,-1.4485,-1.4485,0.4176,0.3737,0.3012,0.2591,0.2393,0.2121,0.1841,0.1544,0.1113,0.0483,-0.0226,-0.0617,-0.092,-0.1176,-0.1586,-0.1906,-0.2107,-0.2427,-0.2573,-0.284,-0.3339,-0.3541,-0.3845,-0.4233,-0.4574,-0.491,-0.5361,-0.5761,-0.6142,-0.6398,-0.6596,-0.6759,-0.6914,-0.7083,-0.7154,-0.7259,-0.7433,-0.7538,-0.7475,-0.76,-0.7933,-0.8057,-0.8283,-0.8386,-0.8536,-0.8766,-0.8915,-0.9174,-0.9338,-0.9571,-0.9678,-0.987,-1.0148,-1.0383,-1.0651,-1.0854,-1.0981,-1.1091,-1.1209,-1.1309,-1.1368,-1.1418,-1.1553,-1.1418,-1.1444,-1.1619,-1.1678,-1.1715,-1.169,-1.1751,-1.1675,-1.1748,-1.1842,-1.2001,-1.2477,-1.2866,-1.3112,-1.3292,-1.319,-1.3122,-1.3177,-1.3282,-1.3517,-1.3918,-1.4094,-1.4288,-1.4387,-1.4327,-1.4327,-1.4267,-1.4228,-1.4198,-1.4267,-1.4426,-1.4485,-1.4357,-1.4198,-1.4258,-1.4318,-1.4357,-1.4417,-1.4455,-1.4485,-1.4485,-1.4485,-1.4485,-1.4485,-1.4485,-1.4485,-1.4485,-1.4485,-1.4485,-1.4485,-1.4485,-1.4485,0.4742,0.4101,0.3531,0.3221,0.3095,0.2945,0.2692,0.2326,0.1891,0.1447,0.0921,0.0429,-0.004,-0.0443,-0.0691,-0.0901,-0.1254,-0.1789,-0.1845,-0.2116,-0.2638,-0.2911,-0.3271,-0.3669,-0.4074,-0.4534,-0.4976,-0.5368,-0.5761,-0.597,-0.6184,-0.6361,-0.6575,-0.6781,-0.6816,-0.6992,-0.7237,-0.7314,-0.7272,-0.7139,-0.7349,-0.7614,-0.7863,-0.8098,-0.8283,-0.8378,-0.8521,-0.8692,-0.8781,-0.8992,-0.9262,-0.9478,-0.9686,-0.9943,-1.0122,-1.0311,-1.043,-1.0475,-1.0558,-1.0694,-1.0753,-1.0863,-1.1065,-1.1116,-1.1057,-1.1065,-1.1116,-1.1167,-1.1167,-1.1276,-1.12,-1.1226,-1.1291,-1.1616,-1.2136,-1.247,-1.2733,-1.2936,-1.2797,-1.2675,-1.2717,-1.2801,-1.3222,-1.3628,-1.3948,-1.4142,-1.4189,-1.413,-1.404,-1.398,-1.3881,-1.392,-1.395,-1.4139,-1.4357,-1.4267,-1.404,-1.413,-1.4198,-1.4258,-1.4327,-1.4357,-1.4426,-1.4455,-1.4455,-1.4485,-1.4485,-1.4485,-1.4485,-1.4485,-1.4485,-1.4485,-1.4485,-1.4485,-1.4485,0.5101,0.4468,0.3965,0.3748,0.3665,0.3244,0.2947,0.2771,0.2457,0.2137,0.1792,0.1453,0.0831,-0.0255,-0.0591,-0.076,-0.0788,-0.1232,-0.1595,-0.1906,-0.2102,-0.2349,-0.2654,-0.3088,-0.3615,-0.4061,-0.449,-0.4925,-0.5192,-0.5471,-0.5755,-0.5989,-0.6319,-0.6526,-0.6698,-0.6859,-0.6999,-0.7076,-0.7062,-0.6935,-0.7013,-0.716,-0.7139,-0.7342,-0.7572,-0.7835,-0.8082,-0.8345,-0.8541,-0.8749,-0.8918,-0.9111,-0.9288,-0.9436,-0.9588,-0.9729,-0.9818,-0.9951,-1.0015,-1.0115,-1.0208,-1.0285,-1.0387,-1.0336,-1.0285,-1.0208,-1.0285,-1.0438,-1.0566,-1.0939,-1.0989,-1.1074,-1.1199,-1.1912,-1.2507,-1.2346,-1.2399,-1.2301,-1.2164,-1.2101,-1.2069,-1.2385,-1.2876,-1.332,-1.3747,-1.3902,-1.4001,-1.3941,-1.3761,-1.3662,-1.3563,-1.358,-1.361,-1.3821,-1.401,-1.4019,-1.389,-1.398,-1.407,-1.4139,-1.4198,-1.4267,-1.4297,-1.4327,-1.4426,-1.4485,-1.4485,-1.4485,-1.4485,-1.4485,-1.4485,-1.4485,-1.4485,-1.4485,-1.4485]}]]